Wetterdaten: Montag, 02.02.2026
Datum Zeit Temp. I. Temp. A. Feuchte I. Feuchte A. Luftdruck Regen Wind Richtung Richtung Sonnenschein Solar Taupunkt Windchill Windböen
02.02.2026 00:00 22,1 °C -5,0 °C 45 % 83 % 1012,3 hPa 0,0 l/m² 16,0 km/h (3 Bft) O 86 ° 0 min 0 W/m² -7,4 °C -13,7 °C 19,3 km/h (3 Bft)
02.02.2026 00:02 22,2 °C -5,0 °C 45 % 83 % 1012,3 hPa 0,0 l/m² 17,7 km/h (3 Bft) O 90 ° 0 min 0 W/m² -7,4 °C -14,8 °C 24,1 km/h (4 Bft)
02.02.2026 00:03 22,2 °C -5,0 °C 45 % 83 % 1012,3 hPa 0,0 l/m² 12,5 km/h (2 Bft) O-NO 63 ° 0 min 0 W/m² -7,4 °C -11,2 °C 17,7 km/h (3 Bft)
02.02.2026 00:05 22,1 °C -5,0 °C 45 % 83 % 1012,2 hPa 0,0 l/m² 14,3 km/h (3 Bft) NO 55 ° 0 min 0 W/m² -7,4 °C -12,5 °C 19,3 km/h (3 Bft)
02.02.2026 00:07 22,1 °C -5,0 °C 45 % 83 % 1012,2 hPa 0,0 l/m² 13,7 km/h (3 Bft) O-NO 74 ° 0 min 0 W/m² -7,4 °C -12,1 °C 19,3 km/h (3 Bft)
02.02.2026 00:09 22,1 °C -5,0 °C 45 % 83 % 1012,2 hPa 0,0 l/m² 12,3 km/h (2 Bft) O 81 ° 0 min 0 W/m² -7,4 °C -11,0 °C 17,7 km/h (3 Bft)
02.02.2026 00:10 22,1 °C -5,0 °C 45 % 83 % 1012,3 hPa 0,0 l/m² 14,1 km/h (3 Bft) O 79 ° 0 min 0 W/m² -7,4 °C -12,4 °C 20,9 km/h (4 Bft)
02.02.2026 00:12 22,1 °C -5,0 °C 45 % 83 % 1012,2 hPa 0,0 l/m² 12,2 km/h (2 Bft) O 86 ° 0 min 0 W/m² -7,4 °C -10,9 °C 16,1 km/h (3 Bft)
02.02.2026 00:13 22,1 °C -5,0 °C 45 % 83 % 1012,2 hPa 0,0 l/m² 10,4 km/h (2 Bft) O 87 ° 0 min 0 W/m² -7,4 °C -9,4 °C 17,7 km/h (3 Bft)
02.02.2026 00:15 22,1 °C -5,0 °C 45 % 83 % 1012,2 hPa 0,0 l/m² 15,3 km/h (3 Bft) O-NO 76 ° 0 min 0 W/m² -7,4 °C -13,2 °C 19,3 km/h (3 Bft)
02.02.2026 00:17 22,1 °C -5,0 °C 45 % 83 % 1012,2 hPa 0,0 l/m² 12,6 km/h (3 Bft) O-NO 57 ° 0 min 0 W/m² -7,4 °C -11,2 °C 16,1 km/h (3 Bft)
02.02.2026 00:19 22,2 °C -5,0 °C 45 % 83 % 1012,2 hPa 0,0 l/m² 8,4 km/h (2 Bft) O-NO 76 ° 0 min 0 W/m² -7,4 °C -7,3 °C 12,9 km/h (3 Bft)
02.02.2026 00:21 22,2 °C -5,0 °C 45 % 83 % 1012,1 hPa 0,0 l/m² 9,1 km/h (2 Bft) O-NO 69 ° 0 min 0 W/m² -7,4 °C -8,1 °C 14,5 km/h (3 Bft)
02.02.2026 00:22 22,2 °C -5,0 °C 45 % 83 % 1012,1 hPa 0,0 l/m² 13,5 km/h (3 Bft) O-NO 75 ° 0 min 0 W/m² -7,4 °C -12,0 °C 17,7 km/h (3 Bft)
02.02.2026 00:23 22,2 °C -5,0 °C 45 % 83 % 1012,2 hPa 0,0 l/m² 9,5 km/h (2 Bft) O-NO 76 ° 0 min 0 W/m² -7,4 °C -8,5 °C 12,9 km/h (3 Bft)
02.02.2026 00:25 22,1 °C -5,0 °C 45 % 83 % 1012,3 hPa 0,0 l/m² 8,0 km/h (2 Bft) O-NO 63 ° 0 min 0 W/m² -7,4 °C -6,9 °C 14,5 km/h (3 Bft)
02.02.2026 00:27 22,1 °C -5,0 °C 45 % 83 % 1012,1 hPa 0,0 l/m² 7,0 km/h (2 Bft) O-NO 68 ° 0 min 0 W/m² -7,4 °C -5,7 °C 11,3 km/h (2 Bft)
02.02.2026 00:29 22,2 °C -5,0 °C 45 % 83 % 1012,3 hPa 0,0 l/m² 8,0 km/h (2 Bft) O 95 ° 0 min 0 W/m² -7,4 °C -6,9 °C 14,5 km/h (3 Bft)
02.02.2026 00:31 22,2 °C -4,9 °C 45 % 83 % 1012,2 hPa 0,0 l/m² 5,6 km/h (2 Bft) O 92 ° 0 min 0 W/m² -7,3 °C -4,9 °C 9,7 km/h (2 Bft)
02.02.2026 00:32 22,1 °C -4,9 °C 45 % 83 % 1012,2 hPa 0,0 l/m² 6,4 km/h (2 Bft) O 80 ° 0 min 0 W/m² -7,3 °C -4,8 °C 11,3 km/h (2 Bft)
02.02.2026 00:33 22,1 °C -4,9 °C 45 % 83 % 1012,2 hPa 0,0 l/m² 7,4 km/h (2 Bft) O 85 ° 0 min 0 W/m² -7,3 °C -6,1 °C 9,7 km/h (2 Bft)
02.02.2026 00:35 22,1 °C -4,9 °C 45 % 84 % 1012,2 hPa 0,0 l/m² 9,5 km/h (2 Bft) O-NO 76 ° 0 min 0 W/m² -7,2 °C -8,4 °C 16,1 km/h (3 Bft)
02.02.2026 00:37 22,1 °C -4,9 °C 45 % 84 % 1012,2 hPa 0,0 l/m² 10,8 km/h (2 Bft) O-NO 66 ° 0 min 0 W/m² -7,2 °C -9,6 °C 14,5 km/h (3 Bft)
02.02.2026 00:39 22,1 °C -4,9 °C 45 % 84 % 1012,3 hPa 0,0 l/m² 11,6 km/h (2 Bft) O 90 ° 0 min 0 W/m² -7,2 °C -10,3 °C 16,1 km/h (3 Bft)
02.02.2026 00:41 22,1 °C -4,9 °C 45 % 84 % 1012,2 hPa 0,0 l/m² 11,1 km/h (2 Bft) O-NO 71 ° 0 min 0 W/m² -7,2 °C -9,9 °C 17,7 km/h (3 Bft)
02.02.2026 00:42 22,1 °C -5,0 °C 45 % 84 % 1012,2 hPa 0,0 l/m² 15,0 km/h (3 Bft) O 85 ° 0 min 0 W/m² -7,3 °C -13,0 °C 19,3 km/h (3 Bft)
02.02.2026 00:43 22,2 °C -5,0 °C 45 % 84 % 1012,2 hPa 0,0 l/m² 13,7 km/h (3 Bft) O 79 ° 0 min 0 W/m² -7,3 °C -12,1 °C 16,1 km/h (3 Bft)
02.02.2026 00:45 22,1 °C -4,9 °C 45 % 84 % 1012,2 hPa 0,0 l/m² 10,7 km/h (2 Bft) O-NO 67 ° 0 min 0 W/m² -7,2 °C -9,5 °C 17,7 km/h (3 Bft)
02.02.2026 00:47 22,1 °C -5,0 °C 45 % 84 % 1012,2 hPa 0,0 l/m² 14,9 km/h (3 Bft) O-NO 76 ° 0 min 0 W/m² -7,3 °C -13,0 °C 19,3 km/h (3 Bft)
02.02.2026 00:49 22,1 °C -4,9 °C 45 % 84 % 1012,1 hPa 0,0 l/m² 14,6 km/h (3 Bft) O 82 ° 0 min 0 W/m² -7,2 °C -12,6 °C 20,9 km/h (4 Bft)
02.02.2026 00:51 22,1 °C -5,0 °C 45 % 84 % 1012,2 hPa 0,0 l/m² 14,1 km/h (3 Bft) O-NO 74 ° 0 min 0 W/m² -7,3 °C -12,4 °C 19,3 km/h (3 Bft)
02.02.2026 00:52 22,1 °C -5,0 °C 45 % 84 % 1012,2 hPa 0,0 l/m² 15,2 km/h (3 Bft) O 91 ° 0 min 0 W/m² -7,3 °C -13,2 °C 19,3 km/h (3 Bft)
02.02.2026 00:53 22,1 °C -4,9 °C 45 % 84 % 1012,1 hPa 0,0 l/m² 13,2 km/h (3 Bft) NO 53 ° 0 min 0 W/m² -7,2 °C -11,6 °C 19,3 km/h (3 Bft)
02.02.2026 00:55 22,1 °C -4,9 °C 45 % 84 % 1012,1 hPa 0,0 l/m² 16,2 km/h (3 Bft) O 88 ° 0 min 0 W/m² -7,2 °C -13,7 °C 22,5 km/h (4 Bft)
02.02.2026 00:57 22,1 °C -5,0 °C 45 % 84 % 1012,0 hPa 0,0 l/m² 12,7 km/h (3 Bft) O-NO 76 ° 0 min 0 W/m² -7,3 °C -11,3 °C 19,3 km/h (3 Bft)
02.02.2026 00:59 22,1 °C -5,0 °C 45 % 84 % 1012,0 hPa 0,0 l/m² 16,0 km/h (3 Bft) O-NO 66 ° 0 min 0 W/m² -7,3 °C -13,7 °C 19,3 km/h (3 Bft)
02.02.2026 01:01 22,1 °C -5,0 °C 45 % 84 % 1012,0 hPa 0,0 l/m² 14,3 km/h (3 Bft) O 90 ° 0 min 0 W/m² -7,3 °C -12,5 °C 20,9 km/h (4 Bft)
02.02.2026 01:02 22,1 °C -5,0 °C 45 % 84 % 1012,0 hPa 0,0 l/m² 12,9 km/h (3 Bft) O-NO 74 ° 0 min 0 W/m² -7,3 °C -11,5 °C 17,7 km/h (3 Bft)
02.02.2026 01:03 22,1 °C -5,0 °C 45 % 84 % 1012,0 hPa 0,0 l/m² 12,5 km/h (2 Bft) O-NO 76 ° 0 min 0 W/m² -7,3 °C -11,2 °C 16,1 km/h (3 Bft)
02.02.2026 01:04 22,1 °C -5,0 °C 45 % 84 % 1012,1 hPa 0,0 l/m² 13,1 km/h (3 Bft) NO 56 ° 0 min 0 W/m² -7,3 °C -11,6 °C 17,7 km/h (3 Bft)
02.02.2026 01:05 22,1 °C -5,0 °C 45 % 84 % 1012,0 hPa 0,0 l/m² 10,6 km/h (2 Bft) O 87 ° 0 min 0 W/m² -7,3 °C -9,5 °C 14,5 km/h (3 Bft)
02.02.2026 01:06 22,1 °C -5,0 °C 45 % 84 % 1012,0 hPa 0,0 l/m² 12,2 km/h (2 Bft) O 86 ° 0 min 0 W/m² -7,3 °C -10,9 °C 20,9 km/h (4 Bft)
02.02.2026 01:08 22,1 °C -5,0 °C 45 % 84 % 1012,1 hPa 0,0 l/m² 13,4 km/h (3 Bft) O 88 ° 0 min 0 W/m² -7,3 °C -11,9 °C 20,9 km/h (4 Bft)
02.02.2026 01:09 22,1 °C -5,0 °C 45 % 84 % 1012,1 hPa 0,0 l/m² 11,7 km/h (2 Bft) O 86 ° 0 min 0 W/m² -7,3 °C -10,5 °C 14,5 km/h (3 Bft)
02.02.2026 01:10 22,1 °C -5,0 °C 45 % 84 % 1012,0 hPa 0,0 l/m² 15,8 km/h (3 Bft) O 84 ° 0 min 0 W/m² -7,3 °C -13,6 °C 19,3 km/h (3 Bft)
02.02.2026 01:11 22,1 °C -5,0 °C 45 % 84 % 1012,0 hPa 0,0 l/m² 19,0 km/h (3 Bft) O 90 ° 0 min 0 W/m² -7,3 °C -15,5 °C 24,1 km/h (4 Bft)
02.02.2026 01:13 22,1 °C -5,0 °C 45 % 84 % 1012,0 hPa 0,0 l/m² 17,1 km/h (3 Bft) O 90 ° 0 min 0 W/m² -7,3 °C -14,4 °C 22,5 km/h (4 Bft)
02.02.2026 01:14 22,1 °C -5,0 °C 45 % 84 % 1012,0 hPa 0,0 l/m² 17,5 km/h (3 Bft) O 80 ° 0 min 0 W/m² -7,3 °C -14,7 °C 20,9 km/h (4 Bft)
02.02.2026 01:15 22,1 °C -5,0 °C 45 % 84 % 1011,9 hPa 0,0 l/m² 14,7 km/h (3 Bft) O-NO 76 ° 0 min 0 W/m² -7,3 °C -12,8 °C 16,1 km/h (3 Bft)
02.02.2026 01:16 22,1 °C -5,0 °C 45 % 84 % 1011,9 hPa 0,0 l/m² 13,8 km/h (3 Bft) O 88 ° 0 min 0 W/m² -7,3 °C -12,2 °C 17,7 km/h (3 Bft)
02.02.2026 01:17 22,1 °C -5,0 °C 45 % 84 % 1011,9 hPa 0,0 l/m² 14,8 km/h (3 Bft) O 92 ° 0 min 0 W/m² -7,3 °C -12,9 °C 20,9 km/h (4 Bft)
02.02.2026 01:18 22,1 °C -5,1 °C 45 % 84 % 1011,9 hPa 0,0 l/m² 15,4 km/h (3 Bft) O-NO 63 ° 0 min 0 W/m² -7,4 °C -13,4 °C 20,9 km/h (4 Bft)
02.02.2026 01:19 22,1 °C -5,1 °C 45 % 84 % 1011,9 hPa 0,0 l/m² 8,4 km/h (2 Bft) O 86 ° 0 min 0 W/m² -7,4 °C -7,4 °C 14,5 km/h (3 Bft)
02.02.2026 01:20 22,1 °C -5,0 °C 45 % 84 % 1012,0 hPa 0,0 l/m² 13,0 km/h (3 Bft) O-NO 76 ° 0 min 0 W/m² -7,3 °C -11,6 °C 16,1 km/h (3 Bft)
02.02.2026 01:23 22,1 °C -5,0 °C 45 % 84 % 1011,9 hPa 0,0 l/m² 12,6 km/h (3 Bft) O-NO 71 ° 0 min 0 W/m² -7,3 °C -11,2 °C 17,7 km/h (3 Bft)
02.02.2026 01:24 22,1 °C -5,0 °C 45 % 84 % 1011,9 hPa 0,0 l/m² 16,8 km/h (3 Bft) O 87 ° 0 min 0 W/m² -7,3 °C -14,2 °C 19,3 km/h (3 Bft)
02.02.2026 01:25 22,1 °C -5,1 °C 45 % 84 % 1011,9 hPa 0,0 l/m² 10,9 km/h (2 Bft) O 86 ° 0 min 0 W/m² -7,4 °C -9,9 °C 17,7 km/h (3 Bft)
02.02.2026 01:26 22,1 °C -5,1 °C 45 % 84 % 1011,9 hPa 0,0 l/m² 14,0 km/h (3 Bft) O-NO 78 ° 0 min 0 W/m² -7,4 °C -12,4 °C 20,9 km/h (4 Bft)
02.02.2026 01:27 22,1 °C -5,0 °C 45 % 84 % 1011,9 hPa 0,0 l/m² 10,9 km/h (2 Bft) O-NO 78 ° 0 min 0 W/m² -7,3 °C -9,8 °C 14,5 km/h (3 Bft)
02.02.2026 01:28 22,1 °C -5,1 °C 45 % 84 % 1011,9 hPa 0,0 l/m² 12,2 km/h (2 Bft) O-NO 69 ° 0 min 0 W/m² -7,4 °C -11,0 °C 16,1 km/h (3 Bft)
02.02.2026 01:29 22,1 °C -5,0 °C 45 % 84 % 1011,8 hPa 0,0 l/m² 10,5 km/h (2 Bft) O-NO 67 ° 0 min 0 W/m² -7,3 °C -9,4 °C 14,5 km/h (3 Bft)
02.02.2026 01:31 22,1 °C -5,1 °C 45 % 84 % 1011,9 hPa 0,0 l/m² 12,2 km/h (2 Bft) O-NO 67 ° 0 min 0 W/m² -7,4 °C -11,0 °C 17,7 km/h (3 Bft)
02.02.2026 01:32 22,1 °C -5,1 °C 45 % 84 % 1011,9 hPa 0,0 l/m² 14,8 km/h (3 Bft) O 85 ° 0 min 0 W/m² -7,4 °C -13,0 °C 17,7 km/h (3 Bft)
02.02.2026 01:33 22,1 °C -5,1 °C 45 % 84 % 1011,9 hPa 0,0 l/m² 17,9 km/h (3 Bft) O 100 ° 0 min 0 W/m² -7,4 °C -15,0 °C 22,5 km/h (4 Bft)
02.02.2026 01:35 22,1 °C -5,1 °C 45 % 84 % 1011,8 hPa 0,0 l/m² 14,5 km/h (3 Bft) O 82 ° 0 min 0 W/m² -7,4 °C -12,8 °C 20,9 km/h (4 Bft)
02.02.2026 01:36 22,1 °C -5,1 °C 45 % 84 % 1011,8 hPa 0,0 l/m² 18,6 km/h (3 Bft) O 85 ° 0 min 0 W/m² -7,4 °C -15,4 °C 22,5 km/h (4 Bft)
02.02.2026 01:37 22,1 °C -5,1 °C 45 % 84 % 1011,8 hPa 0,0 l/m² 18,2 km/h (3 Bft) O 88 ° 0 min 0 W/m² -7,4 °C -15,2 °C 20,9 km/h (4 Bft)
02.02.2026 01:38 22,1 °C -5,1 °C 45 % 84 % 1011,8 hPa 0,0 l/m² 15,8 km/h (3 Bft) O 80 ° 0 min 0 W/m² -7,4 °C -13,7 °C 19,3 km/h (3 Bft)
02.02.2026 01:39 22,1 °C -5,1 °C 45 % 84 % 1011,7 hPa 0,0 l/m² 14,5 km/h (3 Bft) O 96 ° 0 min 0 W/m² -7,4 °C -12,8 °C 22,5 km/h (4 Bft)
02.02.2026 01:41 22,1 °C -5,1 °C 45 % 84 % 1011,7 hPa 0,0 l/m² 13,3 km/h (3 Bft) O-NO 70 ° 0 min 0 W/m² -7,4 °C -11,9 °C 19,3 km/h (3 Bft)
02.02.2026 01:42 22,1 °C -5,1 °C 45 % 84 % 1011,8 hPa 0,0 l/m² 16,4 km/h (3 Bft) O 94 ° 0 min 0 W/m² -7,4 °C -14,1 °C 22,5 km/h (4 Bft)
02.02.2026 01:43 22,1 °C -5,1 °C 45 % 84 % 1011,8 hPa 0,0 l/m² 13,7 km/h (3 Bft) O-NO 61 ° 0 min 0 W/m² -7,4 °C -12,2 °C 20,9 km/h (4 Bft)
02.02.2026 01:44 22,1 °C -5,1 °C 45 % 84 % 1011,7 hPa 0,0 l/m² 13,0 km/h (3 Bft) O-NO 68 ° 0 min 0 W/m² -7,4 °C -11,7 °C 16,1 km/h (3 Bft)
02.02.2026 01:45 22,1 °C -5,1 °C 45 % 84 % 1011,7 hPa 0,0 l/m² 16,7 km/h (3 Bft) O-SO 104 ° 0 min 0 W/m² -7,4 °C -14,3 °C 19,3 km/h (3 Bft)
02.02.2026 01:46 22,1 °C -5,1 °C 45 % 84 % 1011,6 hPa 0,0 l/m² 13,8 km/h (3 Bft) O 92 ° 0 min 0 W/m² -7,4 °C -12,3 °C 19,3 km/h (3 Bft)
02.02.2026 01:47 22,1 °C -5,1 °C 45 % 84 % 1011,6 hPa 0,0 l/m² 9,7 km/h (2 Bft) O 80 ° 0 min 0 W/m² -7,4 °C -8,8 °C 17,7 km/h (3 Bft)
02.02.2026 01:48 22,1 °C -5,1 °C 45 % 84 % 1011,6 hPa 0,0 l/m² 11,4 km/h (2 Bft) O 88 ° 0 min 0 W/m² -7,4 °C -10,4 °C 17,7 km/h (3 Bft)
02.02.2026 01:49 22,1 °C -5,1 °C 45 % 84 % 1011,8 hPa 0,0 l/m² 10,6 km/h (2 Bft) O 87 ° 0 min 0 W/m² -7,4 °C -9,6 °C 17,7 km/h (3 Bft)
02.02.2026 01:50 22,1 °C -5,1 °C 45 % 84 % 1011,7 hPa 0,0 l/m² 7,6 km/h (2 Bft) NO 46 ° 0 min 0 W/m² -7,4 °C -6,5 °C 11,3 km/h (2 Bft)
02.02.2026 01:53 22,1 °C -5,1 °C 45 % 84 % 1011,8 hPa 0,0 l/m² 10,9 km/h (2 Bft) NO 52 ° 0 min 0 W/m² -7,4 °C -9,9 °C 16,1 km/h (3 Bft)
02.02.2026 01:54 22,1 °C -5,1 °C 45 % 84 % 1011,8 hPa 0,0 l/m² 8,5 km/h (2 Bft) O-NO 74 ° 0 min 0 W/m² -7,4 °C -7,6 °C 11,3 km/h (2 Bft)
02.02.2026 01:55 22,1 °C -5,1 °C 45 % 84 % 1011,8 hPa 0,0 l/m² 5,7 km/h (2 Bft) O 86 ° 0 min 0 W/m² -7,4 °C -5,1 °C 9,7 km/h (2 Bft)
02.02.2026 01:56 22,1 °C -5,1 °C 45 % 84 % 1011,7 hPa 0,0 l/m² 14,6 km/h (3 Bft) O 80 ° 0 min 0 W/m² -7,4 °C -12,9 °C 22,5 km/h (4 Bft)
02.02.2026 01:57 22,1 °C -5,1 °C 45 % 84 % 1011,7 hPa 0,0 l/m² 14,4 km/h (3 Bft) O 87 ° 0 min 0 W/m² -7,4 °C -12,7 °C 19,3 km/h (3 Bft)
02.02.2026 01:58 22,1 °C -5,1 °C 45 % 84 % 1011,6 hPa 0,0 l/m² 15,8 km/h (3 Bft) O 86 ° 0 min 0 W/m² -7,4 °C -13,7 °C 19,3 km/h (3 Bft)
02.02.2026 01:59 22,1 °C -5,1 °C 45 % 84 % 1011,7 hPa 0,0 l/m² 14,8 km/h (3 Bft) O 84 ° 0 min 0 W/m² -7,4 °C -13,0 °C 20,9 km/h (4 Bft)
02.02.2026 02:01 22,1 °C -5,1 °C 45 % 84 % 1011,6 hPa 0,0 l/m² 15,4 km/h (3 Bft) O 94 ° 0 min 0 W/m² -7,4 °C -13,4 °C 20,9 km/h (4 Bft)
02.02.2026 02:02 22,1 °C -5,1 °C 45 % 84 % 1011,6 hPa 0,0 l/m² 13,5 km/h (3 Bft) O-NO 74 ° 0 min 0 W/m² -7,4 °C -12,1 °C 17,7 km/h (3 Bft)
02.02.2026 02:03 22,1 °C -5,1 °C 45 % 84 % 1011,6 hPa 0,0 l/m² 14,7 km/h (3 Bft) O 88 ° 0 min 0 W/m² -7,4 °C -12,9 °C 17,7 km/h (3 Bft)
02.02.2026 02:04 22,1 °C -5,1 °C 45 % 84 % 1011,6 hPa 0,0 l/m² 12,7 km/h (3 Bft) O 86 ° 0 min 0 W/m² -7,4 °C -11,4 °C 17,7 km/h (3 Bft)
02.02.2026 02:05 22,1 °C -5,1 °C 45 % 84 % 1011,7 hPa 0,0 l/m² 8,9 km/h (2 Bft) O-NO 76 ° 0 min 0 W/m² -7,4 °C -8,0 °C 12,9 km/h (3 Bft)
02.02.2026 02:06 22,1 °C -5,1 °C 45 % 84 % 1011,6 hPa 0,0 l/m² 11,3 km/h (2 Bft) O-NO 59 ° 0 min 0 W/m² -7,4 °C -10,3 °C 14,5 km/h (3 Bft)
02.02.2026 02:07 22,1 °C -5,1 °C 45 % 84 % 1011,6 hPa 0,0 l/m² 10,7 km/h (2 Bft) O-NO 76 ° 0 min 0 W/m² -7,4 °C -9,7 °C 14,5 km/h (3 Bft)
02.02.2026 02:08 22,1 °C -5,1 °C 45 % 84 % 1011,7 hPa 0,0 l/m² 12,6 km/h (3 Bft) O 94 ° 0 min 0 W/m² -7,4 °C -11,4 °C 16,1 km/h (3 Bft)
02.02.2026 02:09 22,1 °C -5,1 °C 45 % 84 % 1011,6 hPa 0,0 l/m² 12,6 km/h (3 Bft) O 88 ° 0 min 0 W/m² -7,4 °C -11,4 °C 16,1 km/h (3 Bft)
02.02.2026 02:11 22,1 °C -5,1 °C 45 % 84 % 1011,5 hPa 0,0 l/m² 7,7 km/h (2 Bft) O-NO 62 ° 0 min 0 W/m² -7,4 °C -6,7 °C 11,3 km/h (2 Bft)
02.02.2026 02:12 22,1 °C -5,1 °C 45 % 84 % 1011,5 hPa 0,0 l/m² 12,5 km/h (2 Bft) O-NO 76 ° 0 min 0 W/m² -7,4 °C -11,3 °C 17,7 km/h (3 Bft)
02.02.2026 02:13 22,1 °C -5,1 °C 45 % 84 % 1011,5 hPa 0,0 l/m² 12,2 km/h (2 Bft) O-NO 61 ° 0 min 0 W/m² -7,4 °C -11,0 °C 14,5 km/h (3 Bft)
02.02.2026 02:14 22,1 °C -5,1 °C 45 % 85 % 1011,5 hPa 0,0 l/m² 7,4 km/h (2 Bft) O-NO 78 ° 0 min 0 W/m² -7,2 °C -6,3 °C 11,3 km/h (2 Bft)
02.02.2026 02:15 22,1 °C -5,1 °C 45 % 85 % 1011,5 hPa 0,0 l/m² 9,9 km/h (2 Bft) O-NO 75 ° 0 min 0 W/m² -7,2 °C -9,0 °C 12,9 km/h (3 Bft)
02.02.2026 02:16 22,1 °C -5,1 °C 45 % 85 % 1011,6 hPa 0,0 l/m² 5,6 km/h (2 Bft) O-NO 71 ° 0 min 0 W/m² -7,2 °C -5,1 °C 9,7 km/h (2 Bft)
02.02.2026 02:17 22,1 °C -5,1 °C 45 % 85 % 1011,5 hPa 0,0 l/m² 6,7 km/h (2 Bft) O-NO 69 ° 0 min 0 W/m² -7,2 °C -5,4 °C 8,0 km/h (2 Bft)
02.02.2026 02:18 22,1 °C -5,1 °C 45 % 85 % 1011,5 hPa 0,0 l/m² 8,8 km/h (2 Bft) O-NO 64 ° 0 min 0 W/m² -7,2 °C -7,9 °C 12,9 km/h (3 Bft)
02.02.2026 02:19 22,1 °C -5,1 °C 45 % 85 % 1011,5 hPa 0,0 l/m² 10,5 km/h (2 Bft) O-NO 76 ° 0 min 0 W/m² -7,2 °C -9,6 °C 16,1 km/h (3 Bft)
02.02.2026 02:21 22,1 °C -5,1 °C 45 % 85 % 1011,4 hPa 0,0 l/m² 10,3 km/h (2 Bft) O-NO 67 ° 0 min 0 W/m² -7,2 °C -9,4 °C 16,1 km/h (3 Bft)
02.02.2026 02:22 22,1 °C -5,1 °C 45 % 85 % 1011,4 hPa 0,0 l/m² 12,0 km/h (2 Bft) O 94 ° 0 min 0 W/m² -7,2 °C -10,9 °C 17,7 km/h (3 Bft)
02.02.2026 02:23 22,1 °C -5,1 °C 45 % 85 % 1011,4 hPa 0,0 l/m² 11,0 km/h (2 Bft) O 84 ° 0 min 0 W/m² -7,2 °C -10,0 °C 14,5 km/h (3 Bft)
02.02.2026 02:24 22,1 °C -5,1 °C 45 % 85 % 1011,5 hPa 0,0 l/m² 7,7 km/h (2 Bft) O-NO 78 ° 0 min 0 W/m² -7,2 °C -6,7 °C 11,3 km/h (2 Bft)
02.02.2026 02:25 22,1 °C -5,1 °C 45 % 85 % 1011,5 hPa 0,0 l/m² 12,3 km/h (2 Bft) O 83 ° 0 min 0 W/m² -7,2 °C -11,1 °C 16,1 km/h (3 Bft)
02.02.2026 02:26 22,1 °C -5,1 °C 45 % 85 % 1011,4 hPa 0,0 l/m² 11,6 km/h (2 Bft) O-NO 61 ° 0 min 0 W/m² -7,2 °C -10,5 °C 16,1 km/h (3 Bft)
02.02.2026 02:27 22,1 °C -5,1 °C 45 % 84 % 1011,4 hPa 0,0 l/m² 10,8 km/h (2 Bft) O 89 ° 0 min 0 W/m² -7,4 °C -9,8 °C 16,1 km/h (3 Bft)
02.02.2026 02:28 22,1 °C -5,1 °C 45 % 84 % 1011,4 hPa 0,0 l/m² 9,2 km/h (2 Bft) O-NO 63 ° 0 min 0 W/m² -7,4 °C -8,3 °C 14,5 km/h (3 Bft)
02.02.2026 02:29 22,1 °C -5,1 °C 45 % 84 % 1011,4 hPa 0,0 l/m² 10,7 km/h (2 Bft) O 94 ° 0 min 0 W/m² -7,4 °C -9,7 °C 14,5 km/h (3 Bft)
02.02.2026 02:31 22,1 °C -5,1 °C 45 % 84 % 1011,4 hPa 0,0 l/m² 12,3 km/h (2 Bft) O 82 ° 0 min 0 W/m² -7,4 °C -11,1 °C 17,7 km/h (3 Bft)
02.02.2026 02:32 22,1 °C -5,1 °C 45 % 84 % 1011,4 hPa 0,0 l/m² 8,5 km/h (2 Bft) O-NO 75 ° 0 min 0 W/m² -7,4 °C -7,6 °C 16,1 km/h (3 Bft)
02.02.2026 02:33 22,1 °C -5,1 °C 45 % 84 % 1011,4 hPa 0,0 l/m² 10,1 km/h (2 Bft) NO 46 ° 0 min 0 W/m² -7,4 °C -9,2 °C 14,5 km/h (3 Bft)
02.02.2026 02:35 22,1 °C -5,1 °C 45 % 84 % 1011,3 hPa 0,0 l/m² 7,0 km/h (2 Bft) NO 35 ° 0 min 0 W/m² -7,4 °C -5,8 °C 12,9 km/h (3 Bft)
02.02.2026 02:36 22,1 °C -5,1 °C 45 % 84 % 1011,3 hPa 0,0 l/m² 7,9 km/h (2 Bft) O 90 ° 0 min 0 W/m² -7,4 °C -6,9 °C 11,3 km/h (2 Bft)
02.02.2026 02:37 22,1 °C -5,1 °C 45 % 84 % 1011,3 hPa 0,0 l/m² 10,4 km/h (2 Bft) O-NO 66 ° 0 min 0 W/m² -7,4 °C -9,5 °C 16,1 km/h (3 Bft)
02.02.2026 02:38 22,1 °C -5,1 °C 45 % 84 % 1011,3 hPa 0,0 l/m² 13,3 km/h (3 Bft) O-NO 68 ° 0 min 0 W/m² -7,4 °C -11,9 °C 17,7 km/h (3 Bft)
02.02.2026 02:39 22,1 °C -5,1 °C 45 % 84 % 1011,2 hPa 0,0 l/m² 11,4 km/h (2 Bft) O-NO 70 ° 0 min 0 W/m² -7,4 °C -10,4 °C 17,7 km/h (3 Bft)
02.02.2026 02:40 22,1 °C -5,1 °C 45 % 84 % 1011,3 hPa 0,0 l/m² 12,6 km/h (3 Bft) O 101 ° 0 min 0 W/m² -7,4 °C -11,4 °C 20,9 km/h (4 Bft)
02.02.2026 02:43 22,1 °C -5,2 °C 45 % 84 % 1011,4 hPa 0,0 l/m² 12,2 km/h (2 Bft) NO 44 ° 0 min 0 W/m² -7,5 °C -11,2 °C 20,9 km/h (4 Bft)
02.02.2026 02:44 22,1 °C -5,1 °C 45 % 84 % 1011,3 hPa 0,0 l/m² 12,8 km/h (3 Bft) O 88 ° 0 min 0 W/m² -7,4 °C -11,5 °C 17,7 km/h (3 Bft)
02.02.2026 02:45 22,1 °C -5,2 °C 45 % 84 % 1011,3 hPa 0,0 l/m² 12,9 km/h (3 Bft) O 82 ° 0 min 0 W/m² -7,5 °C -11,7 °C 16,1 km/h (3 Bft)
02.02.2026 02:46 22,1 °C -5,2 °C 45 % 84 % 1011,3 hPa 0,0 l/m² 13,7 km/h (3 Bft) O 82 ° 0 min 0 W/m² -7,5 °C -12,3 °C 14,5 km/h (3 Bft)
02.02.2026 02:47 22,1 °C -5,2 °C 45 % 84 % 1011,3 hPa 0,0 l/m² 7,5 km/h (2 Bft) NO 52 ° 0 min 0 W/m² -7,5 °C -6,5 °C 12,9 km/h (3 Bft)
02.02.2026 02:48 22,1 °C -5,1 °C 45 % 84 % 1011,2 hPa 0,0 l/m² 3,8 km/h (1 Bft) O 86 ° 0 min 0 W/m² -7,4 °C -5,1 °C 4,8 km/h (1 Bft)
02.02.2026 02:49 22,1 °C -5,2 °C 45 % 84 % 1011,2 hPa 0,0 l/m² 9,9 km/h (2 Bft) O 81 ° 0 min 0 W/m² -7,5 °C -9,1 °C 14,5 km/h (3 Bft)
02.02.2026 02:51 22,1 °C -5,2 °C 45 % 84 % 1011,3 hPa 0,0 l/m² 13,2 km/h (3 Bft) O 88 ° 0 min 0 W/m² -7,5 °C -12,0 °C 16,1 km/h (3 Bft)
02.02.2026 02:52 22,1 °C -5,2 °C 45 % 84 % 1011,2 hPa 0,0 l/m² 12,9 km/h (3 Bft) NO 55 ° 0 min 0 W/m² -7,5 °C -11,7 °C 17,7 km/h (3 Bft)
02.02.2026 02:53 22,1 °C -5,2 °C 45 % 84 % 1011,2 hPa 0,0 l/m² 11,0 km/h (2 Bft) O 87 ° 0 min 0 W/m² -7,5 °C -10,1 °C 14,5 km/h (3 Bft)
02.02.2026 02:55 22,1 °C -5,2 °C 45 % 84 % 1011,2 hPa 0,0 l/m² 13,4 km/h (3 Bft) O 83 ° 0 min 0 W/m² -7,5 °C -12,1 °C 19,3 km/h (3 Bft)
02.02.2026 02:56 22,1 °C -5,2 °C 45 % 84 % 1011,3 hPa 0,0 l/m² 6,0 km/h (2 Bft) O 81 ° 0 min 0 W/m² -7,5 °C -5,2 °C 8,0 km/h (2 Bft)
02.02.2026 02:57 22,1 °C -5,2 °C 45 % 84 % 1011,3 hPa 0,0 l/m² 11,3 km/h (2 Bft) NO 51 ° 0 min 0 W/m² -7,5 °C -10,4 °C 16,1 km/h (3 Bft)
02.02.2026 02:58 22,1 °C -5,2 °C 45 % 84 % 1011,3 hPa 0,0 l/m² 13,3 km/h (3 Bft) NO 56 ° 0 min 0 W/m² -7,5 °C -12,0 °C 19,3 km/h (3 Bft)
02.02.2026 02:59 22,1 °C -5,2 °C 45 % 84 % 1011,2 hPa 0,0 l/m² 12,5 km/h (2 Bft) O-NO 59 ° 0 min 0 W/m² -7,5 °C -11,4 °C 16,1 km/h (3 Bft)
02.02.2026 03:01 22,1 °C -5,2 °C 45 % 84 % 1011,2 hPa 0,0 l/m² 11,5 km/h (2 Bft) O 81 ° 0 min 0 W/m² -7,5 °C -10,6 °C 19,3 km/h (3 Bft)
02.02.2026 03:02 22,1 °C -5,2 °C 45 % 84 % 1011,2 hPa 0,0 l/m² 8,8 km/h (2 Bft) O-NO 72 ° 0 min 0 W/m² -7,5 °C -8,0 °C 17,7 km/h (3 Bft)
02.02.2026 03:03 22,1 °C -5,2 °C 45 % 84 % 1011,2 hPa 0,0 l/m² 10,0 km/h (2 Bft) O 88 ° 0 min 0 W/m² -7,5 °C -9,2 °C 14,5 km/h (3 Bft)
02.02.2026 03:05 22,1 °C -5,2 °C 45 % 84 % 1011,2 hPa 0,0 l/m² 11,9 km/h (2 Bft) O 80 ° 0 min 0 W/m² -7,5 °C -10,9 °C 17,7 km/h (3 Bft)
02.02.2026 03:06 22,1 °C -5,2 °C 45 % 84 % 1011,2 hPa 0,0 l/m² 17,3 km/h (3 Bft) O 87 ° 0 min 0 W/m² -7,5 °C -14,8 °C 19,3 km/h (3 Bft)
02.02.2026 03:08 22,1 °C -5,2 °C 45 % 84 % 1011,1 hPa 0,0 l/m² 8,4 km/h (2 Bft) O-NO 71 ° 0 min 0 W/m² -7,5 °C -7,6 °C 17,7 km/h (3 Bft)
02.02.2026 03:09 22,1 °C -5,2 °C 45 % 84 % 1011,1 hPa 0,0 l/m² 10,6 km/h (2 Bft) O-NO 75 ° 0 min 0 W/m² -7,5 °C -9,8 °C 16,1 km/h (3 Bft)
02.02.2026 03:11 22,1 °C -5,2 °C 45 % 84 % 1011,1 hPa 0,0 l/m² 11,6 km/h (2 Bft) O 90 ° 0 min 0 W/m² -7,5 °C -10,6 °C 16,1 km/h (3 Bft)
02.02.2026 03:12 22,1 °C -5,2 °C 45 % 84 % 1011,1 hPa 0,0 l/m² 12,8 km/h (3 Bft) O 84 ° 0 min 0 W/m² -7,5 °C -11,6 °C 17,7 km/h (3 Bft)
02.02.2026 03:13 22,1 °C -5,2 °C 45 % 84 % 1011,1 hPa 0,0 l/m² 8,0 km/h (2 Bft) O 82 ° 0 min 0 W/m² -7,5 °C -7,1 °C 12,9 km/h (3 Bft)
02.02.2026 03:15 22,1 °C -5,2 °C 45 % 84 % 1011,0 hPa 0,0 l/m² 7,8 km/h (2 Bft) O-NO 78 ° 0 min 0 W/m² -7,5 °C -6,9 °C 12,9 km/h (3 Bft)
02.02.2026 03:16 22,1 °C -5,2 °C 45 % 84 % 1011,0 hPa 0,0 l/m² 5,1 km/h (1 Bft) O-NO 65 ° 0 min 0 W/m² -7,5 °C -5,2 °C 8,0 km/h (2 Bft)
02.02.2026 03:17 22,1 °C -5,2 °C 45 % 84 % 1011,0 hPa 0,0 l/m² 6,3 km/h (2 Bft) NO 55 ° 0 min 0 W/m² -7,5 °C -5,2 °C 11,3 km/h (2 Bft)
02.02.2026 03:18 22,1 °C -5,2 °C 45 % 84 % 1011,0 hPa 0,0 l/m² 10,4 km/h (2 Bft) NO 56 ° 0 min 0 W/m² -7,5 °C -9,6 °C 16,1 km/h (3 Bft)
02.02.2026 03:19 22,1 °C -5,2 °C 45 % 84 % 1011,0 hPa 0,0 l/m² 7,8 km/h (2 Bft) O 94 ° 0 min 0 W/m² -7,5 °C -6,9 °C 11,3 km/h (2 Bft)
02.02.2026 03:21 22,1 °C -5,2 °C 45 % 83 % 1011,0 hPa 0,0 l/m² 12,9 km/h (3 Bft) O-NO 74 ° 0 min 0 W/m² -7,6 °C -11,7 °C 17,7 km/h (3 Bft)
02.02.2026 03:22 22,1 °C -5,2 °C 45 % 83 % 1011,0 hPa 0,0 l/m² 11,7 km/h (2 Bft) O-NO 64 ° 0 min 0 W/m² -7,6 °C -10,7 °C 16,1 km/h (3 Bft)
02.02.2026 03:23 22,1 °C -5,3 °C 45 % 83 % 1011,0 hPa 0,0 l/m² 11,5 km/h (2 Bft) O-NO 65 ° 0 min 0 W/m² -7,7 °C -10,7 °C 14,5 km/h (3 Bft)
02.02.2026 03:25 22,1 °C -5,3 °C 45 % 83 % 1010,9 hPa 0,0 l/m² 10,5 km/h (2 Bft) O 84 ° 0 min 0 W/m² -7,7 °C -9,8 °C 17,7 km/h (3 Bft)
02.02.2026 03:26 22,1 °C -5,3 °C 45 % 83 % 1010,9 hPa 0,0 l/m² 11,2 km/h (2 Bft) O-NO 57 ° 0 min 0 W/m² -7,7 °C -10,4 °C 16,1 km/h (3 Bft)
02.02.2026 03:27 22,1 °C -5,3 °C 45 % 83 % 1010,9 hPa 0,0 l/m² 5,1 km/h (1 Bft) NO 56 ° 0 min 0 W/m² -7,7 °C -5,3 °C 9,7 km/h (2 Bft)
02.02.2026 03:28 22,1 °C -5,3 °C 45 % 83 % 1010,9 hPa 0,0 l/m² 10,7 km/h (2 Bft) O 86 ° 0 min 0 W/m² -7,7 °C -10,0 °C 16,1 km/h (3 Bft)
02.02.2026 03:29 22,1 °C -5,3 °C 45 % 83 % 1010,9 hPa 0,0 l/m² 8,8 km/h (2 Bft) O 80 ° 0 min 0 W/m² -7,7 °C -8,1 °C 12,9 km/h (3 Bft)
02.02.2026 03:31 22,1 °C -5,3 °C 45 % 83 % 1010,9 hPa 0,0 l/m² 12,5 km/h (2 Bft) O 81 ° 0 min 0 W/m² -7,7 °C -11,5 °C 19,3 km/h (3 Bft)
02.02.2026 03:32 22,1 °C -5,3 °C 45 % 83 % 1010,9 hPa 0,0 l/m² 13,1 km/h (3 Bft) O-NO 74 ° 0 min 0 W/m² -7,7 °C -12,0 °C 17,7 km/h (3 Bft)
02.02.2026 03:33 22,1 °C -5,3 °C 45 % 83 % 1010,8 hPa 0,0 l/m² 11,4 km/h (2 Bft) O-NO 64 ° 0 min 0 W/m² -7,7 °C -10,6 °C 16,1 km/h (3 Bft)
02.02.2026 03:35 22,1 °C -5,3 °C 45 % 83 % 1010,9 hPa 0,0 l/m² 11,2 km/h (2 Bft) O-NO 78 ° 0 min 0 W/m² -7,7 °C -10,4 °C 17,7 km/h (3 Bft)
02.02.2026 03:36 22,1 °C -5,3 °C 45 % 83 % 1010,8 hPa 0,0 l/m² 10,2 km/h (2 Bft) O-NO 63 ° 0 min 0 W/m² -7,7 °C -9,5 °C 14,5 km/h (3 Bft)
02.02.2026 03:37 22,1 °C -5,3 °C 45 % 83 % 1010,8 hPa 0,0 l/m² 10,1 km/h (2 Bft) O 86 ° 0 min 0 W/m² -7,7 °C -9,4 °C 14,5 km/h (3 Bft)
02.02.2026 03:38 22,1 °C -5,3 °C 45 % 83 % 1010,9 hPa 0,0 l/m² 7,8 km/h (2 Bft) NO 54 ° 0 min 0 W/m² -7,7 °C -7,0 °C 14,5 km/h (3 Bft)
02.02.2026 03:39 22,1 °C -5,3 °C 45 % 83 % 1010,8 hPa 0,0 l/m² 11,8 km/h (2 Bft) O-NO 65 ° 0 min 0 W/m² -7,7 °C -10,9 °C 16,1 km/h (3 Bft)
02.02.2026 03:41 22,1 °C -5,3 °C 45 % 83 % 1010,8 hPa 0,0 l/m² 8,7 km/h (2 Bft) O-NO 64 ° 0 min 0 W/m² -7,7 °C -8,0 °C 19,3 km/h (3 Bft)
02.02.2026 03:42 22,1 °C -5,3 °C 45 % 83 % 1010,7 hPa 0,0 l/m² 12,4 km/h (2 Bft) O-NO 72 ° 0 min 0 W/m² -7,7 °C -11,4 °C 17,7 km/h (3 Bft)
02.02.2026 03:43 22,1 °C -5,3 °C 45 % 83 % 1010,7 hPa 0,0 l/m² 14,0 km/h (3 Bft) NO 52 ° 0 min 0 W/m² -7,7 °C -12,7 °C 17,7 km/h (3 Bft)
02.02.2026 03:45 22,1 °C -5,3 °C 45 % 83 % 1010,7 hPa 0,0 l/m² 12,6 km/h (3 Bft) O-NO 72 ° 0 min 0 W/m² -7,7 °C -11,6 °C 17,7 km/h (3 Bft)
02.02.2026 03:46 22,1 °C -5,3 °C 45 % 83 % 1010,7 hPa 0,0 l/m² 12,0 km/h (2 Bft) O-NO 74 ° 0 min 0 W/m² -7,7 °C -11,1 °C 16,1 km/h (3 Bft)
02.02.2026 03:47 22,1 °C -5,3 °C 45 % 83 % 1010,7 hPa 0,0 l/m² 11,5 km/h (2 Bft) NO 48 ° 0 min 0 W/m² -7,7 °C -10,7 °C 17,7 km/h (3 Bft)
02.02.2026 03:48 22,1 °C -5,3 °C 45 % 83 % 1010,7 hPa 0,0 l/m² 13,5 km/h (3 Bft) O-NO 78 ° 0 min 0 W/m² -7,7 °C -12,3 °C 19,3 km/h (3 Bft)
02.02.2026 03:49 22,1 °C -5,3 °C 45 % 83 % 1010,7 hPa 0,0 l/m² 7,2 km/h (2 Bft) O 82 ° 0 min 0 W/m² -7,7 °C -6,3 °C 11,3 km/h (2 Bft)
02.02.2026 03:51 22,1 °C -5,3 °C 45 % 83 % 1010,6 hPa 0,0 l/m² 10,5 km/h (2 Bft) O 80 ° 0 min 0 W/m² -7,7 °C -9,8 °C 19,3 km/h (3 Bft)
02.02.2026 03:52 22,1 °C -5,3 °C 45 % 83 % 1010,5 hPa 0,0 l/m² 15,5 km/h (3 Bft) O-NO 74 ° 0 min 0 W/m² -7,7 °C -13,7 °C 20,9 km/h (4 Bft)
02.02.2026 03:53 22,1 °C -5,3 °C 45 % 83 % 1010,5 hPa 0,0 l/m² 13,1 km/h (3 Bft) O-NO 74 ° 0 min 0 W/m² -7,7 °C -12,0 °C 17,7 km/h (3 Bft)
02.02.2026 03:55 22,1 °C -5,4 °C 45 % 83 % 1010,7 hPa 0,0 l/m² 12,7 km/h (3 Bft) O-NO 71 ° 0 min 0 W/m² -7,8 °C -11,8 °C 19,3 km/h (3 Bft)
02.02.2026 03:56 22,1 °C -5,4 °C 45 % 83 % 1010,6 hPa 0,0 l/m² 8,5 km/h (2 Bft) O-NO 71 ° 0 min 0 W/m² -7,8 °C -7,9 °C 12,9 km/h (3 Bft)
02.02.2026 03:57 22,1 °C -5,4 °C 45 % 83 % 1010,7 hPa 0,0 l/m² 11,7 km/h (2 Bft) O-NO 68 ° 0 min 0 W/m² -7,8 °C -11,0 °C 16,1 km/h (3 Bft)
02.02.2026 03:58 22,1 °C -5,4 °C 45 % 83 % 1010,7 hPa 0,0 l/m² 12,5 km/h (2 Bft) NO 53 ° 0 min 0 W/m² -7,8 °C -11,6 °C 19,3 km/h (3 Bft)
02.02.2026 03:59 22,1 °C -5,4 °C 45 % 83 % 1010,7 hPa 0,0 l/m² 11,5 km/h (2 Bft) O-NO 71 ° 0 min 0 W/m² -7,8 °C -10,8 °C 14,5 km/h (3 Bft)
02.02.2026 04:01 22,1 °C -5,4 °C 45 % 83 % 1010,7 hPa 0,0 l/m² 10,0 km/h (2 Bft) O-NO 67 ° 0 min 0 W/m² -7,8 °C -9,4 °C 20,9 km/h (4 Bft)
02.02.2026 04:02 22,1 °C -5,4 °C 45 % 83 % 1010,7 hPa 0,0 l/m² 10,6 km/h (2 Bft) NO 50 ° 0 min 0 W/m² -7,8 °C -10,0 °C 14,5 km/h (3 Bft)
02.02.2026 04:03 22,1 °C -5,4 °C 45 % 83 % 1010,7 hPa 0,0 l/m² 12,6 km/h (3 Bft) O-NO 76 ° 0 min 0 W/m² -7,8 °C -11,7 °C 16,1 km/h (3 Bft)
02.02.2026 04:05 22,1 °C -5,4 °C 45 % 83 % 1010,7 hPa 0,0 l/m² 10,6 km/h (2 Bft) O 84 ° 0 min 0 W/m² -7,8 °C -10,0 °C 16,1 km/h (3 Bft)
02.02.2026 04:06 22,1 °C -5,4 °C 45 % 83 % 1010,7 hPa 0,0 l/m² 11,3 km/h (2 Bft) O-NO 73 ° 0 min 0 W/m² -7,8 °C -10,6 °C 17,7 km/h (3 Bft)
02.02.2026 04:07 22,1 °C -5,4 °C 45 % 83 % 1010,7 hPa 0,0 l/m² 9,5 km/h (2 Bft) O 86 ° 0 min 0 W/m² -7,8 °C -8,9 °C 14,5 km/h (3 Bft)
02.02.2026 04:08 22,1 °C -5,4 °C 45 % 83 % 1010,7 hPa 0,0 l/m² 10,2 km/h (2 Bft) O-NO 76 ° 0 min 0 W/m² -7,8 °C -9,6 °C 14,5 km/h (3 Bft)
02.02.2026 04:09 22,1 °C -5,4 °C 45 % 83 % 1010,7 hPa 0,0 l/m² 7,1 km/h (2 Bft) O-NO 60 ° 0 min 0 W/m² -7,8 °C -6,2 °C 11,3 km/h (2 Bft)
02.02.2026 04:11 22,1 °C -5,3 °C 45 % 83 % 1010,6 hPa 0,0 l/m² 9,9 km/h (2 Bft) O-NO 78 ° 0 min 0 W/m² -7,7 °C -9,2 °C 14,5 km/h (3 Bft)
02.02.2026 04:12 22,1 °C -5,4 °C 45 % 83 % 1010,7 hPa 0,0 l/m² 10,4 km/h (2 Bft) O 82 ° 0 min 0 W/m² -7,8 °C -9,8 °C 17,7 km/h (3 Bft)
02.02.2026 04:13 22,1 °C -5,4 °C 45 % 83 % 1010,7 hPa 0,0 l/m² 13,0 km/h (3 Bft) NO 41 ° 0 min 0 W/m² -7,8 °C -12,0 °C 14,5 km/h (3 Bft)
02.02.2026 04:15 22,1 °C -5,4 °C 45 % 83 % 1010,7 hPa 0,0 l/m² 12,1 km/h (2 Bft) O 92 ° 0 min 0 W/m² -7,8 °C -11,3 °C 17,7 km/h (3 Bft)
02.02.2026 04:16 22,1 °C -5,4 °C 45 % 83 % 1010,7 hPa 0,0 l/m² 14,9 km/h (3 Bft) O-NO 76 ° 0 min 0 W/m² -7,8 °C -13,5 °C 20,9 km/h (4 Bft)
02.02.2026 04:17 22,1 °C -5,4 °C 45 % 83 % 1010,6 hPa 0,0 l/m² 11,4 km/h (2 Bft) O-NO 71 ° 0 min 0 W/m² -7,8 °C -10,7 °C 16,1 km/h (3 Bft)
02.02.2026 04:18 22,1 °C -5,4 °C 45 % 83 % 1010,6 hPa 0,0 l/m² 13,4 km/h (3 Bft) O-SO 102 ° 0 min 0 W/m² -7,8 °C -12,3 °C 16,1 km/h (3 Bft)
02.02.2026 04:19 22,1 °C -5,4 °C 45 % 83 % 1010,6 hPa 0,0 l/m² 12,5 km/h (2 Bft) O 80 ° 0 min 0 W/m² -7,8 °C -11,6 °C 16,1 km/h (3 Bft)
02.02.2026 04:21 22,1 °C -5,4 °C 45 % 83 % 1010,7 hPa 0,0 l/m² 13,5 km/h (3 Bft) O 82 ° 0 min 0 W/m² -7,8 °C -12,4 °C 19,3 km/h (3 Bft)
02.02.2026 04:22 22,1 °C -5,4 °C 45 % 83 % 1010,7 hPa 0,0 l/m² 9,6 km/h (2 Bft) O-NO 74 ° 0 min 0 W/m² -7,8 °C -9,0 °C 14,5 km/h (3 Bft)
02.02.2026 04:23 22,1 °C -5,4 °C 45 % 83 % 1010,8 hPa 0,0 l/m² 16,8 km/h (3 Bft) O 83 ° 0 min 0 W/m² -7,8 °C -14,7 °C 20,9 km/h (4 Bft)
02.02.2026 04:25 22,1 °C -5,4 °C 45 % 83 % 1010,7 hPa 0,0 l/m² 13,4 km/h (3 Bft) O-NO 66 ° 0 min 0 W/m² -7,8 °C -12,3 °C 20,9 km/h (4 Bft)
02.02.2026 04:26 22,1 °C -5,4 °C 45 % 83 % 1010,7 hPa 0,0 l/m² 16,8 km/h (3 Bft) O-NO 74 ° 0 min 0 W/m² -7,8 °C -14,7 °C 20,9 km/h (4 Bft)
02.02.2026 04:27 22,1 °C -5,4 °C 45 % 83 % 1010,7 hPa 0,0 l/m² 8,0 km/h (2 Bft) O-NO 75 ° 0 min 0 W/m² -7,8 °C -7,3 °C 17,7 km/h (3 Bft)
02.02.2026 04:28 22,1 °C -5,4 °C 45 % 83 % 1010,7 hPa 0,0 l/m² 8,5 km/h (2 Bft) O 80 ° 0 min 0 W/m² -7,8 °C -7,9 °C 14,5 km/h (3 Bft)
02.02.2026 04:29 22,1 °C -5,3 °C 45 % 83 % 1010,7 hPa 0,0 l/m² 13,6 km/h (3 Bft) O-NO 77 ° 0 min 0 W/m² -7,7 °C -12,4 °C 19,3 km/h (3 Bft)
02.02.2026 04:31 22,1 °C -5,4 °C 45 % 83 % 1010,6 hPa 0,0 l/m² 15,3 km/h (3 Bft) O-NO 77 ° 0 min 0 W/m² -7,8 °C -13,7 °C 20,9 km/h (4 Bft)
02.02.2026 04:32 22,1 °C -5,4 °C 45 % 83 % 1010,7 hPa 0,0 l/m² 12,1 km/h (2 Bft) O 91 ° 0 min 0 W/m² -7,8 °C -11,3 °C 16,1 km/h (3 Bft)
02.02.2026 04:33 22,1 °C -5,4 °C 45 % 83 % 1010,7 hPa 0,0 l/m² 15,6 km/h (3 Bft) O-NO 59 ° 0 min 0 W/m² -7,8 °C -13,9 °C 19,3 km/h (3 Bft)
02.02.2026 04:35 22,1 °C -5,4 °C 45 % 83 % 1010,7 hPa 0,0 l/m² 14,0 km/h (3 Bft) O 94 ° 0 min 0 W/m² -7,8 °C -12,8 °C 19,3 km/h (3 Bft)
02.02.2026 04:36 22,1 °C -5,4 °C 45 % 83 % 1010,6 hPa 0,0 l/m² 12,5 km/h (2 Bft) O 86 ° 0 min 0 W/m² -7,8 °C -11,6 °C 17,7 km/h (3 Bft)
02.02.2026 04:37 22,1 °C -5,4 °C 45 % 83 % 1010,7 hPa 0,0 l/m² 15,9 km/h (3 Bft) O 86 ° 0 min 0 W/m² -7,8 °C -14,1 °C 20,9 km/h (4 Bft)
02.02.2026 04:38 22,1 °C -5,4 °C 45 % 83 % 1010,7 hPa 0,0 l/m² 18,6 km/h (3 Bft) O-NO 69 ° 0 min 0 W/m² -7,8 °C -15,8 °C 22,5 km/h (4 Bft)
02.02.2026 04:39 22,1 °C -5,4 °C 45 % 83 % 1010,6 hPa 0,0 l/m² 14,7 km/h (3 Bft) O 90 ° 0 min 0 W/m² -7,8 °C -13,3 °C 19,3 km/h (3 Bft)
02.02.2026 04:41 22,1 °C -5,4 °C 45 % 83 % 1010,6 hPa 0,0 l/m² 17,3 km/h (3 Bft) O-NO 78 ° 0 min 0 W/m² -7,8 °C -15,0 °C 24,1 km/h (4 Bft)
02.02.2026 04:42 22,1 °C -5,4 °C 45 % 83 % 1010,6 hPa 0,0 l/m² 17,6 km/h (3 Bft) O-NO 72 ° 0 min 0 W/m² -7,8 °C -15,2 °C 22,5 km/h (4 Bft)
02.02.2026 04:43 22,1 °C -5,4 °C 45 % 83 % 1010,6 hPa 0,0 l/m² 13,6 km/h (3 Bft) O 86 ° 0 min 0 W/m² -7,8 °C -12,5 °C 19,3 km/h (3 Bft)
02.02.2026 04:45 22,1 °C -5,4 °C 45 % 83 % 1010,6 hPa 0,0 l/m² 13,5 km/h (3 Bft) O-NO 76 ° 0 min 0 W/m² -7,8 °C -12,4 °C 17,7 km/h (3 Bft)
02.02.2026 04:46 22,1 °C -5,4 °C 45 % 83 % 1010,6 hPa 0,0 l/m² 16,1 km/h (3 Bft) O 80 ° 0 min 0 W/m² -7,8 °C -14,3 °C 17,7 km/h (3 Bft)
02.02.2026 04:47 22,1 °C -5,4 °C 45 % 83 % 1010,6 hPa 0,0 l/m² 15,0 km/h (3 Bft) O 82 ° 0 min 0 W/m² -7,8 °C -13,5 °C 19,3 km/h (3 Bft)
02.02.2026 04:48 22,1 °C -5,4 °C 45 % 83 % 1010,6 hPa 0,0 l/m² 8,5 km/h (2 Bft) O 86 ° 0 min 0 W/m² -7,8 °C -7,9 °C 12,9 km/h (3 Bft)
02.02.2026 04:49 22,1 °C -5,4 °C 45 % 83 % 1010,6 hPa 0,0 l/m² 14,4 km/h (3 Bft) O 88 ° 0 min 0 W/m² -7,8 °C -13,1 °C 17,7 km/h (3 Bft)
02.02.2026 04:51 22,0 °C -5,4 °C 45 % 83 % 1010,5 hPa 0,0 l/m² 12,4 km/h (2 Bft) O 80 ° 0 min 0 W/m² -7,8 °C -11,6 °C 17,7 km/h (3 Bft)
02.02.2026 04:52 22,1 °C -5,4 °C 45 % 83 % 1010,5 hPa 0,0 l/m² 12,5 km/h (2 Bft) O-NO 73 ° 0 min 0 W/m² -7,8 °C -11,6 °C 16,1 km/h (3 Bft)
02.02.2026 04:53 22,1 °C -5,4 °C 45 % 83 % 1010,5 hPa 0,0 l/m² 19,2 km/h (3 Bft) O-NO 66 ° 0 min 0 W/m² -7,8 °C -16,2 °C 22,5 km/h (4 Bft)
02.02.2026 04:55 22,1 °C -5,4 °C 45 % 83 % 1010,6 hPa 0,0 l/m² 14,4 km/h (3 Bft) O 88 ° 0 min 0 W/m² -7,8 °C -13,1 °C 19,3 km/h (3 Bft)
02.02.2026 04:56 22,1 °C -5,4 °C 45 % 83 % 1010,6 hPa 0,0 l/m² 12,9 km/h (3 Bft) O 81 ° 0 min 0 W/m² -7,8 °C -12,0 °C 17,7 km/h (3 Bft)
02.02.2026 04:57 22,1 °C -5,4 °C 45 % 83 % 1010,6 hPa 0,0 l/m² 8,6 km/h (2 Bft) NO 53 ° 0 min 0 W/m² -7,8 °C -8,0 °C 12,9 km/h (3 Bft)
02.02.2026 04:58 22,1 °C -5,4 °C 45 % 83 % 1010,7 hPa 0,0 l/m² 5,1 km/h (1 Bft) O 97 ° 0 min 0 W/m² -7,8 °C -5,4 °C 11,3 km/h (2 Bft)
02.02.2026 04:59 22,1 °C -5,4 °C 45 % 83 % 1010,6 hPa 0,0 l/m² 6,7 km/h (2 Bft) O 84 ° 0 min 0 W/m² -7,8 °C -5,7 °C 9,7 km/h (2 Bft)
02.02.2026 05:01 22,1 °C -5,4 °C 45 % 83 % 1010,6 hPa 0,0 l/m² 9,0 km/h (2 Bft) O-NO 70 ° 0 min 0 W/m² -7,8 °C -8,4 °C 19,3 km/h (3 Bft)
02.02.2026 05:02 22,1 °C -5,4 °C 45 % 83 % 1010,5 hPa 0,0 l/m² 11,9 km/h (2 Bft) O 90 ° 0 min 0 W/m² -7,8 °C -11,1 °C 16,1 km/h (3 Bft)
02.02.2026 05:03 22,1 °C -5,4 °C 45 % 83 % 1010,5 hPa 0,0 l/m² 11,9 km/h (2 Bft) O-NO 65 ° 0 min 0 W/m² -7,8 °C -11,1 °C 16,1 km/h (3 Bft)
02.02.2026 05:05 22,1 °C -5,4 °C 45 % 83 % 1010,5 hPa 0,0 l/m² 10,2 km/h (2 Bft) O 87 ° 0 min 0 W/m² -7,8 °C -9,6 °C 16,1 km/h (3 Bft)
02.02.2026 05:06 22,1 °C -5,4 °C 45 % 83 % 1010,6 hPa 0,0 l/m² 10,9 km/h (2 Bft) NO 54 ° 0 min 0 W/m² -7,8 °C -10,3 °C 16,1 km/h (3 Bft)
02.02.2026 05:08 22,1 °C -5,4 °C 45 % 83 % 1010,6 hPa 0,0 l/m² 11,9 km/h (2 Bft) O-NO 59 ° 0 min 0 W/m² -7,8 °C -11,1 °C 17,7 km/h (3 Bft)
02.02.2026 05:09 22,1 °C -5,4 °C 45 % 83 % 1010,6 hPa 0,0 l/m² 15,5 km/h (3 Bft) O 93 ° 0 min 0 W/m² -7,8 °C -13,9 °C 17,7 km/h (3 Bft)
02.02.2026 05:11 22,1 °C -5,4 °C 45 % 83 % 1010,5 hPa 0,0 l/m² 11,8 km/h (2 Bft) O 79 ° 0 min 0 W/m² -7,8 °C -11,1 °C 19,3 km/h (3 Bft)
02.02.2026 05:12 22,1 °C -5,4 °C 45 % 83 % 1010,5 hPa 0,0 l/m² 16,9 km/h (3 Bft) O 80 ° 0 min 0 W/m² -7,8 °C -14,8 °C 19,3 km/h (3 Bft)
02.02.2026 05:13 22,1 °C -5,4 °C 45 % 83 % 1010,5 hPa 0,0 l/m² 11,1 km/h (2 Bft) O 84 ° 0 min 0 W/m² -7,8 °C -10,4 °C 14,5 km/h (3 Bft)
02.02.2026 05:15 22,1 °C -5,4 °C 45 % 83 % 1010,5 hPa 0,0 l/m² 12,4 km/h (2 Bft) O 82 ° 0 min 0 W/m² -7,8 °C -11,6 °C 19,3 km/h (3 Bft)
02.02.2026 05:16 22,1 °C -5,4 °C 45 % 83 % 1010,5 hPa 0,0 l/m² 8,3 km/h (2 Bft) O 81 ° 0 min 0 W/m² -7,8 °C -7,7 °C 16,1 km/h (3 Bft)
02.02.2026 05:17 22,1 °C -5,4 °C 45 % 83 % 1010,5 hPa 0,0 l/m² 12,3 km/h (2 Bft) O 82 ° 0 min 0 W/m² -7,8 °C -11,5 °C 16,1 km/h (3 Bft)
02.02.2026 05:18 22,1 °C -5,4 °C 45 % 83 % 1010,5 hPa 0,0 l/m² 7,6 km/h (2 Bft) O-NO 75 ° 0 min 0 W/m² -7,8 °C -6,9 °C 12,9 km/h (3 Bft)
02.02.2026 05:19 22,1 °C -5,4 °C 45 % 83 % 1010,6 hPa 0,0 l/m² 7,9 km/h (2 Bft) O-NO 65 ° 0 min 0 W/m² -7,8 °C -7,2 °C 12,9 km/h (3 Bft)
02.02.2026 05:21 22,1 °C -5,4 °C 45 % 83 % 1010,6 hPa 0,0 l/m² 9,0 km/h (2 Bft) O-NO 62 ° 0 min 0 W/m² -7,8 °C -8,4 °C 16,1 km/h (3 Bft)
02.02.2026 05:22 22,1 °C -5,4 °C 45 % 83 % 1010,6 hPa 0,0 l/m² 11,1 km/h (2 Bft) O-NO 57 ° 0 min 0 W/m² -7,8 °C -10,4 °C 16,1 km/h (3 Bft)
02.02.2026 05:23 22,1 °C -5,4 °C 45 % 83 % 1010,6 hPa 0,0 l/m² 9,9 km/h (2 Bft) O-NO 58 ° 0 min 0 W/m² -7,8 °C -9,3 °C 14,5 km/h (3 Bft)
02.02.2026 05:25 22,1 °C -5,4 °C 45 % 83 % 1010,6 hPa 0,0 l/m² 9,4 km/h (2 Bft) O-NO 74 ° 0 min 0 W/m² -7,8 °C -8,8 °C 14,5 km/h (3 Bft)
02.02.2026 05:26 22,1 °C -5,4 °C 45 % 83 % 1010,6 hPa 0,0 l/m² 5,7 km/h (2 Bft) O-NO 69 ° 0 min 0 W/m² -7,8 °C -5,4 °C 8,0 km/h (2 Bft)
02.02.2026 05:27 22,1 °C -5,4 °C 45 % 83 % 1010,6 hPa 0,0 l/m² 4,6 km/h (1 Bft) O-NO 63 ° 0 min 0 W/m² -7,8 °C -5,4 °C 16,1 km/h (3 Bft)
02.02.2026 05:28 22,1 °C -5,4 °C 45 % 83 % 1010,5 hPa 0,0 l/m² 13,0 km/h (3 Bft) NO 54 ° 0 min 0 W/m² -7,8 °C -12,0 °C 17,7 km/h (3 Bft)
02.02.2026 05:29 22,1 °C -5,4 °C 45 % 83 % 1010,5 hPa 0,0 l/m² 10,8 km/h (2 Bft) O-NO 63 ° 0 min 0 W/m² -7,8 °C -10,2 °C 16,1 km/h (3 Bft)
02.02.2026 05:31 22,1 °C -5,4 °C 45 % 83 % 1010,5 hPa 0,0 l/m² 10,9 km/h (2 Bft) O 82 ° 0 min 0 W/m² -7,8 °C -10,3 °C 16,1 km/h (3 Bft)
02.02.2026 05:32 22,1 °C -5,4 °C 45 % 83 % 1010,5 hPa 0,0 l/m² 11,1 km/h (2 Bft) O 90 ° 0 min 0 W/m² -7,8 °C -10,4 °C 14,5 km/h (3 Bft)
02.02.2026 05:33 22,1 °C -5,4 °C 45 % 83 % 1010,5 hPa 0,0 l/m² 6,9 km/h (2 Bft) O 85 ° 0 min 0 W/m² -7,8 °C -6,0 °C 11,3 km/h (2 Bft)
02.02.2026 05:35 22,1 °C -5,4 °C 45 % 83 % 1010,5 hPa 0,0 l/m² 11,9 km/h (2 Bft) O-NO 58 ° 0 min 0 W/m² -7,8 °C -11,1 °C 19,3 km/h (3 Bft)
02.02.2026 05:36 22,1 °C -5,4 °C 45 % 83 % 1010,4 hPa 0,0 l/m² 16,7 km/h (3 Bft) O 82 ° 0 min 0 W/m² -7,8 °C -14,7 °C 19,3 km/h (3 Bft)
02.02.2026 05:37 22,1 °C -5,4 °C 45 % 83 % 1010,4 hPa 0,0 l/m² 11,8 km/h (2 Bft) O-NO 71 ° 0 min 0 W/m² -7,8 °C -11,1 °C 17,7 km/h (3 Bft)
02.02.2026 05:38 22,1 °C -5,4 °C 45 % 83 % 1010,3 hPa 0,0 l/m² 10,8 km/h (2 Bft) O-NO 61 ° 0 min 0 W/m² -7,8 °C -10,2 °C 14,5 km/h (3 Bft)
02.02.2026 05:39 22,1 °C -5,4 °C 45 % 83 % 1010,3 hPa 0,0 l/m² 14,1 km/h (3 Bft) O-NO 72 ° 0 min 0 W/m² -7,8 °C -12,9 °C 17,7 km/h (3 Bft)
02.02.2026 05:41 22,1 °C -5,4 °C 45 % 83 % 1010,4 hPa 0,0 l/m² 12,7 km/h (3 Bft) O-NO 67 ° 0 min 0 W/m² -7,8 °C -11,8 °C 17,7 km/h (3 Bft)
02.02.2026 05:42 22,1 °C -5,4 °C 45 % 83 % 1010,3 hPa 0,0 l/m² 14,3 km/h (3 Bft) O 83 ° 0 min 0 W/m² -7,8 °C -13,0 °C 19,3 km/h (3 Bft)
02.02.2026 05:43 22,1 °C -5,4 °C 45 % 83 % 1010,3 hPa 0,0 l/m² 15,9 km/h (3 Bft) O-NO 75 ° 0 min 0 W/m² -7,8 °C -14,1 °C 17,7 km/h (3 Bft)
02.02.2026 05:45 22,1 °C -5,4 °C 45 % 83 % 1010,2 hPa 0,0 l/m² 15,4 km/h (3 Bft) O-NO 69 ° 0 min 0 W/m² -7,8 °C -13,8 °C 20,9 km/h (4 Bft)
02.02.2026 05:46 22,1 °C -5,4 °C 45 % 83 % 1010,1 hPa 0,0 l/m² 16,0 km/h (3 Bft) O 86 ° 0 min 0 W/m² -7,8 °C -14,2 °C 17,7 km/h (3 Bft)
02.02.2026 05:47 22,1 °C -5,4 °C 45 % 83 % 1010,1 hPa 0,0 l/m² 12,6 km/h (3 Bft) O-NO 74 ° 0 min 0 W/m² -7,8 °C -11,7 °C 16,1 km/h (3 Bft)
02.02.2026 05:48 22,1 °C -5,4 °C 45 % 83 % 1010,1 hPa 0,0 l/m² 8,2 km/h (2 Bft) O-NO 71 ° 0 min 0 W/m² -7,8 °C -7,5 °C 12,9 km/h (3 Bft)
02.02.2026 05:49 22,1 °C -5,4 °C 45 % 83 % 1010,1 hPa 0,0 l/m² 12,1 km/h (2 Bft) O-NO 72 ° 0 min 0 W/m² -7,8 °C -11,3 °C 17,7 km/h (3 Bft)
02.02.2026 05:51 22,1 °C -5,4 °C 45 % 83 % 1010,2 hPa 0,0 l/m² 8,9 km/h (2 Bft) O-NO 77 ° 0 min 0 W/m² -7,8 °C -8,3 °C 17,7 km/h (3 Bft)
02.02.2026 05:52 22,1 °C -5,4 °C 45 % 83 % 1010,1 hPa 0,0 l/m² 13,2 km/h (3 Bft) O 83 ° 0 min 0 W/m² -7,8 °C -12,2 °C 14,5 km/h (3 Bft)
02.02.2026 05:53 22,1 °C -5,4 °C 45 % 83 % 1010,1 hPa 0,0 l/m² 12,9 km/h (3 Bft) O 84 ° 0 min 0 W/m² -7,8 °C -12,0 °C 16,1 km/h (3 Bft)
02.02.2026 05:55 22,1 °C -5,4 °C 45 % 83 % 1010,1 hPa 0,0 l/m² 9,7 km/h (2 Bft) O 98 ° 0 min 0 W/m² -7,8 °C -9,1 °C 17,7 km/h (3 Bft)
02.02.2026 05:56 22,1 °C -5,4 °C 45 % 84 % 1010,1 hPa 0,0 l/m² 6,3 km/h (2 Bft) NO 55 ° 0 min 0 W/m² -7,7 °C -5,4 °C 14,5 km/h (3 Bft)
02.02.2026 05:57 22,1 °C -5,4 °C 45 % 84 % 1010,1 hPa 0,0 l/m² 10,4 km/h (2 Bft) NO 53 ° 0 min 0 W/m² -7,7 °C -9,8 °C 17,7 km/h (3 Bft)
02.02.2026 05:58 22,1 °C -5,4 °C 45 % 84 % 1010,2 hPa 0,0 l/m² 11,8 km/h (2 Bft) O-NO 67 ° 0 min 0 W/m² -7,7 °C -11,1 °C 17,7 km/h (3 Bft)
02.02.2026 05:59 22,1 °C -5,4 °C 45 % 84 % 1010,2 hPa 0,0 l/m² 10,3 km/h (2 Bft) O-NO 69 ° 0 min 0 W/m² -7,7 °C -9,7 °C 14,5 km/h (3 Bft)
02.02.2026 06:01 22,1 °C -5,4 °C 45 % 84 % 1010,1 hPa 0,0 l/m² 10,9 km/h (2 Bft) O-NO 62 ° 0 min 0 W/m² -7,7 °C -10,3 °C 17,7 km/h (3 Bft)
02.02.2026 06:02 22,1 °C -5,4 °C 45 % 84 % 1010,1 hPa 0,0 l/m² 6,3 km/h (2 Bft) O 93 ° 0 min 0 W/m² -7,7 °C -5,4 °C 11,3 km/h (2 Bft)
02.02.2026 06:03 22,1 °C -5,4 °C 45 % 84 % 1010,1 hPa 0,0 l/m² 7,2 km/h (2 Bft) NO 54 ° 0 min 0 W/m² -7,7 °C -6,4 °C 9,7 km/h (2 Bft)
02.02.2026 06:05 22,1 °C -5,4 °C 45 % 84 % 1010,1 hPa 0,0 l/m² 9,2 km/h (2 Bft) O-NO 69 ° 0 min 0 W/m² -7,7 °C -8,6 °C 17,7 km/h (3 Bft)
02.02.2026 06:06 22,1 °C -5,4 °C 45 % 84 % 1010,1 hPa 0,0 l/m² 12,3 km/h (2 Bft) O-NO 59 ° 0 min 0 W/m² -7,7 °C -11,5 °C 17,7 km/h (3 Bft)
02.02.2026 06:07 22,1 °C -5,4 °C 45 % 84 % 1010,1 hPa 0,0 l/m² 7,8 km/h (2 Bft) O-NO 78 ° 0 min 0 W/m² -7,7 °C -7,1 °C 12,9 km/h (3 Bft)
02.02.2026 06:08 22,1 °C -5,4 °C 45 % 84 % 1010,1 hPa 0,0 l/m² 12,6 km/h (3 Bft) O-NO 75 ° 0 min 0 W/m² -7,7 °C -11,7 °C 16,1 km/h (3 Bft)
02.02.2026 06:09 22,1 °C -5,4 °C 45 % 84 % 1010,1 hPa 0,0 l/m² 5,7 km/h (2 Bft) O-NO 58 ° 0 min 0 W/m² -7,7 °C -5,4 °C 12,9 km/h (3 Bft)
02.02.2026 06:11 22,1 °C -5,4 °C 45 % 84 % 1010,1 hPa 0,0 l/m² 12,4 km/h (2 Bft) O-NO 72 ° 0 min 0 W/m² -7,7 °C -11,6 °C 20,9 km/h (4 Bft)
02.02.2026 06:12 22,1 °C -5,4 °C 45 % 83 % 1010,1 hPa 0,0 l/m² 10,5 km/h (2 Bft) NO 56 ° 0 min 0 W/m² -7,8 °C -9,9 °C 16,1 km/h (3 Bft)
02.02.2026 06:13 22,1 °C -5,4 °C 45 % 83 % 1010,1 hPa 0,0 l/m² 12,2 km/h (2 Bft) O 80 ° 0 min 0 W/m² -7,8 °C -11,4 °C 14,5 km/h (3 Bft)
02.02.2026 06:15 22,1 °C -5,4 °C 45 % 84 % 1010,1 hPa 0,0 l/m² 9,2 km/h (2 Bft) N-NO 29 ° 0 min 0 W/m² -7,7 °C -8,6 °C 14,5 km/h (3 Bft)
02.02.2026 06:16 22,1 °C -5,4 °C 45 % 84 % 1010,1 hPa 0,0 l/m² 8,6 km/h (2 Bft) O-NO 71 ° 0 min 0 W/m² -7,7 °C -8,0 °C 12,9 km/h (3 Bft)
02.02.2026 06:17 22,1 °C -5,4 °C 45 % 84 % 1010,1 hPa 0,0 l/m² 9,6 km/h (2 Bft) O 85 ° 0 min 0 W/m² -7,7 °C -9,0 °C 14,5 km/h (3 Bft)
02.02.2026 06:18 22,1 °C -5,4 °C 45 % 84 % 1010,1 hPa 0,0 l/m² 7,2 km/h (2 Bft) O 82 ° 0 min 0 W/m² -7,7 °C -6,4 °C 11,3 km/h (2 Bft)
02.02.2026 06:19 22,1 °C -5,4 °C 45 % 84 % 1010,1 hPa 0,0 l/m² 10,8 km/h (2 Bft) O-NO 59 ° 0 min 0 W/m² -7,7 °C -10,2 °C 14,5 km/h (3 Bft)
02.02.2026 06:21 22,1 °C -5,4 °C 45 % 84 % 1010,2 hPa 0,0 l/m² 9,3 km/h (2 Bft) O-NO 63 ° 0 min 0 W/m² -7,7 °C -8,7 °C 14,5 km/h (3 Bft)
02.02.2026 06:22 22,1 °C -5,4 °C 45 % 84 % 1010,2 hPa 0,0 l/m² 13,6 km/h (3 Bft) NO 50 ° 0 min 0 W/m² -7,7 °C -12,5 °C 19,3 km/h (3 Bft)
02.02.2026 06:23 22,1 °C -5,4 °C 45 % 84 % 1010,2 hPa 0,0 l/m² 12,9 km/h (3 Bft) O-NO 77 ° 0 min 0 W/m² -7,7 °C -12,0 °C 19,3 km/h (3 Bft)
02.02.2026 06:25 22,1 °C -5,4 °C 45 % 84 % 1010,2 hPa 0,0 l/m² 12,7 km/h (3 Bft) O-NO 71 ° 0 min 0 W/m² -7,7 °C -11,8 °C 17,7 km/h (3 Bft)
02.02.2026 06:26 22,1 °C -5,4 °C 45 % 83 % 1010,2 hPa 0,0 l/m² 13,6 km/h (3 Bft) O-NO 67 ° 0 min 0 W/m² -7,8 °C -12,5 °C 17,7 km/h (3 Bft)
02.02.2026 06:27 22,1 °C -5,4 °C 45 % 84 % 1010,2 hPa 0,0 l/m² 10,5 km/h (2 Bft) O-NO 61 ° 0 min 0 W/m² -7,7 °C -9,9 °C 12,9 km/h (3 Bft)
02.02.2026 06:28 22,1 °C -5,4 °C 45 % 84 % 1010,2 hPa 0,0 l/m² 8,5 km/h (2 Bft) O-NO 60 ° 0 min 0 W/m² -7,7 °C -7,9 °C 11,3 km/h (2 Bft)
02.02.2026 06:29 22,1 °C -5,4 °C 45 % 84 % 1010,2 hPa 0,0 l/m² 13,6 km/h (3 Bft) O-NO 76 ° 0 min 0 W/m² -7,7 °C -12,5 °C 17,7 km/h (3 Bft)
02.02.2026 06:31 22,1 °C -5,4 °C 45 % 84 % 1010,2 hPa 0,0 l/m² 12,1 km/h (2 Bft) O 84 ° 0 min 0 W/m² -7,7 °C -11,3 °C 19,3 km/h (3 Bft)
02.02.2026 06:32 22,1 °C -5,4 °C 45 % 83 % 1010,2 hPa 0,0 l/m² 13,8 km/h (3 Bft) O-NO 76 ° 0 min 0 W/m² -7,8 °C -12,7 °C 17,7 km/h (3 Bft)
02.02.2026 06:33 22,1 °C -5,4 °C 45 % 84 % 1010,2 hPa 0,0 l/m² 13,5 km/h (3 Bft) O-NO 74 ° 0 min 0 W/m² -7,7 °C -12,4 °C 16,1 km/h (3 Bft)
02.02.2026 06:35 22,1 °C -5,4 °C 45 % 84 % 1010,2 hPa 0,0 l/m² 7,6 km/h (2 Bft) O-NO 76 ° 0 min 0 W/m² -7,7 °C -6,9 °C 19,3 km/h (3 Bft)
02.02.2026 06:36 22,1 °C -5,4 °C 45 % 84 % 1010,2 hPa 0,0 l/m² 10,9 km/h (2 Bft) O-NO 57 ° 0 min 0 W/m² -7,7 °C -10,3 °C 19,3 km/h (3 Bft)
02.02.2026 06:37 22,1 °C -5,4 °C 45 % 84 % 1010,2 hPa 0,0 l/m² 8,4 km/h (2 Bft) O-NO 76 ° 0 min 0 W/m² -7,7 °C -7,8 °C 12,9 km/h (3 Bft)
02.02.2026 06:38 22,1 °C -5,4 °C 45 % 84 % 1010,2 hPa 0,0 l/m² 11,2 km/h (2 Bft) O 81 ° 0 min 0 W/m² -7,7 °C -10,5 °C 16,1 km/h (3 Bft)
02.02.2026 06:39 22,1 °C -5,4 °C 45 % 84 % 1010,2 hPa 0,0 l/m² 11,1 km/h (2 Bft) O-NO 61 ° 0 min 0 W/m² -7,7 °C -10,4 °C 16,1 km/h (3 Bft)
02.02.2026 06:41 22,1 °C -5,4 °C 45 % 84 % 1010,2 hPa 0,0 l/m² 15,0 km/h (3 Bft) O-NO 73 ° 0 min 0 W/m² -7,7 °C -13,5 °C 22,5 km/h (4 Bft)
02.02.2026 06:42 22,1 °C -5,4 °C 45 % 83 % 1010,2 hPa 0,0 l/m² 11,9 km/h (2 Bft) O 96 ° 0 min 0 W/m² -7,8 °C -11,1 °C 19,3 km/h (3 Bft)
02.02.2026 06:43 22,1 °C -5,4 °C 45 % 83 % 1010,2 hPa 0,0 l/m² 14,9 km/h (3 Bft) O-NO 72 ° 0 min 0 W/m² -7,8 °C -13,5 °C 17,7 km/h (3 Bft)
02.02.2026 06:45 22,1 °C -5,4 °C 45 % 83 % 1010,2 hPa 0,0 l/m² 11,7 km/h (2 Bft) O-NO 71 ° 0 min 0 W/m² -7,8 °C -11,0 °C 19,3 km/h (3 Bft)
02.02.2026 06:47 22,1 °C -5,4 °C 45 % 83 % 1010,2 hPa 0,0 l/m² 12,3 km/h (2 Bft) O-NO 61 ° 0 min 0 W/m² -7,8 °C -11,5 °C 19,3 km/h (3 Bft)
02.02.2026 06:48 22,1 °C -5,4 °C 45 % 83 % 1010,1 hPa 0,0 l/m² 13,6 km/h (3 Bft) O-NO 72 ° 0 min 0 W/m² -7,8 °C -12,5 °C 16,1 km/h (3 Bft)
02.02.2026 06:49 22,1 °C -5,4 °C 45 % 83 % 1010,2 hPa 0,0 l/m² 8,9 km/h (2 Bft) O 82 ° 0 min 0 W/m² -7,8 °C -8,3 °C 14,5 km/h (3 Bft)
02.02.2026 06:51 22,1 °C -5,4 °C 45 % 83 % 1010,1 hPa 0,0 l/m² 10,9 km/h (2 Bft) O-NO 76 ° 0 min 0 W/m² -7,8 °C -10,3 °C 16,1 km/h (3 Bft)
02.02.2026 06:52 22,1 °C -5,4 °C 45 % 83 % 1010,1 hPa 0,0 l/m² 10,6 km/h (2 Bft) O-NO 69 ° 0 min 0 W/m² -7,8 °C -10,0 °C 12,9 km/h (3 Bft)
02.02.2026 06:53 22,1 °C -5,4 °C 45 % 83 % 1010,1 hPa 0,0 l/m² 14,6 km/h (3 Bft) O 86 ° 0 min 0 W/m² -7,8 °C -13,2 °C 19,3 km/h (3 Bft)
02.02.2026 06:55 22,1 °C -5,4 °C 45 % 84 % 1010,2 hPa 0,0 l/m² 13,1 km/h (3 Bft) O 94 ° 0 min 0 W/m² -7,7 °C -12,1 °C 17,7 km/h (3 Bft)
02.02.2026 06:56 22,1 °C -5,4 °C 45 % 84 % 1010,2 hPa 0,0 l/m² 9,8 km/h (2 Bft) O-NO 61 ° 0 min 0 W/m² -7,7 °C -9,2 °C 16,1 km/h (3 Bft)
02.02.2026 06:57 22,1 °C -5,4 °C 45 % 84 % 1010,2 hPa 0,0 l/m² 11,1 km/h (2 Bft) O 99 ° 0 min 0 W/m² -7,7 °C -10,4 °C 14,5 km/h (3 Bft)
02.02.2026 06:58 22,1 °C -5,5 °C 45 % 84 % 1010,2 hPa 0,0 l/m² 15,8 km/h (3 Bft) O-NO 78 ° 0 min 0 W/m² -7,8 °C -14,2 °C 19,3 km/h (3 Bft)
02.02.2026 06:59 22,1 °C -5,5 °C 45 % 84 % 1010,2 hPa 0,0 l/m² 16,3 km/h (3 Bft) O-NO 74 ° 0 min 0 W/m² -7,8 °C -14,5 °C 20,9 km/h (4 Bft)
02.02.2026 07:01 22,1 °C -5,5 °C 45 % 84 % 1010,2 hPa 0,0 l/m² 11,8 km/h (2 Bft) O 86 ° 0 min 0 W/m² -7,8 °C -11,2 °C 19,3 km/h (3 Bft)
02.02.2026 07:02 22,1 °C -5,5 °C 45 % 84 % 1010,4 hPa 0,0 l/m² 5,7 km/h (2 Bft) O-NO 57 ° 0 min 0 W/m² -7,8 °C -5,5 °C 12,9 km/h (3 Bft)
02.02.2026 07:03 22,1 °C -5,4 °C 45 % 84 % 1010,4 hPa 0,0 l/m² 5,0 km/h (1 Bft) O-NO 67 ° 0 min 0 W/m² -7,7 °C -5,4 °C 8,0 km/h (2 Bft)
02.02.2026 07:05 22,1 °C -5,5 °C 45 % 84 % 1010,3 hPa 0,0 l/m² 3,4 km/h (1 Bft) O-NO 71 ° 0 min 0 W/m² -7,8 °C -5,5 °C 8,0 km/h (2 Bft)
02.02.2026 07:06 22,1 °C -5,5 °C 45 % 84 % 1010,3 hPa 0,0 l/m² 3,6 km/h (1 Bft) O 83 ° 0 min 0 W/m² -7,8 °C -5,5 °C 6,4 km/h (2 Bft)
02.02.2026 07:08 22,1 °C -5,5 °C 45 % 84 % 1010,3 hPa 0,0 l/m² 8,4 km/h (2 Bft) O-NO 65 ° 0 min 0 W/m² -7,8 °C -7,9 °C 12,9 km/h (3 Bft)
02.02.2026 07:09 22,1 °C -5,4 °C 45 % 84 % 1010,3 hPa 0,0 l/m² 8,9 km/h (2 Bft) O-NO 71 ° 0 min 0 W/m² -7,7 °C -8,3 °C 11,3 km/h (2 Bft)
02.02.2026 07:11 22,1 °C -5,4 °C 45 % 84 % 1010,3 hPa 0,0 l/m² 8,2 km/h (2 Bft) O-NO 70 ° 0 min 0 W/m² -7,7 °C -7,5 °C 14,5 km/h (3 Bft)
02.02.2026 07:12 22,1 °C -5,4 °C 45 % 84 % 1010,3 hPa 0,0 l/m² 11,2 km/h (2 Bft) O-NO 71 ° 0 min 0 W/m² -7,7 °C -10,5 °C 16,1 km/h (3 Bft)
02.02.2026 07:13 22,1 °C -5,5 °C 45 % 84 % 1010,3 hPa 0,0 l/m² 12,8 km/h (3 Bft) O 88 ° 0 min 0 W/m² -7,8 °C -12,0 °C 16,1 km/h (3 Bft)
02.02.2026 07:15 22,1 °C -5,5 °C 45 % 84 % 1010,3 hPa 0,0 l/m² 9,0 km/h (2 Bft) O 80 ° 0 min 0 W/m² -7,8 °C -8,5 °C 12,9 km/h (3 Bft)
02.02.2026 07:16 22,1 °C -5,5 °C 45 % 84 % 1010,3 hPa 0,0 l/m² 13,2 km/h (3 Bft) O 90 ° 0 min 0 W/m² -7,8 °C -12,3 °C 16,1 km/h (3 Bft)
02.02.2026 07:17 22,1 °C -5,5 °C 45 % 84 % 1010,3 hPa 0,0 l/m² 13,4 km/h (3 Bft) O-NO 78 ° 0 min 0 W/m² -7,8 °C -12,5 °C 16,1 km/h (3 Bft)
02.02.2026 07:18 22,1 °C -5,5 °C 45 % 84 % 1010,3 hPa 0,0 l/m² 9,7 km/h (2 Bft) O 80 ° 0 min 0 W/m² -7,8 °C -9,2 °C 14,5 km/h (3 Bft)
02.02.2026 07:19 22,1 °C -5,5 °C 45 % 84 % 1010,3 hPa 0,0 l/m² 7,7 km/h (2 Bft) O-NO 71 ° 0 min 0 W/m² -7,8 °C -7,1 °C 12,9 km/h (3 Bft)
02.02.2026 07:21 22,1 °C -5,5 °C 45 % 84 % 1010,3 hPa 0,0 l/m² 6,5 km/h (2 Bft) O-NO 68 ° 0 min 0 W/m² -7,8 °C -5,6 °C 11,3 km/h (2 Bft)
02.02.2026 07:22 22,1 °C -5,5 °C 45 % 84 % 1010,3 hPa 0,0 l/m² 4,9 km/h (1 Bft) O-NO 65 ° 0 min 0 W/m² -7,8 °C -5,5 °C 6,4 km/h (2 Bft)
02.02.2026 07:23 22,1 °C -5,4 °C 45 % 84 % 1010,3 hPa 0,0 l/m² 8,8 km/h (2 Bft) O 80 ° 0 min 0 W/m² -7,7 °C -8,2 °C 12,9 km/h (3 Bft)
02.02.2026 07:25 22,1 °C -5,5 °C 45 % 84 % 1010,3 hPa 0,0 l/m² 10,4 km/h (2 Bft) O 80 ° 0 min 0 W/m² -7,8 °C -9,9 °C 14,5 km/h (3 Bft)
02.02.2026 07:26 22,1 °C -5,4 °C 45 % 84 % 1010,3 hPa 0,0 l/m² 8,2 km/h (2 Bft) O 94 ° 0 min 0 W/m² -7,7 °C -7,5 °C 11,3 km/h (2 Bft)
02.02.2026 07:27 22,1 °C -5,5 °C 45 % 84 % 1010,2 hPa 0,0 l/m² 8,5 km/h (2 Bft) O 92 ° 0 min 0 W/m² -7,8 °C -8,0 °C 16,1 km/h (3 Bft)
02.02.2026 07:28 22,1 °C -5,4 °C 45 % 84 % 1010,3 hPa 0,0 l/m² 8,1 km/h (2 Bft) O-NO 76 ° 0 min 0 W/m² -7,7 °C -7,4 °C 11,3 km/h (2 Bft)
02.02.2026 07:29 22,1 °C -5,5 °C 45 % 84 % 1010,3 hPa 0,0 l/m² 6,2 km/h (2 Bft) O 89 ° 0 min 0 W/m² -7,8 °C -5,5 °C 11,3 km/h (2 Bft)
02.02.2026 07:31 22,1 °C -5,5 °C 45 % 84 % 1010,4 hPa 0,0 l/m² 8,5 km/h (2 Bft) O-NO 66 ° 0 min 0 W/m² -7,8 °C -8,0 °C 12,9 km/h (3 Bft)
02.02.2026 07:32 22,1 °C -5,5 °C 45 % 84 % 1010,4 hPa 0,0 l/m² 14,3 km/h (3 Bft) O 87 ° 0 min 0 W/m² -7,8 °C -13,1 °C 17,7 km/h (3 Bft)
02.02.2026 07:33 22,1 °C -5,5 °C 45 % 84 % 1010,4 hPa 0,0 l/m² 14,6 km/h (3 Bft) O 88 ° 0 min 0 W/m² -7,8 °C -13,4 °C 19,3 km/h (3 Bft)
02.02.2026 07:35 22,1 °C -5,5 °C 45 % 84 % 1010,4 hPa 0,0 l/m² 8,3 km/h (2 Bft) O-NO 66 ° 0 min 0 W/m² -7,8 °C -7,8 °C 14,5 km/h (3 Bft)
02.02.2026 07:36 22,1 °C -5,5 °C 45 % 84 % 1010,3 hPa 0,0 l/m² 11,7 km/h (2 Bft) O-NO 70 ° 0 min 0 W/m² -7,8 °C -11,1 °C 16,1 km/h (3 Bft)
02.02.2026 07:37 22,1 °C -5,5 °C 45 % 84 % 1010,3 hPa 0,0 l/m² 11,3 km/h (2 Bft) O-NO 59 ° 0 min 0 W/m² -7,8 °C -10,7 °C 16,1 km/h (3 Bft)
02.02.2026 07:38 22,1 °C -5,5 °C 45 % 84 % 1010,3 hPa 0,0 l/m² 8,9 km/h (2 Bft) O-NO 77 ° 0 min 0 W/m² -7,8 °C -8,4 °C 12,9 km/h (3 Bft)
02.02.2026 07:39 22,0 °C -5,5 °C 45 % 84 % 1010,4 hPa 0,0 l/m² 10,8 km/h (2 Bft) O-NO 74 ° 0 min 0 W/m² -7,8 °C -10,3 °C 12,9 km/h (3 Bft)
02.02.2026 07:41 22,0 °C -5,5 °C 45 % 84 % 1010,4 hPa 0,0 l/m² 6,5 km/h (2 Bft) O-NO 76 ° 0 min 0 W/m² -7,8 °C -5,6 °C 11,3 km/h (2 Bft)
02.02.2026 07:42 22,1 °C -5,5 °C 45 % 84 % 1010,4 hPa 0,0 l/m² 11,1 km/h (2 Bft) O-NO 71 ° 0 min 0 W/m² -7,8 °C -10,6 °C 12,9 km/h (3 Bft)
02.02.2026 07:43 22,1 °C -5,5 °C 45 % 84 % 1010,4 hPa 0,0 l/m² 10,3 km/h (2 Bft) O-NO 78 ° 0 min 0 W/m² -7,8 °C -9,8 °C 14,5 km/h (3 Bft)
02.02.2026 07:45 22,0 °C -5,5 °C 45 % 84 % 1010,5 hPa 0,0 l/m² 12,4 km/h (2 Bft) O-NO 71 ° 0 min 0 W/m² -7,8 °C -11,7 °C 16,1 km/h (3 Bft)
02.02.2026 07:46 22,1 °C -5,5 °C 45 % 84 % 1010,5 hPa 0,0 l/m² 11,9 km/h (2 Bft) O-NO 63 ° 0 min 0 W/m² -7,8 °C -11,3 °C 16,1 km/h (3 Bft)
02.02.2026 07:47 22,1 °C -5,5 °C 45 % 84 % 1010,5 hPa 0,0 l/m² 7,4 km/h (2 Bft) O-NO 60 ° 0 min 0 W/m² -7,8 °C -6,7 °C 9,7 km/h (2 Bft)
02.02.2026 07:48 22,1 °C -5,5 °C 45 % 84 % 1010,5 hPa 0,0 l/m² 10,7 km/h (2 Bft) O 81 ° 0 min 0 W/m² -7,8 °C -10,2 °C 14,5 km/h (3 Bft)
02.02.2026 07:49 22,1 °C -5,5 °C 45 % 84 % 1010,5 hPa 0,0 l/m² 8,7 km/h (2 Bft) O-NO 74 ° 0 min 0 W/m² -7,8 °C -8,2 °C 14,5 km/h (3 Bft)
02.02.2026 07:51 22,1 °C -5,5 °C 45 % 84 % 1010,5 hPa 0,0 l/m² 10,1 km/h (2 Bft) O-NO 69 ° 0 min 0 W/m² -7,8 °C -9,6 °C 17,7 km/h (3 Bft)
02.02.2026 07:52 22,0 °C -5,5 °C 45 % 84 % 1010,4 hPa 0,0 l/m² 7,3 km/h (2 Bft) O 84 ° 0 min 0 W/m² -7,8 °C -6,6 °C 11,3 km/h (2 Bft)
02.02.2026 07:53 22,0 °C -5,6 °C 45 % 84 % 1010,4 hPa 0,0 l/m² 6,4 km/h (2 Bft) O-NO 69 ° 0 min 0 W/m² -7,9 °C -5,5 °C 11,3 km/h (2 Bft)
02.02.2026 07:55 22,1 °C -5,6 °C 45 % 84 % 1010,4 hPa 0,0 l/m² 7,3 km/h (2 Bft) O-NO 59 ° 0 min 0 W/m² -7,9 °C -6,7 °C 14,5 km/h (3 Bft)
02.02.2026 07:56 22,0 °C -5,5 °C 45 % 84 % 1010,5 hPa 0,0 l/m² 4,8 km/h (1 Bft) O-NO 57 ° 0 min 0 W/m² -7,8 °C -5,5 °C 6,4 km/h (2 Bft)
02.02.2026 07:57 22,1 °C -5,5 °C 45 % 84 % 1010,5 hPa 0,0 l/m² 8,6 km/h (2 Bft) NO 42 ° 0 min 0 W/m² -7,8 °C -8,1 °C 14,5 km/h (3 Bft)
02.02.2026 07:58 22,0 °C -5,5 °C 45 % 84 % 1010,5 hPa 0,0 l/m² 9,1 km/h (2 Bft) O-NO 65 ° 0 min 0 W/m² -7,8 °C -8,6 °C 12,9 km/h (3 Bft)
02.02.2026 07:59 22,1 °C -5,5 °C 45 % 84 % 1010,5 hPa 0,0 l/m² 7,7 km/h (2 Bft) O 79 ° 0 min 0 W/m² -7,8 °C -7,1 °C 11,3 km/h (2 Bft)
02.02.2026 08:01 22,1 °C -5,5 °C 45 % 84 % 1010,5 hPa 0,0 l/m² 11,6 km/h (2 Bft) O-NO 65 ° 0 min 0 W/m² -7,8 °C -11,0 °C 16,1 km/h (3 Bft)
02.02.2026 08:02 22,0 °C -5,6 °C 45 % 84 % 1010,5 hPa 0,0 l/m² 8,5 km/h (2 Bft) O 91 ° 0 min 5 W/m² -7,9 °C -8,1 °C 12,9 km/h (3 Bft)
02.02.2026 08:03 22,0 °C -5,6 °C 45 % 84 % 1010,5 hPa 0,0 l/m² 9,5 km/h (2 Bft) NO 54 ° 0 min 5 W/m² -7,9 °C -9,1 °C 12,9 km/h (3 Bft)
02.02.2026 08:05 22,1 °C -5,6 °C 45 % 84 % 1010,4 hPa 0,0 l/m² 12,7 km/h (3 Bft) O-NO 70 ° 0 min 5 W/m² -7,9 °C -12,0 °C 16,1 km/h (3 Bft)
02.02.2026 08:06 22,0 °C -5,6 °C 45 % 84 % 1010,5 hPa 0,0 l/m² 12,4 km/h (2 Bft) O-NO 64 ° 0 min 5 W/m² -7,9 °C -11,8 °C 17,7 km/h (3 Bft)
02.02.2026 08:07 22,0 °C -5,5 °C 45 % 84 % 1010,4 hPa 0,0 l/m² 9,2 km/h (2 Bft) O-NO 64 ° 0 min 5 W/m² -7,8 °C -8,7 °C 12,9 km/h (3 Bft)
02.02.2026 08:08 22,1 °C -5,5 °C 45 % 84 % 1010,5 hPa 0,0 l/m² 7,4 km/h (2 Bft) NO 50 ° 0 min 7 W/m² -7,8 °C -6,7 °C 11,3 km/h (2 Bft)
02.02.2026 08:09 22,0 °C -5,6 °C 45 % 84 % 1010,6 hPa 0,0 l/m² 8,6 km/h (2 Bft) NO 49 ° 0 min 7 W/m² -7,9 °C -8,2 °C 14,5 km/h (3 Bft)
02.02.2026 08:11 22,0 °C -5,6 °C 45 % 84 % 1010,6 hPa 0,0 l/m² 10,4 km/h (2 Bft) O-NO 74 ° 0 min 7 W/m² -7,9 °C -10,0 °C 16,1 km/h (3 Bft)
02.02.2026 08:12 22,0 °C -5,5 °C 45 % 84 % 1010,6 hPa 0,0 l/m² 15,3 km/h (3 Bft) O-NO 58 ° 0 min 7 W/m² -7,8 °C -13,9 °C 22,5 km/h (4 Bft)
02.02.2026 08:13 22,0 °C -5,6 °C 45 % 84 % 1010,6 hPa 0,0 l/m² 10,0 km/h (2 Bft) O-NO 74 ° 0 min 7 W/m² -7,9 °C -9,6 °C 16,1 km/h (3 Bft)
02.02.2026 08:15 22,1 °C -5,5 °C 45 % 84 % 1010,6 hPa 0,0 l/m² 10,3 km/h (2 Bft) O 84 ° 0 min 9 W/m² -7,8 °C -9,8 °C 19,3 km/h (3 Bft)
02.02.2026 08:16 22,0 °C -5,6 °C 45 % 84 % 1010,6 hPa 0,0 l/m² 11,5 km/h (2 Bft) O-NO 78 ° 0 min 9 W/m² -7,9 °C -11,0 °C 16,1 km/h (3 Bft)
02.02.2026 08:17 22,1 °C -5,5 °C 45 % 84 % 1010,7 hPa 0,0 l/m² 14,2 km/h (3 Bft) NO 55 ° 0 min 9 W/m² -7,8 °C -13,1 °C 19,3 km/h (3 Bft)
02.02.2026 08:18 22,0 °C -5,5 °C 45 % 84 % 1010,6 hPa 0,0 l/m² 14,8 km/h (3 Bft) O-NO 72 ° 0 min 9 W/m² -7,8 °C -13,5 °C 19,3 km/h (3 Bft)
02.02.2026 08:19 22,1 °C -5,6 °C 45 % 84 % 1010,6 hPa 0,0 l/m² 13,2 km/h (3 Bft) NO 46 ° 0 min 9 W/m² -7,9 °C -12,4 °C 19,3 km/h (3 Bft)
02.02.2026 08:21 22,1 °C -5,5 °C 45 % 84 % 1010,7 hPa 0,0 l/m² 11,4 km/h (2 Bft) O-NO 78 ° 0 min 11 W/m² -7,8 °C -10,8 °C 19,3 km/h (3 Bft)
02.02.2026 08:22 22,1 °C -5,6 °C 45 % 83 % 1010,6 hPa 0,0 l/m² 14,8 km/h (3 Bft) O 80 ° 0 min 11 W/m² -8,0 °C -13,6 °C 17,7 km/h (3 Bft)
02.02.2026 08:23 22,1 °C -5,6 °C 45 % 84 % 1010,6 hPa 0,0 l/m² 9,9 km/h (2 Bft) O-NO 75 ° 0 min 11 W/m² -7,9 °C -9,5 °C 17,7 km/h (3 Bft)
02.02.2026 08:25 22,0 °C -5,6 °C 45 % 83 % 1010,6 hPa 0,0 l/m² 7,3 km/h (2 Bft) O-NO 77 ° 0 min 12 W/m² -8,0 °C -6,7 °C 14,5 km/h (3 Bft)
02.02.2026 08:26 22,1 °C -5,6 °C 45 % 83 % 1010,6 hPa 0,0 l/m² 15,7 km/h (3 Bft) O 80 ° 0 min 12 W/m² -8,0 °C -14,3 °C 19,3 km/h (3 Bft)
02.02.2026 08:27 22,0 °C -5,6 °C 45 % 83 % 1010,6 hPa 0,0 l/m² 9,9 km/h (2 Bft) O-NO 78 ° 0 min 12 W/m² -8,0 °C -9,5 °C 12,9 km/h (3 Bft)
02.02.2026 08:28 22,1 °C -5,6 °C 45 % 83 % 1010,6 hPa 0,0 l/m² 10,6 km/h (2 Bft) O 82 ° 0 min 12 W/m² -8,0 °C -10,2 °C 17,7 km/h (3 Bft)
02.02.2026 08:29 22,1 °C -5,6 °C 45 % 83 % 1010,5 hPa 0,0 l/m² 10,4 km/h (2 Bft) O-NO 73 ° 0 min 14 W/m² -8,0 °C -10,0 °C 16,1 km/h (3 Bft)
02.02.2026 08:31 22,0 °C -5,6 °C 45 % 83 % 1010,6 hPa 0,0 l/m² 9,3 km/h (2 Bft) NO 51 ° 0 min 14 W/m² -8,0 °C -8,9 °C 17,7 km/h (3 Bft)
02.02.2026 08:32 22,0 °C -5,6 °C 45 % 83 % 1010,6 hPa 0,0 l/m² 9,4 km/h (2 Bft) O-NO 78 ° 0 min 14 W/m² -8,0 °C -9,0 °C 12,9 km/h (3 Bft)
02.02.2026 08:33 22,0 °C -5,6 °C 45 % 83 % 1010,6 hPa 0,0 l/m² 12,1 km/h (2 Bft) O 85 ° 0 min 16 W/m² -8,0 °C -11,5 °C 16,1 km/h (3 Bft)
02.02.2026 08:35 22,1 °C -5,6 °C 45 % 83 % 1010,5 hPa 0,0 l/m² 13,9 km/h (3 Bft) O-NO 69 ° 0 min 16 W/m² -8,0 °C -13,0 °C 19,3 km/h (3 Bft)
02.02.2026 08:36 22,1 °C -5,6 °C 45 % 83 % 1010,6 hPa 0,0 l/m² 9,8 km/h (2 Bft) O-NO 71 ° 0 min 16 W/m² -8,0 °C -9,4 °C 14,5 km/h (3 Bft)
02.02.2026 08:37 22,1 °C -5,6 °C 45 % 83 % 1010,6 hPa 0,0 l/m² 11,4 km/h (2 Bft) NO 47 ° 0 min 18 W/m² -8,0 °C -10,9 °C 16,1 km/h (3 Bft)
02.02.2026 08:38 22,1 °C -5,6 °C 45 % 83 % 1010,6 hPa 0,0 l/m² 9,1 km/h (2 Bft) O 90 ° 0 min 18 W/m² -8,0 °C -8,7 °C 14,5 km/h (3 Bft)
02.02.2026 08:39 22,1 °C -5,6 °C 45 % 83 % 1010,6 hPa 0,0 l/m² 10,0 km/h (2 Bft) O 84 ° 0 min 18 W/m² -8,0 °C -9,6 °C 14,5 km/h (3 Bft)
02.02.2026 08:41 22,1 °C -5,6 °C 45 % 83 % 1010,6 hPa 0,0 l/m² 8,9 km/h (2 Bft) O 84 ° 0 min 19 W/m² -8,0 °C -8,5 °C 14,5 km/h (3 Bft)
02.02.2026 08:42 22,1 °C -5,6 °C 45 % 83 % 1010,6 hPa 0,0 l/m² 13,7 km/h (3 Bft) NO 49 ° 0 min 21 W/m² -8,0 °C -12,8 °C 19,3 km/h (3 Bft)
02.02.2026 08:43 22,1 °C -5,6 °C 45 % 83 % 1010,6 hPa 0,0 l/m² 9,2 km/h (2 Bft) NO 40 ° 0 min 21 W/m² -8,0 °C -8,8 °C 16,1 km/h (3 Bft)
02.02.2026 08:45 22,1 °C -5,6 °C 45 % 83 % 1010,6 hPa 0,0 l/m² 14,3 km/h (3 Bft) O 85 ° 0 min 21 W/m² -8,0 °C -13,3 °C 19,3 km/h (3 Bft)
02.02.2026 08:46 22,1 °C -5,6 °C 45 % 83 % 1010,6 hPa 0,0 l/m² 14,3 km/h (3 Bft) O 81 ° 0 min 23 W/m² -8,0 °C -13,3 °C 17,7 km/h (3 Bft)
02.02.2026 08:47 22,1 °C -5,6 °C 45 % 83 % 1010,6 hPa 0,0 l/m² 15,4 km/h (3 Bft) O-NO 64 ° 0 min 23 W/m² -8,0 °C -14,0 °C 19,3 km/h (3 Bft)
02.02.2026 08:48 22,1 °C -5,6 °C 45 % 82 % 1010,6 hPa 0,0 l/m² 13,3 km/h (3 Bft) O 90 ° 0 min 23 W/m² -8,2 °C -12,5 °C 16,1 km/h (3 Bft)
02.02.2026 08:49 22,1 °C -5,6 °C 45 % 82 % 1010,6 hPa 0,0 l/m² 10,4 km/h (2 Bft) O-NO 70 ° 0 min 25 W/m² -8,2 °C -10,0 °C 12,9 km/h (3 Bft)
02.02.2026 08:51 22,1 °C -5,6 °C 44 % 83 % 1010,6 hPa 0,0 l/m² 11,6 km/h (2 Bft) NO 54 ° 0 min 26 W/m² -8,0 °C -11,1 °C 24,1 km/h (4 Bft)
02.02.2026 08:52 22,1 °C -5,6 °C 45 % 83 % 1010,6 hPa 0,0 l/m² 15,0 km/h (3 Bft) O 80 ° 0 min 26 W/m² -8,0 °C -13,8 °C 19,3 km/h (3 Bft)
02.02.2026 08:53 22,1 °C -5,7 °C 45 % 82 % 1010,6 hPa 0,0 l/m² 18,2 km/h (3 Bft) O 80 ° 0 min 26 W/m² -8,3 °C -16,0 °C 20,9 km/h (4 Bft)
02.02.2026 08:55 22,1 °C -5,7 °C 44 % 83 % 1010,6 hPa 0,0 l/m² 11,7 km/h (2 Bft) O-NO 72 ° 0 min 28 W/m² -8,1 °C -11,3 °C 17,7 km/h (3 Bft)
02.02.2026 08:56 22,1 °C -5,7 °C 45 % 83 % 1010,6 hPa 0,0 l/m² 14,9 km/h (3 Bft) NO 46 ° 0 min 28 W/m² -8,1 °C -13,8 °C 17,7 km/h (3 Bft)
02.02.2026 08:57 22,1 °C -5,7 °C 45 % 83 % 1010,6 hPa 0,0 l/m² 16,6 km/h (3 Bft) NO 53 ° 0 min 30 W/m² -8,1 °C -15,0 °C 22,5 km/h (4 Bft)
02.02.2026 08:58 22,1 °C -5,7 °C 44 % 82 % 1010,6 hPa 0,0 l/m² 11,1 km/h (2 Bft) O 90 ° 0 min 30 W/m² -8,3 °C -10,8 °C 16,1 km/h (3 Bft)
02.02.2026 08:59 22,1 °C -5,6 °C 45 % 82 % 1010,6 hPa 0,0 l/m² 9,8 km/h (2 Bft) NO 41 ° 0 min 30 W/m² -8,2 °C -9,4 °C 14,5 km/h (3 Bft)
02.02.2026 09:01 22,1 °C -5,7 °C 45 % 82 % 1010,7 hPa 0,0 l/m² 12,0 km/h (2 Bft) O-NO 74 ° 0 min 32 W/m² -8,3 °C -11,6 °C 19,3 km/h (3 Bft)
02.02.2026 09:02 22,1 °C -5,7 °C 45 % 82 % 1010,7 hPa 0,0 l/m² 9,6 km/h (2 Bft) O-NO 61 ° 0 min 32 W/m² -8,3 °C -9,3 °C 14,5 km/h (3 Bft)
02.02.2026 09:03 22,1 °C -5,7 °C 45 % 82 % 1010,7 hPa 0,0 l/m² 13,3 km/h (3 Bft) O-NO 71 ° 0 min 32 W/m² -8,3 °C -12,6 °C 16,1 km/h (3 Bft)
02.02.2026 09:05 22,1 °C -5,7 °C 44 % 82 % 1010,7 hPa 0,0 l/m² 10,0 km/h (2 Bft) O-NO 76 ° 0 min 32 W/m² -8,3 °C -9,7 °C 17,7 km/h (3 Bft)
02.02.2026 09:06 22,1 °C -5,7 °C 44 % 82 % 1010,8 hPa 0,0 l/m² 7,0 km/h (2 Bft) O-NO 65 ° 0 min 33 W/m² -8,3 °C -6,4 °C 12,9 km/h (3 Bft)
02.02.2026 09:08 22,1 °C -5,7 °C 44 % 82 % 1010,8 hPa 0,0 l/m² 11,8 km/h (2 Bft) O-NO 61 ° 0 min 33 W/m² -8,3 °C -11,4 °C 17,7 km/h (3 Bft)
02.02.2026 09:09 22,1 °C -5,6 °C 44 % 82 % 1010,8 hPa 0,0 l/m² 11,1 km/h (2 Bft) O-NO 77 ° 0 min 35 W/m² -8,2 °C -10,7 °C 14,5 km/h (3 Bft)
02.02.2026 09:11 22,1 °C -5,6 °C 45 % 82 % 1010,8 hPa 0,0 l/m² 14,4 km/h (3 Bft) O 86 ° 0 min 35 W/m² -8,2 °C -13,3 °C 20,9 km/h (4 Bft)
02.02.2026 09:12 22,1 °C -5,6 °C 44 % 82 % 1010,7 hPa 0,0 l/m² 14,1 km/h (3 Bft) O 84 ° 0 min 35 W/m² -8,2 °C -13,1 °C 17,7 km/h (3 Bft)
02.02.2026 09:13 22,1 °C -5,7 °C 44 % 82 % 1010,7 hPa 0,0 l/m² 11,5 km/h (2 Bft) O-NO 76 ° 0 min 37 W/m² -8,3 °C -11,1 °C 14,5 km/h (3 Bft)
02.02.2026 09:15 22,1 °C -5,7 °C 44 % 82 % 1010,8 hPa 0,0 l/m² 13,0 km/h (3 Bft) O-NO 77 ° 0 min 37 W/m² -8,3 °C -12,4 °C 17,7 km/h (3 Bft)
02.02.2026 09:16 22,1 °C -5,7 °C 44 % 82 % 1010,8 hPa 0,0 l/m² 11,5 km/h (2 Bft) O 84 ° 0 min 37 W/m² -8,3 °C -11,1 °C 14,5 km/h (3 Bft)
02.02.2026 09:17 22,1 °C -5,7 °C 44 % 82 % 1010,8 hPa 0,0 l/m² 11,5 km/h (2 Bft) O 82 ° 0 min 39 W/m² -8,3 °C -11,1 °C 14,5 km/h (3 Bft)
02.02.2026 09:18 22,1 °C -5,7 °C 44 % 82 % 1010,8 hPa 0,0 l/m² 6,9 km/h (2 Bft) NO 52 ° 0 min 39 W/m² -8,3 °C -6,3 °C 12,9 km/h (3 Bft)
02.02.2026 09:19 22,1 °C -5,7 °C 44 % 82 % 1010,8 hPa 0,0 l/m² 10,5 km/h (2 Bft) O-NO 76 ° 0 min 39 W/m² -8,3 °C -10,2 °C 12,9 km/h (3 Bft)
02.02.2026 09:21 22,1 °C -5,7 °C 44 % 82 % 1010,8 hPa 0,0 l/m² 12,1 km/h (2 Bft) O-NO 72 ° 0 min 40 W/m² -8,3 °C -11,6 °C 17,7 km/h (3 Bft)
02.02.2026 09:22 22,1 °C -5,7 °C 44 % 82 % 1010,8 hPa 0,0 l/m² 6,5 km/h (2 Bft) O 80 ° 0 min 40 W/m² -8,3 °C -5,8 °C 9,7 km/h (2 Bft)
02.02.2026 09:23 22,1 °C -5,7 °C 44 % 82 % 1010,8 hPa 0,0 l/m² 11,5 km/h (2 Bft) O 82 ° 0 min 40 W/m² -8,3 °C -11,1 °C 16,1 km/h (3 Bft)
02.02.2026 09:24 22,1 °C -5,7 °C 44 % 82 % 1010,7 hPa 0,0 l/m² 13,2 km/h (3 Bft) O-NO 65 ° 0 min 42 W/m² -8,3 °C -12,5 °C 16,1 km/h (3 Bft)
02.02.2026 09:25 22,1 °C -5,7 °C 44 % 82 % 1010,7 hPa 0,0 l/m² 12,5 km/h (2 Bft) O-NO 71 ° 0 min 42 W/m² -8,3 °C -12,0 °C 17,7 km/h (3 Bft)
02.02.2026 09:26 22,1 °C -5,7 °C 44 % 82 % 1010,7 hPa 0,0 l/m² 12,1 km/h (2 Bft) NO 52 ° 0 min 42 W/m² -8,3 °C -11,6 °C 19,3 km/h (3 Bft)
02.02.2026 09:27 22,1 °C -5,7 °C 44 % 82 % 1010,7 hPa 0,0 l/m² 12,1 km/h (2 Bft) O-NO 69 ° 0 min 42 W/m² -8,3 °C -11,6 °C 16,1 km/h (3 Bft)
02.02.2026 09:28 22,1 °C -5,7 °C 44 % 82 % 1010,7 hPa 0,0 l/m² 12,2 km/h (2 Bft) NO 53 ° 0 min 42 W/m² -8,3 °C -11,7 °C 14,5 km/h (3 Bft)
02.02.2026 09:29 22,1 °C -5,6 °C 44 % 82 % 1010,7 hPa 0,0 l/m² 13,1 km/h (3 Bft) NO 54 ° 0 min 42 W/m² -8,2 °C -12,3 °C 16,1 km/h (3 Bft)
02.02.2026 09:31 22,1 °C -5,6 °C 44 % 82 % 1010,7 hPa 0,0 l/m² 10,5 km/h (2 Bft) O 82 ° 0 min 44 W/m² -8,2 °C -10,1 °C 14,5 km/h (3 Bft)
02.02.2026 09:33 22,1 °C -5,7 °C 44 % 82 % 1010,7 hPa 0,0 l/m² 11,8 km/h (2 Bft) O-NO 75 ° 0 min 46 W/m² -8,3 °C -11,4 °C 17,7 km/h (3 Bft)
02.02.2026 09:34 22,1 °C -5,6 °C 44 % 82 % 1010,7 hPa 0,0 l/m² 11,9 km/h (2 Bft) O-NO 61 ° 0 min 46 W/m² -8,2 °C -11,4 °C 14,5 km/h (3 Bft)
02.02.2026 09:35 22,1 °C -5,7 °C 44 % 82 % 1010,7 hPa 0,0 l/m² 14,5 km/h (3 Bft) O-NO 73 ° 0 min 46 W/m² -8,3 °C -13,5 °C 16,1 km/h (3 Bft)
02.02.2026 09:36 22,1 °C -5,7 °C 44 % 82 % 1010,7 hPa 0,0 l/m² 11,3 km/h (2 Bft) O-NO 76 ° 0 min 47 W/m² -8,3 °C -11,0 °C 17,7 km/h (3 Bft)
02.02.2026 09:37 22,1 °C -5,6 °C 44 % 82 % 1010,7 hPa 0,0 l/m² 15,9 km/h (3 Bft) O-NO 68 ° 0 min 47 W/m² -8,2 °C -14,4 °C 19,3 km/h (3 Bft)
02.02.2026 09:38 22,1 °C -5,7 °C 44 % 82 % 1010,8 hPa 0,0 l/m² 10,2 km/h (2 Bft) O 80 ° 0 min 49 W/m² -8,3 °C -9,9 °C 14,5 km/h (3 Bft)
02.02.2026 09:39 22,1 °C -5,7 °C 44 % 82 % 1010,7 hPa 0,0 l/m² 9,3 km/h (2 Bft) O-NO 73 ° 0 min 49 W/m² -8,3 °C -9,0 °C 14,5 km/h (3 Bft)
02.02.2026 09:41 22,1 °C -5,7 °C 44 % 82 % 1010,7 hPa 0,0 l/m² 9,9 km/h (2 Bft) O 94 ° 2 min 53 W/m² -8,3 °C -9,6 °C 17,7 km/h (3 Bft)
02.02.2026 09:43 22,1 °C -5,6 °C 44 % 82 % 1010,7 hPa 0,0 l/m² 10,8 km/h (2 Bft) O-NO 76 ° 2 min 54 W/m² -8,2 °C -10,4 °C 17,7 km/h (3 Bft)
02.02.2026 09:45 22,1 °C -5,7 °C 44 % 81 % 1010,7 hPa 0,0 l/m² 12,6 km/h (3 Bft) O 80 ° 2 min 56 W/m² -8,4 °C -12,1 °C 17,7 km/h (3 Bft)
02.02.2026 09:46 22,1 °C -5,7 °C 44 % 81 % 1010,8 hPa 0,0 l/m² 9,4 km/h (2 Bft) O-NO 58 ° 1 min 58 W/m² -8,4 °C -9,1 °C 17,7 km/h (3 Bft)
02.02.2026 09:47 22,1 °C -5,7 °C 44 % 81 % 1010,7 hPa 0,0 l/m² 14,7 km/h (3 Bft) O-NO 78 ° 1 min 60 W/m² -8,4 °C -13,7 °C 17,7 km/h (3 Bft)
02.02.2026 09:48 22,1 °C -5,7 °C 44 % 81 % 1010,7 hPa 0,0 l/m² 14,7 km/h (3 Bft) O-NO 70 ° 1 min 62 W/m² -8,4 °C -13,7 °C 17,7 km/h (3 Bft)
02.02.2026 09:49 22,1 °C -5,7 °C 44 % 81 % 1010,8 hPa 0,0 l/m² 11,5 km/h (2 Bft) O-NO 76 ° 1 min 63 W/m² -8,4 °C -11,1 °C 17,7 km/h (3 Bft)
02.02.2026 09:51 22,1 °C -5,7 °C 44 % 81 % 1010,8 hPa 0,0 l/m² 10,5 km/h (2 Bft) O 97 ° 2 min 67 W/m² -8,4 °C -10,2 °C 14,5 km/h (3 Bft)
02.02.2026 09:53 22,1 °C -5,7 °C 44 % 81 % 1010,7 hPa 0,0 l/m² 10,4 km/h (2 Bft) O 80 ° 2 min 76 W/m² -8,4 °C -10,1 °C 16,1 km/h (3 Bft)
02.02.2026 09:54 22,1 °C -5,7 °C 44 % 81 % 1010,8 hPa 0,0 l/m² 16,3 km/h (3 Bft) O-NO 71 ° 1 min 77 W/m² -8,4 °C -14,8 °C 20,9 km/h (4 Bft)
02.02.2026 09:55 22,1 °C -5,7 °C 44 % 82 % 1010,8 hPa 0,0 l/m² 13,3 km/h (3 Bft) O-NO 69 ° 1 min 79 W/m² -8,3 °C -12,6 °C 19,3 km/h (3 Bft)
02.02.2026 09:56 22,1 °C -5,7 °C 44 % 82 % 1010,8 hPa 0,0 l/m² 12,7 km/h (3 Bft) O 86 ° 1 min 81 W/m² -8,3 °C -12,1 °C 16,1 km/h (3 Bft)
02.02.2026 09:57 22,1 °C -5,7 °C 44 % 82 % 1010,7 hPa 0,0 l/m² 15,3 km/h (3 Bft) O 80 ° 1 min 83 W/m² -8,3 °C -14,1 °C 19,3 km/h (3 Bft)
02.02.2026 09:58 22,1 °C -5,7 °C 44 % 82 % 1010,7 hPa 0,0 l/m² 16,1 km/h (3 Bft) O-NO 63 ° 1 min 84 W/m² -8,3 °C -14,6 °C 20,9 km/h (4 Bft)
02.02.2026 09:59 22,1 °C -5,7 °C 44 % 82 % 1010,7 hPa 0,0 l/m² 13,8 km/h (3 Bft) O 87 ° 1 min 88 W/m² -8,3 °C -13,0 °C 19,3 km/h (3 Bft)
02.02.2026 10:01 22,1 °C -5,6 °C 44 % 82 % 1010,7 hPa 0,0 l/m² 13,8 km/h (3 Bft) O-NO 68 ° 2 min 91 W/m² -8,2 °C -12,9 °C 17,7 km/h (3 Bft)
02.02.2026 10:03 22,1 °C -5,6 °C 44 % 82 % 1010,7 hPa 0,0 l/m² 9,1 km/h (2 Bft) O 88 ° 2 min 95 W/m² -8,2 °C -8,7 °C 16,1 km/h (3 Bft)
02.02.2026 10:04 22,1 °C -5,6 °C 44 % 82 % 1010,7 hPa 0,0 l/m² 6,1 km/h (2 Bft) NO 55 ° 1 min 95 W/m² -8,2 °C -5,6 °C 8,0 km/h (2 Bft)
02.02.2026 10:05 22,1 °C -5,6 °C 44 % 82 % 1010,8 hPa 0,0 l/m² 11,0 km/h (2 Bft) O-NO 76 ° 1 min 98 W/m² -8,2 °C -10,6 °C 16,1 km/h (3 Bft)
02.02.2026 10:06 22,1 °C -5,6 °C 44 % 82 % 1010,7 hPa 0,0 l/m² 12,4 km/h (2 Bft) O 88 ° 1 min 100 W/m² -8,2 °C -11,8 °C 17,7 km/h (3 Bft)
02.02.2026 10:07 22,1 °C -5,6 °C 44 % 82 % 1010,6 hPa 0,0 l/m² 9,3 km/h (2 Bft) O-NO 61 ° 1 min 100 W/m² -8,2 °C -8,9 °C 14,5 km/h (3 Bft)
02.02.2026 10:08 22,0 °C -5,6 °C 44 % 82 % 1010,7 hPa 0,0 l/m² 10,8 km/h (2 Bft) NO 41 ° 1 min 102 W/m² -8,2 °C -10,4 °C 20,9 km/h (4 Bft)
02.02.2026 10:09 22,1 °C -5,6 °C 44 % 82 % 1010,7 hPa 0,0 l/m² 13,4 km/h (3 Bft) O-NO 63 ° 1 min 102 W/m² -8,2 °C -12,6 °C 16,1 km/h (3 Bft)
02.02.2026 10:11 22,1 °C -5,5 °C 44 % 82 % 1010,7 hPa 0,0 l/m² 11,9 km/h (2 Bft) O 88 ° 2 min 111 W/m² -8,1 °C -11,3 °C 16,1 km/h (3 Bft)
02.02.2026 10:13 22,1 °C -5,5 °C 44 % 81 % 1010,8 hPa 0,0 l/m² 14,7 km/h (3 Bft) O 91 ° 2 min 118 W/m² -8,2 °C -13,4 °C 19,3 km/h (3 Bft)
02.02.2026 10:14 22,1 °C -5,5 °C 44 % 81 % 1010,7 hPa 0,0 l/m² 6,4 km/h (2 Bft) O-NO 77 ° 1 min 120 W/m² -8,2 °C -5,4 °C 11,3 km/h (2 Bft)
02.02.2026 10:15 22,1 °C -5,5 °C 44 % 81 % 1010,7 hPa 0,0 l/m² 6,1 km/h (2 Bft) O-NO 65 ° 1 min 121 W/m² -8,2 °C -5,5 °C 12,9 km/h (3 Bft)
02.02.2026 10:16 22,1 °C -5,5 °C 44 % 81 % 1010,7 hPa 0,0 l/m² 6,2 km/h (2 Bft) O-NO 63 ° 1 min 125 W/m² -8,2 °C -5,5 °C 11,3 km/h (2 Bft)
02.02.2026 10:17 22,1 °C -5,5 °C 44 % 81 % 1010,7 hPa 0,0 l/m² 10,5 km/h (2 Bft) O-NO 67 ° 1 min 127 W/m² -8,2 °C -10,0 °C 22,5 km/h (4 Bft)
02.02.2026 10:18 22,1 °C -5,4 °C 44 % 81 % 1010,8 hPa 0,0 l/m² 13,2 km/h (3 Bft) O-NO 69 ° 1 min 130 W/m² -8,1 °C -12,2 °C 19,3 km/h (3 Bft)
02.02.2026 10:19 22,1 °C -5,4 °C 44 % 81 % 1010,8 hPa 0,0 l/m² 12,9 km/h (3 Bft) O 82 ° 1 min 132 W/m² -8,1 °C -12,0 °C 16,1 km/h (3 Bft)
02.02.2026 10:21 22,1 °C -5,4 °C 44 % 81 % 1010,7 hPa 0,0 l/m² 10,7 km/h (2 Bft) O-NO 58 ° 2 min 137 W/m² -8,1 °C -10,1 °C 16,1 km/h (3 Bft)
02.02.2026 10:23 22,1 °C -5,4 °C 44 % 81 % 1010,6 hPa 0,0 l/m² 6,8 km/h (2 Bft) O-NO 77 ° 2 min 144 W/m² -8,1 °C -5,9 °C 11,3 km/h (2 Bft)
02.02.2026 10:24 22,1 °C -5,4 °C 44 % 81 % 1010,6 hPa 0,0 l/m² 6,9 km/h (2 Bft) O-NO 67 ° 1 min 146 W/m² -8,1 °C -6,0 °C 9,7 km/h (2 Bft)
02.02.2026 10:25 22,1 °C -5,4 °C 44 % 81 % 1010,6 hPa 0,0 l/m² 10,7 km/h (2 Bft) O-NO 71 ° 1 min 149 W/m² -8,1 °C -10,1 °C 16,1 km/h (3 Bft)
02.02.2026 10:26 22,1 °C -5,3 °C 44 % 81 % 1010,7 hPa 0,0 l/m² 14,2 km/h (3 Bft) O 82 ° 1 min 155 W/m² -8,0 °C -12,8 °C 17,7 km/h (3 Bft)
02.02.2026 10:27 22,1 °C -5,3 °C 44 % 81 % 1010,6 hPa 0,0 l/m² 10,4 km/h (2 Bft) O 93 ° 1 min 158 W/m² -8,0 °C -9,7 °C 16,1 km/h (3 Bft)
02.02.2026 10:28 22,1 °C -5,3 °C 44 % 81 % 1010,7 hPa 0,0 l/m² 8,4 km/h (2 Bft) NO 36 ° 1 min 169 W/m² -8,0 °C -7,7 °C 14,5 km/h (3 Bft)
02.02.2026 10:29 22,1 °C -5,3 °C 44 % 81 % 1010,7 hPa 0,0 l/m² 3,0 km/h (1 Bft) O-NO 72 ° 1 min 174 W/m² -8,0 °C -5,3 °C 4,8 km/h (1 Bft)
02.02.2026 10:31 22,0 °C -5,3 °C 44 % 81 % 1010,7 hPa 0,0 l/m² 7,7 km/h (2 Bft) O-NO 65 ° 2 min 181 W/m² -8,0 °C -6,9 °C 16,1 km/h (3 Bft)
02.02.2026 10:33 22,1 °C -5,3 °C 44 % 81 % 1010,6 hPa 0,0 l/m² 10,3 km/h (2 Bft) O 85 ° 2 min 190 W/m² -8,0 °C -9,6 °C 16,1 km/h (3 Bft)
02.02.2026 10:34 22,1 °C -5,2 °C 44 % 81 % 1010,7 hPa 0,0 l/m² 15,2 km/h (3 Bft) O 81 ° 1 min 195 W/m² -7,9 °C -13,4 °C 19,3 km/h (3 Bft)
02.02.2026 10:35 22,1 °C -5,2 °C 44 % 81 % 1010,7 hPa 0,0 l/m² 13,6 km/h (3 Bft) O 84 ° 1 min 195 W/m² -7,9 °C -12,3 °C 19,3 km/h (3 Bft)
02.02.2026 10:36 22,0 °C -5,2 °C 44 % 81 % 1010,6 hPa 0,0 l/m² 12,9 km/h (3 Bft) O 82 ° 1 min 197 W/m² -7,9 °C -11,7 °C 16,1 km/h (3 Bft)
02.02.2026 10:37 22,0 °C -5,2 °C 44 % 81 % 1010,7 hPa 0,0 l/m² 11,9 km/h (2 Bft) O-NO 75 ° 1 min 200 W/m² -7,9 °C -10,9 °C 14,5 km/h (3 Bft)
02.02.2026 10:38 22,0 °C -5,2 °C 44 % 80 % 1010,7 hPa 0,0 l/m² 7,1 km/h (2 Bft) O 90 ° 1 min 202 W/m² -8,1 °C -6,0 °C 12,9 km/h (3 Bft)
02.02.2026 10:39 22,0 °C -5,2 °C 44 % 81 % 1010,7 hPa 0,0 l/m² 9,0 km/h (2 Bft) O-NO 74 ° 1 min 204 W/m² -7,9 °C -8,2 °C 14,5 km/h (3 Bft)
02.02.2026 10:41 22,1 °C -5,1 °C 44 % 81 % 1010,7 hPa 0,0 l/m² 5,5 km/h (2 Bft) O-NO 59 ° 2 min 211 W/m² -7,8 °C -5,1 °C 14,5 km/h (3 Bft)
02.02.2026 10:43 22,1 °C -5,0 °C 44 % 81 % 1010,7 hPa 0,0 l/m² 5,5 km/h (2 Bft) O-NO 75 ° 2 min 220 W/m² -7,7 °C -5,0 °C 16,1 km/h (3 Bft)
02.02.2026 10:44 22,0 °C -4,9 °C 44 % 81 % 1010,7 hPa 0,0 l/m² 9,5 km/h (2 Bft) O 93 ° 1 min 220 W/m² -7,6 °C -8,4 °C 14,5 km/h (3 Bft)
02.02.2026 10:45 22,0 °C -4,9 °C 44 % 81 % 1010,7 hPa 0,0 l/m² 15,0 km/h (3 Bft) O-NO 78 ° 1 min 220 W/m² -7,6 °C -12,9 °C 17,7 km/h (3 Bft)
02.02.2026 10:46 22,1 °C -4,9 °C 44 % 80 % 1010,7 hPa 0,0 l/m² 12,9 km/h (3 Bft) O 96 ° 1 min 213 W/m² -7,8 °C -11,4 °C 19,3 km/h (3 Bft)
02.02.2026 10:47 22,1 °C -4,9 °C 44 % 80 % 1010,7 hPa 0,0 l/m² 5,8 km/h (2 Bft) N 11 ° 1 min 213 W/m² -7,8 °C -4,9 °C 8,0 km/h (2 Bft)
02.02.2026 10:48 22,1 °C -4,8 °C 44 % 80 % 1010,7 hPa 0,0 l/m² 11,8 km/h (2 Bft) O-NO 66 ° 1 min 211 W/m² -7,7 °C -10,4 °C 17,7 km/h (3 Bft)
02.02.2026 10:49 22,1 °C -4,8 °C 44 % 80 % 1010,7 hPa 0,0 l/m² 7,3 km/h (2 Bft) O 82 ° 1 min 211 W/m² -7,7 °C -5,9 °C 14,5 km/h (3 Bft)
02.02.2026 10:51 22,1 °C -4,8 °C 44 % 80 % 1010,6 hPa 0,0 l/m² 10,0 km/h (2 Bft) O-NO 67 ° 2 min 209 W/m² -7,7 °C -8,8 °C 17,7 km/h (3 Bft)
02.02.2026 10:53 22,0 °C -4,7 °C 44 % 80 % 1010,7 hPa 0,0 l/m² 9,6 km/h (2 Bft) O-NO 69 ° 2 min 214 W/m² -7,6 °C -8,3 °C 19,3 km/h (3 Bft)
02.02.2026 10:54 22,0 °C -4,7 °C 44 % 80 % 1010,7 hPa 0,0 l/m² 13,0 km/h (3 Bft) O-NO 59 ° 1 min 214 W/m² -7,6 °C -11,2 °C 19,3 km/h (3 Bft)
02.02.2026 10:55 22,1 °C -4,7 °C 44 % 80 % 1010,6 hPa 0,0 l/m² 13,2 km/h (3 Bft) NO 39 ° 1 min 214 W/m² -7,6 °C -11,4 °C 19,3 km/h (3 Bft)
02.02.2026 10:56 22,1 °C -4,6 °C 44 % 80 % 1010,7 hPa 0,0 l/m² 15,4 km/h (3 Bft) O-NO 61 ° 1 min 216 W/m² -7,5 °C -12,8 °C 24,1 km/h (4 Bft)
02.02.2026 10:57 22,0 °C -4,6 °C 44 % 79 % 1010,6 hPa 0,0 l/m² 14,2 km/h (3 Bft) O-NO 69 ° 1 min 216 W/m² -7,7 °C -12,0 °C 20,9 km/h (4 Bft)
02.02.2026 10:58 22,0 °C -4,6 °C 44 % 79 % 1010,6 hPa 0,0 l/m² 12,0 km/h (2 Bft) O-NO 74 ° 1 min 216 W/m² -7,7 °C -10,3 °C 19,3 km/h (3 Bft)
02.02.2026 10:59 22,1 °C -4,6 °C 44 % 79 % 1010,6 hPa 0,0 l/m² 9,6 km/h (2 Bft) O-NO 65 ° 1 min 214 W/m² -7,7 °C -8,1 °C 17,7 km/h (3 Bft)
02.02.2026 11:01 22,1 °C -4,7 °C 44 % 78 % 1010,6 hPa 0,0 l/m² 14,5 km/h (3 Bft) O 84 ° 2 min 214 W/m² -7,9 °C -12,3 °C 19,3 km/h (3 Bft)
02.02.2026 11:03 22,1 °C -4,7 °C 44 % 78 % 1010,5 hPa 0,2 l/m² 15,7 km/h (3 Bft) O 84 ° 2 min 230 W/m² -7,9 °C -13,1 °C 24,1 km/h (4 Bft)
02.02.2026 11:04 22,1 °C -4,8 °C 44 % 78 % 1010,5 hPa 0,0 l/m² 16,7 km/h (3 Bft) NO 53 ° 1 min 232 W/m² -8,0 °C -13,9 °C 24,1 km/h (4 Bft)
02.02.2026 11:06 22,1 °C -4,8 °C 44 % 78 % 1010,5 hPa 0,0 l/m² 12,7 km/h (3 Bft) O 88 ° 2 min 232 W/m² -8,0 °C -11,1 °C 17,7 km/h (3 Bft)
02.02.2026 11:07 22,1 °C -4,8 °C 44 % 78 % 1010,6 hPa 0,0 l/m² 14,2 km/h (3 Bft) O 85 ° 1 min 232 W/m² -8,0 °C -12,2 °C 19,3 km/h (3 Bft)
02.02.2026 11:08 22,1 °C -4,8 °C 44 % 78 % 1010,6 hPa 0,0 l/m² 14,5 km/h (3 Bft) O-NO 76 ° 1 min 232 W/m² -8,0 °C -12,4 °C 19,3 km/h (3 Bft)
02.02.2026 11:09 22,1 °C -4,8 °C 44 % 79 % 1010,6 hPa 0,0 l/m² 9,9 km/h (2 Bft) O 94 ° 1 min 232 W/m² -7,9 °C -8,7 °C 14,5 km/h (3 Bft)
02.02.2026 11:11 22,0 °C -4,8 °C 44 % 79 % 1010,6 hPa 0,0 l/m² 10,3 km/h (2 Bft) O-NO 71 ° 2 min 230 W/m² -7,9 °C -9,0 °C 16,1 km/h (3 Bft)
02.02.2026 11:12 22,1 °C -4,8 °C 44 % 79 % 1010,6 hPa 0,0 l/m² 17,2 km/h (3 Bft) O 99 ° 1 min 230 W/m² -7,9 °C -14,2 °C 20,9 km/h (4 Bft)
02.02.2026 11:13 22,1 °C -4,9 °C 44 % 79 % 1010,7 hPa 0,0 l/m² 16,2 km/h (3 Bft) O 94 ° 1 min 232 W/m² -8,0 °C -13,7 °C 17,7 km/h (3 Bft)
02.02.2026 11:14 22,1 °C -4,9 °C 44 % 79 % 1010,7 hPa 0,0 l/m² 14,5 km/h (3 Bft) O 90 ° 1 min 230 W/m² -8,0 °C -12,6 °C 16,1 km/h (3 Bft)
02.02.2026 11:15 22,1 °C -4,9 °C 44 % 78 % 1010,6 hPa 0,0 l/m² 16,1 km/h (3 Bft) O 90 ° 1 min 229 W/m² -8,1 °C -13,7 °C 19,3 km/h (3 Bft)
02.02.2026 11:20 22,1 °C -5,1 °C 44 % 79 % 1010,6 hPa 0,0 l/m² 9,4 km/h (2 Bft) O-NO 78 ° 5 min 218 W/m² -8,2 °C -8,5 °C 14,5 km/h (3 Bft)
02.02.2026 11:22 22,1 °C -5,0 °C 44 % 79 % 1010,6 hPa 0,0 l/m² 8,2 km/h (2 Bft) O 91 ° 2 min 214 W/m² -8,1 °C -7,1 °C 12,9 km/h (3 Bft)
02.02.2026 11:23 22,1 °C -5,0 °C 44 % 79 % 1010,6 hPa 0,0 l/m² 11,8 km/h (2 Bft) O-NO 72 ° 1 min 216 W/m² -8,1 °C -10,6 °C 17,7 km/h (3 Bft)
02.02.2026 11:25 22,1 °C -4,9 °C 44 % 79 % 1010,6 hPa 0,0 l/m² 13,3 km/h (3 Bft) O 89 ° 2 min 220 W/m² -8,0 °C -11,7 °C 19,3 km/h (3 Bft)
02.02.2026 11:27 22,1 °C -4,9 °C 44 % 79 % 1010,6 hPa 0,0 l/m² 14,4 km/h (3 Bft) O 89 ° 2 min 223 W/m² -8,0 °C -12,5 °C 19,3 km/h (3 Bft)
02.02.2026 11:29 22,1 °C -4,9 °C 44 % 79 % 1010,6 hPa 0,0 l/m² 14,1 km/h (3 Bft) O 92 ° 2 min 223 W/m² -8,0 °C -12,3 °C 19,3 km/h (3 Bft)
02.02.2026 11:30 22,1 °C -5,0 °C 44 % 79 % 1010,5 hPa 0,0 l/m² 16,7 km/h (3 Bft) O 86 ° 1 min 223 W/m² -8,1 °C -14,2 °C 19,3 km/h (3 Bft)
02.02.2026 11:32 22,1 °C -5,0 °C 44 % 79 % 1010,6 hPa 0,0 l/m² 14,9 km/h (3 Bft) O 82 ° 2 min 220 W/m² -8,1 °C -13,0 °C 17,7 km/h (3 Bft)
02.02.2026 11:33 22,1 °C -5,0 °C 44 % 79 % 1010,5 hPa 0,0 l/m² 14,1 km/h (3 Bft) NO 48 ° 1 min 218 W/m² -8,1 °C -12,4 °C 19,3 km/h (3 Bft)
02.02.2026 11:35 22,1 °C -4,9 °C 44 % 79 % 1010,6 hPa 0,0 l/m² 13,2 km/h (3 Bft) O-NO 76 ° 2 min 218 W/m² -8,0 °C -11,6 °C 20,9 km/h (4 Bft)
02.02.2026 11:37 22,1 °C -4,9 °C 44 % 80 % 1010,5 hPa 0,0 l/m² 16,0 km/h (3 Bft) O 90 ° 2 min 218 W/m² -7,8 °C -13,6 °C 22,5 km/h (4 Bft)
02.02.2026 11:39 22,1 °C -4,9 °C 44 % 80 % 1010,6 hPa 0,0 l/m² 13,5 km/h (3 Bft) O 82 ° 2 min 211 W/m² -7,8 °C -11,8 °C 20,9 km/h (4 Bft)
02.02.2026 11:40 22,1 °C -4,8 °C 44 % 79 % 1010,5 hPa 0,0 l/m² 12,8 km/h (3 Bft) O-NO 77 ° 1 min 211 W/m² -7,9 °C -11,2 °C 19,3 km/h (3 Bft)
02.02.2026 11:42 22,1 °C -4,8 °C 44 % 79 % 1010,5 hPa 0,0 l/m² 12,8 km/h (3 Bft) O 84 ° 2 min 214 W/m² -7,9 °C -11,2 °C 17,7 km/h (3 Bft)
02.02.2026 11:43 22,1 °C -4,8 °C 44 % 79 % 1010,5 hPa 0,0 l/m² 16,3 km/h (3 Bft) O 86 ° 1 min 214 W/m² -7,9 °C -13,7 °C 20,9 km/h (4 Bft)
02.02.2026 11:45 22,1 °C -4,8 °C 44 % 79 % 1010,5 hPa 0,0 l/m² 16,1 km/h (3 Bft) O-NO 68 ° 2 min 218 W/m² -7,9 °C -13,5 °C 20,9 km/h (4 Bft)
02.02.2026 11:47 22,1 °C -4,8 °C 44 % 80 % 1010,5 hPa 0,0 l/m² 15,0 km/h (3 Bft) O 81 ° 2 min 223 W/m² -7,7 °C -12,8 °C 19,3 km/h (3 Bft)
02.02.2026 11:49 22,1 °C -4,8 °C 44 % 79 % 1010,5 hPa 0,0 l/m² 10,1 km/h (2 Bft) O 86 ° 2 min 225 W/m² -7,9 °C -8,8 °C 16,1 km/h (3 Bft)
02.02.2026 11:50 22,1 °C -4,7 °C 44 % 79 % 1010,5 hPa 0,0 l/m² 10,0 km/h (2 Bft) O 92 ° 1 min 229 W/m² -7,8 °C -8,6 °C 12,9 km/h (3 Bft)
02.02.2026 11:52 22,1 °C -4,7 °C 44 % 79 % 1010,5 hPa 0,0 l/m² 16,1 km/h (3 Bft) O 81 ° 2 min 230 W/m² -7,8 °C -13,4 °C 20,9 km/h (4 Bft)
02.02.2026 11:53 22,1 °C -4,7 °C 44 % 79 % 1010,5 hPa 0,0 l/m² 11,5 km/h (2 Bft) O-NO 73 ° 1 min 230 W/m² -7,8 °C -10,0 °C 17,7 km/h (3 Bft)
02.02.2026 11:55 22,1 °C -4,7 °C 44 % 80 % 1010,4 hPa 0,0 l/m² 7,8 km/h (2 Bft) O-NO 75 ° 2 min 239 W/m² -7,6 °C -6,4 °C 11,3 km/h (2 Bft)
02.02.2026 11:57 22,1 °C -4,6 °C 44 % 79 % 1010,4 hPa 0,0 l/m² 12,2 km/h (2 Bft) O 93 ° 2 min 227 W/m² -7,7 °C -10,5 °C 16,1 km/h (3 Bft)
02.02.2026 11:59 22,1 °C -4,6 °C 44 % 80 % 1010,3 hPa 0,0 l/m² 8,5 km/h (2 Bft) O-NO 71 ° 2 min 213 W/m² -7,5 °C -7,0 °C 12,9 km/h (3 Bft)
02.02.2026 12:00 22,1 °C -4,5 °C 44 % 80 % 1010,3 hPa 0,0 l/m² 8,0 km/h (2 Bft) O 90 ° 1 min 211 W/m² -7,4 °C -6,4 °C 12,9 km/h (3 Bft)
02.02.2026 12:01 22,1 °C -4,5 °C 44 % 80 % 1010,3 hPa 0,0 l/m² 4,8 km/h (1 Bft) NO 45 ° 1 min 214 W/m² -7,4 °C -4,5 °C 9,7 km/h (2 Bft)
02.02.2026 12:06 22,1 °C -4,3 °C 44 % 79 % 1010,2 hPa 0,0 l/m² 15,4 km/h (3 Bft) O-NO 67 ° 5 min 207 W/m² -7,4 °C -12,5 °C 19,3 km/h (3 Bft)
02.02.2026 12:08 22,1 °C -4,3 °C 44 % 79 % 1010,1 hPa 0,0 l/m² 10,7 km/h (2 Bft) O-NO 67 ° 2 min 209 W/m² -7,4 °C -8,8 °C 19,3 km/h (3 Bft)
02.02.2026 12:09 22,1 °C -4,3 °C 44 % 79 % 1010,1 hPa 0,0 l/m² 6,7 km/h (2 Bft) O 92 ° 1 min 207 W/m² -7,4 °C -4,6 °C 12,9 km/h (3 Bft)
02.02.2026 12:11 22,1 °C -4,3 °C 44 % 79 % 1010,1 hPa 0,0 l/m² 7,7 km/h (2 Bft) NO 40 ° 2 min 202 W/m² -7,4 °C -5,8 °C 16,1 km/h (3 Bft)
02.02.2026 12:13 22,1 °C -4,2 °C 44 % 79 % 1010,1 hPa 0,0 l/m² 10,2 km/h (2 Bft) NO 53 ° 2 min 206 W/m² -7,3 °C -8,3 °C 17,7 km/h (3 Bft)
02.02.2026 12:14 22,1 °C -4,1 °C 44 % 79 % 1010,1 hPa 0,0 l/m² 6,3 km/h (2 Bft) O-NO 72 ° 1 min 214 W/m² -7,2 °C -4,1 °C 9,7 km/h (2 Bft)
02.02.2026 12:15 22,1 °C -4,1 °C 44 % 79 % 1010,1 hPa 0,0 l/m² 8,0 km/h (2 Bft) O 85 ° 1 min 218 W/m² -7,2 °C -6,0 °C 12,9 km/h (3 Bft)
02.02.2026 12:17 22,1 °C -4,0 °C 44 % 79 % 1010,1 hPa 0,0 l/m² 5,8 km/h (2 Bft) NO 55 ° 2 min 225 W/m² -7,1 °C -4,0 °C 12,9 km/h (3 Bft)
02.02.2026 12:19 22,1 °C -3,9 °C 44 % 79 % 1010,0 hPa 0,0 l/m² 11,3 km/h (2 Bft) NO 49 ° 2 min 227 W/m² -7,0 °C -8,9 °C 19,3 km/h (3 Bft)
02.02.2026 12:21 22,1 °C -3,8 °C 44 % 79 % 1010,0 hPa 0,0 l/m² 10,0 km/h (2 Bft) NO 44 ° 2 min 223 W/m² -6,9 °C -7,6 °C 19,3 km/h (3 Bft)
02.02.2026 12:22 22,1 °C -3,8 °C 44 % 78 % 1009,9 hPa 0,0 l/m² 12,1 km/h (2 Bft) O 83 ° 1 min 221 W/m² -7,1 °C -9,5 °C 20,9 km/h (4 Bft)
02.02.2026 12:23 22,1 °C -3,7 °C 44 % 78 % 1009,9 hPa 0,0 l/m² 8,2 km/h (2 Bft) O-NO 57 ° 1 min 220 W/m² -7,0 °C -5,7 °C 11,3 km/h (2 Bft)
02.02.2026 12:25 22,1 °C -3,8 °C 44 % 78 % 1010,1 hPa 0,0 l/m² 14,5 km/h (3 Bft) O 80 ° 2 min 218 W/m² -7,1 °C -11,2 °C 19,3 km/h (3 Bft)
02.02.2026 12:26 22,1 °C -3,8 °C 44 % 78 % 1010,0 hPa 0,0 l/m² 12,3 km/h (2 Bft) O-NO 65 ° 1 min 218 W/m² -7,1 °C -9,6 °C 16,1 km/h (3 Bft)
02.02.2026 12:27 22,1 °C -3,8 °C 44 % 77 % 1010,0 hPa 0,0 l/m² 9,8 km/h (2 Bft) O-NO 69 ° 1 min 218 W/m² -7,2 °C -7,5 °C 14,5 km/h (3 Bft)
02.02.2026 12:28 22,1 °C -3,8 °C 44 % 78 % 1010,0 hPa 0,0 l/m² 9,4 km/h (2 Bft) O 80 ° 1 min 216 W/m² -7,1 °C -7,1 °C 16,1 km/h (3 Bft)
02.02.2026 12:30 22,1 °C -3,8 °C 44 % 78 % 1009,9 hPa 0,0 l/m² 8,2 km/h (2 Bft) O-NO 76 ° 2 min 211 W/m² -7,1 °C -5,9 °C 12,9 km/h (3 Bft)
02.02.2026 12:33 22,1 °C -3,7 °C 44 % 78 % 1009,9 hPa 0,0 l/m² 9,5 km/h (2 Bft) NO 44 ° 3 min 206 W/m² -7,0 °C -7,1 °C 17,7 km/h (3 Bft)
02.02.2026 12:35 22,1 °C -3,7 °C 44 % 78 % 1010,0 hPa 0,0 l/m² 5,5 km/h (2 Bft) O-NO 58 ° 2 min 204 W/m² -7,0 °C -3,7 °C 11,3 km/h (2 Bft)
02.02.2026 12:37 22,1 °C -3,7 °C 44 % 78 % 1009,9 hPa 0,0 l/m² 10,5 km/h (2 Bft) O-NO 72 ° 2 min 207 W/m² -7,0 °C -8,0 °C 16,1 km/h (3 Bft)
02.02.2026 12:39 22,1 °C -3,6 °C 44 % 78 % 1010,0 hPa 0,0 l/m² 11,3 km/h (2 Bft) O-NO 70 ° 2 min 209 W/m² -6,9 °C -8,6 °C 22,5 km/h (4 Bft)
02.02.2026 12:41 22,1 °C -3,6 °C 44 % 77 % 1010,0 hPa 0,0 l/m² 12,8 km/h (3 Bft) O-NO 65 ° 2 min 216 W/m² -7,0 °C -9,8 °C 19,3 km/h (3 Bft)
02.02.2026 12:42 22,1 °C -3,6 °C 44 % 77 % 1009,8 hPa 0,0 l/m² 12,4 km/h (2 Bft) O 81 ° 1 min 221 W/m² -7,0 °C -9,5 °C 17,7 km/h (3 Bft)
02.02.2026 12:43 22,1 °C -3,5 °C 44 % 77 % 1009,8 hPa 0,0 l/m² 10,7 km/h (2 Bft) O-NO 57 ° 1 min 223 W/m² -6,9 °C -7,9 °C 14,5 km/h (3 Bft)
02.02.2026 12:45 22,1 °C -3,4 °C 44 % 77 % 1009,8 hPa 0,0 l/m² 13,8 km/h (3 Bft) O 86 ° 2 min 223 W/m² -6,8 °C -10,3 °C 20,9 km/h (4 Bft)
02.02.2026 12:47 22,1 °C -3,4 °C 44 % 77 % 1009,7 hPa 0,0 l/m² 13,1 km/h (3 Bft) NO 44 ° 2 min 221 W/m² -6,8 °C -9,8 °C 22,5 km/h (4 Bft)
02.02.2026 12:49 22,1 °C -3,4 °C 44 % 77 % 1009,8 hPa 0,0 l/m² 7,9 km/h (2 Bft) N 11 ° 2 min 223 W/m² -6,8 °C -5,1 °C 16,1 km/h (3 Bft)
02.02.2026 12:51 22,1 °C -3,3 °C 44 % 77 % 1009,7 hPa 0,0 l/m² 9,3 km/h (2 Bft) O-NO 65 ° 2 min 225 W/m² -6,7 °C -6,4 °C 17,7 km/h (3 Bft)
02.02.2026 12:52 22,1 °C -3,3 °C 44 % 77 % 1009,6 hPa 0,0 l/m² 11,1 km/h (2 Bft) O 88 ° 1 min 227 W/m² -6,7 °C -8,1 °C 16,1 km/h (3 Bft)
02.02.2026 12:53 22,1 °C -3,3 °C 44 % 77 % 1009,6 hPa 0,0 l/m² 8,1 km/h (2 Bft) O 80 ° 1 min 225 W/m² -6,7 °C -5,2 °C 14,5 km/h (3 Bft)
02.02.2026 12:55 22,1 °C -3,3 °C 44 % 77 % 1009,5 hPa 0,0 l/m² 9,2 km/h (2 Bft) NO 42 ° 2 min 223 W/m² -6,7 °C -6,3 °C 17,7 km/h (3 Bft)
02.02.2026 12:56 22,1 °C -3,3 °C 44 % 77 % 1009,7 hPa 0,0 l/m² 11,0 km/h (2 Bft) O-NO 66 ° 1 min 223 W/m² -6,7 °C -8,0 °C 20,9 km/h (4 Bft)
02.02.2026 12:57 22,1 °C -3,2 °C 44 % 77 % 1009,5 hPa 0,0 l/m² 9,6 km/h (2 Bft) O-NO 57 ° 1 min 225 W/m² -6,6 °C -6,6 °C 16,1 km/h (3 Bft)
02.02.2026 12:58 22,1 °C -3,2 °C 44 % 77 % 1009,5 hPa 0,0 l/m² 13,2 km/h (3 Bft) O 84 ° 1 min 227 W/m² -6,6 °C -9,6 °C 16,1 km/h (3 Bft)
02.02.2026 13:00 22,1 °C -3,3 °C 44 % 77 % 1009,5 hPa 0,0 l/m² 12,7 km/h (3 Bft) O-NO 76 ° 2 min 230 W/m² -6,7 °C -9,3 °C 19,3 km/h (3 Bft)
02.02.2026 13:02 22,1 °C -3,3 °C 44 % 77 % 1009,5 hPa 0,0 l/m² 4,9 km/h (1 Bft) O-NO 74 ° 2 min 234 W/m² -6,7 °C -3,3 °C 14,5 km/h (3 Bft)
02.02.2026 13:03 22,1 °C -3,2 °C 44 % 77 % 1009,5 hPa 0,0 l/m² 6,1 km/h (2 Bft) O-NO 63 ° 1 min 236 W/m² -6,6 °C -3,2 °C 16,1 km/h (3 Bft)
02.02.2026 13:04 22,1 °C -3,2 °C 44 % 77 % 1009,5 hPa 0,0 l/m² 12,3 km/h (2 Bft) O-NO 63 ° 1 min 237 W/m² -6,6 °C -8,9 °C 19,3 km/h (3 Bft)
02.02.2026 13:05 22,1 °C -3,2 °C 44 % 77 % 1009,5 hPa 0,0 l/m² 7,6 km/h (2 Bft) O-NO 74 ° 1 min 239 W/m² -6,6 °C -4,6 °C 14,5 km/h (3 Bft)
02.02.2026 13:07 22,1 °C -3,2 °C 44 % 77 % 1009,4 hPa 0,0 l/m² 6,8 km/h (2 Bft) NO 55 ° 2 min 239 W/m² -6,6 °C -3,6 °C 16,1 km/h (3 Bft)
02.02.2026 13:08 22,1 °C -3,1 °C 44 % 77 % 1009,4 hPa 0,0 l/m² 7,5 km/h (2 Bft) O-NO 70 ° 1 min 237 W/m² -6,5 °C -4,4 °C 16,1 km/h (3 Bft)
02.02.2026 13:09 22,1 °C -3,1 °C 44 % 77 % 1009,4 hPa 0,0 l/m² 9,5 km/h (2 Bft) NO 40 ° 1 min 236 W/m² -6,5 °C -6,4 °C 16,1 km/h (3 Bft)
02.02.2026 13:11 22,1 °C -3,1 °C 44 % 77 % 1009,4 hPa 0,0 l/m² 7,3 km/h (2 Bft) NO 47 ° 2 min 230 W/m² -6,5 °C -4,1 °C 14,5 km/h (3 Bft)
02.02.2026 13:12 22,1 °C -3,1 °C 44 % 77 % 1009,4 hPa 0,0 l/m² 13,0 km/h (3 Bft) O 80 ° 1 min 232 W/m² -6,5 °C -9,3 °C 19,3 km/h (3 Bft)
02.02.2026 13:13 22,1 °C -3,1 °C 44 % 77 % 1009,4 hPa 0,0 l/m² 9,7 km/h (2 Bft) O-NO 58 ° 1 min 232 W/m² -6,5 °C -6,6 °C 12,9 km/h (3 Bft)
02.02.2026 13:15 22,1 °C -3,0 °C 44 % 77 % 1009,5 hPa 0,0 l/m² 9,9 km/h (2 Bft) NO 51 ° 2 min 230 W/m² -6,4 °C -6,7 °C 16,1 km/h (3 Bft)
02.02.2026 13:17 22,1 °C -2,9 °C 44 % 76 % 1009,5 hPa 0,0 l/m² 13,3 km/h (3 Bft) NO 54 ° 2 min 227 W/m² -6,5 °C -9,3 °C 22,5 km/h (4 Bft)
02.02.2026 13:19 22,1 °C -2,9 °C 44 % 76 % 1009,4 hPa 0,0 l/m² 8,0 km/h (2 Bft) O 82 ° 2 min 221 W/m² -6,5 °C -4,7 °C 16,1 km/h (3 Bft)
02.02.2026 13:21 22,1 °C -2,9 °C 44 % 76 % 1009,3 hPa 0,0 l/m² 6,1 km/h (2 Bft) O-NO 60 ° 2 min 220 W/m² -6,5 °C -2,9 °C 17,7 km/h (3 Bft)
02.02.2026 13:22 22,1 °C -2,8 °C 44 % 76 % 1009,3 hPa 0,0 l/m² 8,3 km/h (2 Bft) NO 49 ° 1 min 218 W/m² -6,4 °C -4,9 °C 14,5 km/h (3 Bft)
02.02.2026 13:23 22,1 °C -2,8 °C 44 % 76 % 1009,3 hPa 0,0 l/m² 9,1 km/h (2 Bft) NO 46 ° 1 min 218 W/m² -6,4 °C -5,7 °C 12,9 km/h (3 Bft)
02.02.2026 13:25 22,1 °C -2,8 °C 44 % 76 % 1009,2 hPa 0,0 l/m² 8,7 km/h (2 Bft) O-NO 67 ° 2 min 214 W/m² -6,4 °C -5,3 °C 12,9 km/h (3 Bft)
02.02.2026 13:26 22,1 °C -2,8 °C 44 % 76 % 1009,3 hPa 0,0 l/m² 10,1 km/h (2 Bft) NO 47 ° 1 min 214 W/m² -6,4 °C -6,6 °C 17,7 km/h (3 Bft)
02.02.2026 13:28 22,1 °C -2,8 °C 44 % 76 % 1009,3 hPa 0,0 l/m² 9,8 km/h (2 Bft) O-NO 61 ° 2 min 214 W/m² -6,4 °C -6,4 °C 16,1 km/h (3 Bft)
02.02.2026 13:30 22,1 °C -2,8 °C 44 % 75 % 1009,3 hPa 0,0 l/m² 9,0 km/h (2 Bft) O-NO 70 ° 2 min 218 W/m² -6,6 °C -5,6 °C 17,7 km/h (3 Bft)
02.02.2026 13:33 22,1 °C -2,8 °C 44 % 75 % 1009,3 hPa 0,0 l/m² 10,1 km/h (2 Bft) NO 42 ° 3 min 220 W/m² -6,6 °C -6,6 °C 17,7 km/h (3 Bft)
02.02.2026 13:35 22,1 °C -2,8 °C 44 % 75 % 1009,3 hPa 0,0 l/m² 12,0 km/h (2 Bft) O-NO 58 ° 2 min 220 W/m² -6,6 °C -8,2 °C 19,3 km/h (3 Bft)
02.02.2026 13:37 22,1 °C -2,8 °C 44 % 75 % 1009,2 hPa 0,0 l/m² 11,9 km/h (2 Bft) N 5 ° 2 min 213 W/m² -6,6 °C -8,1 °C 20,9 km/h (4 Bft)
02.02.2026 13:39 22,1 °C -2,8 °C 44 % 75 % 1009,2 hPa 0,0 l/m² 9,8 km/h (2 Bft) O-NO 63 ° 2 min 207 W/m² -6,6 °C -6,4 °C 19,3 km/h (3 Bft)
02.02.2026 13:41 22,1 °C -2,9 °C 44 % 75 % 1009,2 hPa 0,0 l/m² 13,3 km/h (3 Bft) O 80 ° 2 min 202 W/m² -6,7 °C -9,3 °C 20,9 km/h (4 Bft)
02.02.2026 13:42 22,1 °C -2,9 °C 44 % 75 % 1009,3 hPa 0,0 l/m² 11,0 km/h (2 Bft) NO 54 ° 1 min 193 W/m² -6,7 °C -7,5 °C 17,7 km/h (3 Bft)
02.02.2026 13:43 22,1 °C -2,9 °C 44 % 75 % 1009,3 hPa 0,0 l/m² 12,5 km/h (2 Bft) O-NO 65 ° 1 min 190 W/m² -6,7 °C -8,7 °C 19,3 km/h (3 Bft)
02.02.2026 13:45 22,1 °C -3,0 °C 44 % 75 % 1009,4 hPa 0,0 l/m² 13,3 km/h (3 Bft) O 84 ° 2 min 185 W/m² -6,8 °C -9,4 °C 19,3 km/h (3 Bft)
02.02.2026 13:47 22,1 °C -3,1 °C 44 % 75 % 1009,5 hPa 0,0 l/m² 10,6 km/h (2 Bft) O 79 ° 2 min 181 W/m² -6,9 °C -7,4 °C 17,7 km/h (3 Bft)
02.02.2026 13:49 22,1 °C -3,0 °C 44 % 75 % 1009,5 hPa 0,0 l/m² 7,6 km/h (2 Bft) O-NO 60 ° 2 min 181 W/m² -6,8 °C -4,4 °C 16,1 km/h (3 Bft)
02.02.2026 13:51 22,1 °C -3,1 °C 44 % 76 % 1009,4 hPa 0,0 l/m² 11,5 km/h (2 Bft) NO 50 ° 2 min 181 W/m² -6,7 °C -8,2 °C 20,9 km/h (4 Bft)
02.02.2026 13:52 22,1 °C -3,1 °C 44 % 75 % 1009,4 hPa 0,0 l/m² 10,3 km/h (2 Bft) O 80 ° 1 min 179 W/m² -6,9 °C -7,1 °C 14,5 km/h (3 Bft)
02.02.2026 13:53 22,1 °C -3,1 °C 44 % 76 % 1009,4 hPa 0,0 l/m² 10,5 km/h (2 Bft) O-NO 59 ° 1 min 179 W/m² -6,7 °C -7,3 °C 14,5 km/h (3 Bft)
02.02.2026 13:55 22,1 °C -3,1 °C 44 % 76 % 1009,3 hPa 0,0 l/m² 16,0 km/h (3 Bft) O-NO 77 ° 2 min 178 W/m² -6,7 °C -11,4 °C 20,9 km/h (4 Bft)
02.02.2026 13:56 22,2 °C -3,3 °C 44 % 75 % 1009,3 hPa 0,0 l/m² 12,9 km/h (3 Bft) O-NO 63 ° 1 min 176 W/m² -7,1 °C -9,5 °C 16,1 km/h (3 Bft)
02.02.2026 13:57 22,2 °C -3,3 °C 44 % 75 % 1009,3 hPa 0,0 l/m² 7,4 km/h (2 Bft) NO 49 ° 1 min 174 W/m² -7,1 °C -4,4 °C 11,3 km/h (2 Bft)
02.02.2026 13:58 22,2 °C -3,3 °C 44 % 76 % 1009,3 hPa 0,0 l/m² 6,1 km/h (2 Bft) O-NO 71 ° 1 min 172 W/m² -6,9 °C -3,3 °C 8,0 km/h (2 Bft)
02.02.2026 14:00 22,1 °C -3,3 °C 44 % 76 % 1009,3 hPa 0,0 l/m² 8,9 km/h (2 Bft) O-NO 69 ° 2 min 165 W/m² -6,9 °C -6,0 °C 17,7 km/h (3 Bft)
02.02.2026 14:03 22,1 °C -3,3 °C 44 % 77 % 1009,4 hPa 0,0 l/m² 13,0 km/h (3 Bft) NO 39 ° 3 min 163 W/m² -6,7 °C -9,6 °C 19,3 km/h (3 Bft)
02.02.2026 14:05 22,2 °C -3,3 °C 44 % 76 % 1009,5 hPa 0,0 l/m² 9,5 km/h (2 Bft) O-NO 78 ° 2 min 160 W/m² -6,9 °C -6,6 °C 17,7 km/h (3 Bft)
02.02.2026 14:07 22,2 °C -3,3 °C 44 % 77 % 1009,5 hPa 0,0 l/m² 12,0 km/h (2 Bft) O-NO 69 ° 2 min 158 W/m² -6,7 °C -8,8 °C 19,3 km/h (3 Bft)
02.02.2026 14:09 22,2 °C -3,2 °C 44 % 76 % 1009,4 hPa 0,0 l/m² 10,5 km/h (2 Bft) O 82 ° 2 min 156 W/m² -6,8 °C -7,4 °C 17,7 km/h (3 Bft)
02.02.2026 14:11 22,2 °C -3,3 °C 44 % 76 % 1009,5 hPa 0,0 l/m² 7,9 km/h (2 Bft) O 96 ° 2 min 149 W/m² -6,9 °C -5,0 °C 14,5 km/h (3 Bft)
02.02.2026 14:12 22,2 °C -3,2 °C 44 % 76 % 1009,5 hPa 0,0 l/m² 12,6 km/h (3 Bft) O-NO 69 ° 1 min 148 W/m² -6,8 °C -9,2 °C 16,1 km/h (3 Bft)
02.02.2026 14:13 22,2 °C -3,2 °C 44 % 76 % 1009,4 hPa 0,0 l/m² 12,3 km/h (2 Bft) NO 45 ° 1 min 146 W/m² -6,8 °C -8,9 °C 19,3 km/h (3 Bft)
02.02.2026 14:14 22,2 °C -3,3 °C 44 % 76 % 1009,4 hPa 0,0 l/m² 10,9 km/h (2 Bft) O-NO 65 ° 1 min 144 W/m² -6,9 °C -7,9 °C 19,3 km/h (3 Bft)
02.02.2026 14:15 22,2 °C -3,3 °C 44 % 76 % 1009,5 hPa 0,0 l/m² 13,4 km/h (3 Bft) O 92 ° 1 min 144 W/m² -6,9 °C -9,9 °C 17,7 km/h (3 Bft)
02.02.2026 14:16 22,2 °C -3,3 °C 44 % 76 % 1009,4 hPa 0,0 l/m² 14,4 km/h (3 Bft) O 79 ° 1 min 144 W/m² -6,9 °C -10,6 °C 19,3 km/h (3 Bft)
02.02.2026 14:17 22,2 °C -3,3 °C 44 % 76 % 1009,5 hPa 0,0 l/m² 13,6 km/h (3 Bft) NO 55 ° 1 min 144 W/m² -6,9 °C -10,0 °C 16,1 km/h (3 Bft)
02.02.2026 14:18 22,2 °C -3,3 °C 44 % 76 % 1009,4 hPa 0,0 l/m² 8,2 km/h (2 Bft) NO 44 ° 1 min 144 W/m² -6,9 °C -5,3 °C 14,5 km/h (3 Bft)
02.02.2026 14:19 22,2 °C -3,3 °C 44 % 76 % 1009,5 hPa 0,0 l/m² 6,4 km/h (2 Bft) O-NO 67 ° 1 min 142 W/m² -6,9 °C -3,2 °C 9,7 km/h (2 Bft)
02.02.2026 14:21 22,1 °C -3,3 °C 44 % 76 % 1009,4 hPa 0,0 l/m² 7,9 km/h (2 Bft) O 84 ° 2 min 142 W/m² -6,9 °C -5,0 °C 14,5 km/h (3 Bft)
02.02.2026 14:23 22,1 °C -3,3 °C 44 % 76 % 1009,4 hPa 0,0 l/m² 9,1 km/h (2 Bft) O-NO 78 ° 2 min 142 W/m² -6,9 °C -6,2 °C 19,3 km/h (3 Bft)
02.02.2026 14:24 22,2 °C -3,3 °C 44 % 76 % 1009,4 hPa 0,0 l/m² 9,7 km/h (2 Bft) NO 49 ° 1 min 141 W/m² -6,9 °C -6,8 °C 16,1 km/h (3 Bft)
02.02.2026 14:25 22,1 °C -3,3 °C 44 % 76 % 1009,4 hPa 0,0 l/m² 11,1 km/h (2 Bft) NO 54 ° 1 min 139 W/m² -6,9 °C -8,1 °C 16,1 km/h (3 Bft)
02.02.2026 14:26 22,2 °C -3,4 °C 44 % 76 % 1009,4 hPa 0,0 l/m² 11,5 km/h (2 Bft) O-NO 71 ° 1 min 137 W/m² -7,0 °C -8,5 °C 17,7 km/h (3 Bft)
02.02.2026 14:27 22,2 °C -3,3 °C 44 % 76 % 1009,4 hPa 0,0 l/m² 14,1 km/h (3 Bft) O-NO 68 ° 1 min 137 W/m² -6,9 °C -10,4 °C 19,3 km/h (3 Bft)
02.02.2026 14:28 22,2 °C -3,4 °C 44 % 76 % 1009,4 hPa 0,0 l/m² 9,5 km/h (2 Bft) N 360 ° 1 min 137 W/m² -7,0 °C -6,7 °C 14,5 km/h (3 Bft)
02.02.2026 14:29 22,1 °C -3,4 °C 44 % 76 % 1009,3 hPa 0,0 l/m² 7,4 km/h (2 Bft) O-NO 61 ° 1 min 137 W/m² -7,0 °C -4,5 °C 14,5 km/h (3 Bft)
02.02.2026 14:31 22,2 °C -3,4 °C 44 % 76 % 1009,3 hPa 0,0 l/m² 12,0 km/h (2 Bft) O 81 ° 2 min 135 W/m² -7,0 °C -8,9 °C 22,5 km/h (4 Bft)
02.02.2026 14:33 22,1 °C -3,4 °C 44 % 76 % 1009,2 hPa 0,0 l/m² 6,8 km/h (2 Bft) O 86 ° 2 min 132 W/m² -7,0 °C -3,8 °C 12,9 km/h (3 Bft)
02.02.2026 14:34 22,1 °C -3,4 °C 44 % 76 % 1009,3 hPa 0,0 l/m² 12,2 km/h (2 Bft) O-NO 71 ° 1 min 128 W/m² -7,0 °C -9,1 °C 17,7 km/h (3 Bft)
02.02.2026 14:35 22,1 °C -3,4 °C 44 % 76 % 1009,3 hPa 0,0 l/m² 14,5 km/h (3 Bft) O-NO 73 ° 1 min 125 W/m² -7,0 °C -10,8 °C 22,5 km/h (4 Bft)
02.02.2026 14:36 22,2 °C -3,5 °C 44 % 76 % 1009,3 hPa 0,0 l/m² 15,1 km/h (3 Bft) O-NO 75 ° 1 min 123 W/m² -7,1 °C -11,3 °C 17,7 km/h (3 Bft)
02.02.2026 14:37 22,2 °C -3,6 °C 44 % 76 % 1009,3 hPa 0,0 l/m² 13,2 km/h (3 Bft) O 80 ° 1 min 121 W/m² -7,2 °C -10,1 °C 19,3 km/h (3 Bft)
02.02.2026 14:38 22,2 °C -3,6 °C 44 % 76 % 1009,3 hPa 0,0 l/m² 6,7 km/h (2 Bft) O 84 ° 1 min 120 W/m² -7,2 °C -3,9 °C 14,5 km/h (3 Bft)
02.02.2026 14:39 22,1 °C -3,6 °C 44 % 76 % 1009,3 hPa 0,0 l/m² 13,4 km/h (3 Bft) NO 50 ° 1 min 118 W/m² -7,2 °C -10,2 °C 17,7 km/h (3 Bft)
02.02.2026 14:41 22,1 °C -3,7 °C 44 % 77 % 1009,3 hPa 0,0 l/m² 10,2 km/h (2 Bft) O-NO 75 ° 2 min 120 W/m² -7,1 °C -7,7 °C 16,1 km/h (3 Bft)
02.02.2026 14:43 22,1 °C -3,7 °C 44 % 76 % 1009,3 hPa 0,0 l/m² 15,0 km/h (3 Bft) O-NO 57 ° 2 min 120 W/m² -7,3 °C -11,5 °C 20,9 km/h (4 Bft)
02.02.2026 14:44 22,1 °C -3,7 °C 44 % 76 % 1009,3 hPa 0,0 l/m² 10,5 km/h (2 Bft) O-NO 63 ° 1 min 120 W/m² -7,3 °C -8,0 °C 16,1 km/h (3 Bft)
02.02.2026 14:45 22,1 °C -3,7 °C 44 % 77 % 1009,3 hPa 0,0 l/m² 9,3 km/h (2 Bft) NO 37 ° 1 min 118 W/m² -7,1 °C -6,9 °C 12,9 km/h (3 Bft)
02.02.2026 14:46 22,1 °C -3,7 °C 44 % 77 % 1009,2 hPa 0,0 l/m² 5,1 km/h (1 Bft) NO 53 ° 1 min 114 W/m² -7,1 °C -3,7 °C 8,0 km/h (2 Bft)
02.02.2026 14:47 22,1 °C -3,7 °C 44 % 77 % 1009,2 hPa 0,0 l/m² 7,3 km/h (2 Bft) O-NO 63 ° 1 min 113 W/m² -7,1 °C -4,7 °C 12,9 km/h (3 Bft)
02.02.2026 14:48 22,1 °C -3,7 °C 44 % 77 % 1009,3 hPa 0,0 l/m² 10,4 km/h (2 Bft) O 82 ° 1 min 111 W/m² -7,1 °C -7,9 °C 17,7 km/h (3 Bft)
02.02.2026 14:49 22,2 °C -3,7 °C 44 % 77 % 1009,2 hPa 0,0 l/m² 16,6 km/h (3 Bft) O-NO 71 ° 1 min 109 W/m² -7,1 °C -12,5 °C 20,9 km/h (4 Bft)
02.02.2026 14:51 22,1 °C -3,7 °C 44 % 77 % 1009,2 hPa 0,0 l/m² 9,3 km/h (2 Bft) O 90 ° 2 min 105 W/m² -7,1 °C -6,9 °C 17,7 km/h (3 Bft)
02.02.2026 14:53 22,2 °C -3,7 °C 44 % 77 % 1009,3 hPa 0,0 l/m² 10,9 km/h (2 Bft) O-NO 78 ° 2 min 102 W/m² -7,1 °C -8,3 °C 20,9 km/h (4 Bft)
02.02.2026 14:54 22,2 °C -3,8 °C 44 % 77 % 1009,3 hPa 0,0 l/m² 16,8 km/h (3 Bft) O-NO 71 ° 1 min 102 W/m² -7,2 °C -12,7 °C 20,9 km/h (4 Bft)
02.02.2026 14:55 22,2 °C -3,8 °C 44 % 77 % 1009,3 hPa 0,0 l/m² 11,5 km/h (2 Bft) NO 43 ° 1 min 100 W/m² -7,2 °C -9,0 °C 14,5 km/h (3 Bft)
02.02.2026 14:56 22,1 °C -3,8 °C 44 % 77 % 1009,2 hPa 0,0 l/m² 11,9 km/h (2 Bft) O-NO 60 ° 1 min 98 W/m² -7,2 °C -9,3 °C 19,3 km/h (3 Bft)
02.02.2026 14:57 22,2 °C -3,8 °C 44 % 77 % 1009,2 hPa 0,0 l/m² 9,4 km/h (2 Bft) O-NO 64 ° 1 min 97 W/m² -7,2 °C -7,1 °C 16,1 km/h (3 Bft)
02.02.2026 14:58 22,1 °C -3,8 °C 44 % 77 % 1009,3 hPa 0,0 l/m² 8,1 km/h (2 Bft) O-NO 57 ° 1 min 91 W/m² -7,2 °C -5,7 °C 16,1 km/h (3 Bft)
02.02.2026 14:59 22,2 °C -3,8 °C 44 % 77 % 1009,3 hPa 0,0 l/m² 14,2 km/h (3 Bft) O-NO 66 ° 1 min 90 W/m² -7,2 °C -11,0 °C 19,3 km/h (3 Bft)
02.02.2026 15:01 22,1 °C -3,8 °C 44 % 77 % 1009,4 hPa 0,0 l/m² 16,1 km/h (3 Bft) O-NO 58 ° 2 min 88 W/m² -7,2 °C -12,3 °C 22,5 km/h (4 Bft)
02.02.2026 15:03 22,2 °C -3,8 °C 44 % 77 % 1009,4 hPa 0,0 l/m² 8,9 km/h (2 Bft) NO 45 ° 2 min 84 W/m² -7,2 °C -6,6 °C 17,7 km/h (3 Bft)
02.02.2026 15:04 22,2 °C -3,8 °C 44 % 77 % 1009,4 hPa 0,0 l/m² 10,5 km/h (2 Bft) O-NO 59 ° 1 min 83 W/m² -7,2 °C -8,1 °C 17,7 km/h (3 Bft)
02.02.2026 15:05 22,2 °C -3,8 °C 44 % 77 % 1009,4 hPa 0,0 l/m² 7,6 km/h (2 Bft) O-NO 77 ° 1 min 83 W/m² -7,2 °C -5,2 °C 14,5 km/h (3 Bft)
02.02.2026 15:06 22,1 °C -3,8 °C 44 % 77 % 1009,3 hPa 0,0 l/m² 7,8 km/h (2 Bft) NO 47 ° 1 min 81 W/m² -7,2 °C -5,4 °C 12,9 km/h (3 Bft)
02.02.2026 15:08 22,1 °C -3,8 °C 44 % 77 % 1009,3 hPa 0,0 l/m² 10,4 km/h (2 Bft) NO 40 ° 2 min 81 W/m² -7,2 °C -8,0 °C 17,7 km/h (3 Bft)
02.02.2026 15:09 22,1 °C -3,8 °C 44 % 77 % 1009,3 hPa 0,0 l/m² 6,2 km/h (2 Bft) O-NO 68 ° 1 min 81 W/m² -7,2 °C -3,8 °C 9,7 km/h (2 Bft)
02.02.2026 15:11 22,1 °C -3,8 °C 44 % 77 % 1009,3 hPa 0,0 l/m² 9,8 km/h (2 Bft) O-NO 59 ° 2 min 81 W/m² -7,2 °C -7,5 °C 16,1 km/h (3 Bft)
02.02.2026 15:13 22,1 °C -3,9 °C 44 % 77 % 1009,2 hPa 0,0 l/m² 10,5 km/h (2 Bft) O 79 ° 2 min 81 W/m² -7,3 °C -8,2 °C 19,3 km/h (3 Bft)
02.02.2026 15:14 22,1 °C -3,8 °C 44 % 77 % 1009,2 hPa 0,0 l/m² 9,5 km/h (2 Bft) O-NO 57 ° 1 min 81 W/m² -7,2 °C -7,2 °C 14,5 km/h (3 Bft)
02.02.2026 15:15 22,1 °C -3,8 °C 44 % 77 % 1009,2 hPa 0,0 l/m² 5,2 km/h (1 Bft) O 81 ° 1 min 81 W/m² -7,2 °C -3,8 °C 11,3 km/h (2 Bft)
02.02.2026 15:16 22,1 °C -3,9 °C 44 % 77 % 1009,2 hPa 0,0 l/m² 6,0 km/h (2 Bft) O-NO 66 ° 1 min 79 W/m² -7,3 °C -3,9 °C 14,5 km/h (3 Bft)
02.02.2026 15:17 22,1 °C -3,8 °C 44 % 77 % 1009,2 hPa 0,0 l/m² 7,1 km/h (2 Bft) O-NO 61 ° 1 min 79 W/m² -7,2 °C -4,6 °C 12,9 km/h (3 Bft)
02.02.2026 15:18 22,1 °C -3,9 °C 44 % 77 % 1009,2 hPa 0,0 l/m² 6,9 km/h (2 Bft) O-NO 61 ° 1 min 77 W/m² -7,3 °C -4,5 °C 12,9 km/h (3 Bft)
02.02.2026 15:19 22,1 °C -3,8 °C 44 % 77 % 1009,3 hPa 0,0 l/m² 13,6 km/h (3 Bft) NO 53 ° 1 min 77 W/m² -7,2 °C -10,6 °C 19,3 km/h (3 Bft)
02.02.2026 15:21 22,1 °C -3,8 °C 44 % 77 % 1009,2 hPa 0,0 l/m² 10,5 km/h (2 Bft) N-NO 32 ° 2 min 76 W/m² -7,2 °C -8,1 °C 16,1 km/h (3 Bft)
02.02.2026 15:23 22,1 °C -3,8 °C 44 % 77 % 1009,3 hPa 0,0 l/m² 9,0 km/h (2 Bft) N 5 ° 2 min 74 W/m² -7,2 °C -6,7 °C 19,3 km/h (3 Bft)
02.02.2026 15:24 22,1 °C -3,8 °C 44 % 77 % 1009,3 hPa 0,0 l/m² 13,2 km/h (3 Bft) NO 44 ° 1 min 72 W/m² -7,2 °C -10,3 °C 19,3 km/h (3 Bft)
02.02.2026 15:25 22,1 °C -3,8 °C 44 % 77 % 1009,3 hPa 0,0 l/m² 12,9 km/h (3 Bft) O-NO 70 ° 1 min 72 W/m² -7,2 °C -10,1 °C 16,1 km/h (3 Bft)
02.02.2026 15:26 22,1 °C -3,8 °C 44 % 77 % 1009,2 hPa 0,0 l/m² 9,6 km/h (2 Bft) O 101 ° 1 min 72 W/m² -7,2 °C -7,3 °C 12,9 km/h (3 Bft)
02.02.2026 15:27 22,1 °C -3,9 °C 44 % 77 % 1009,3 hPa 0,0 l/m² 7,5 km/h (2 Bft) NO 55 ° 1 min 70 W/m² -7,3 °C -5,2 °C 11,3 km/h (2 Bft)
02.02.2026 15:28 22,1 °C -3,8 °C 44 % 77 % 1009,5 hPa 0,0 l/m² 5,7 km/h (2 Bft) O-NO 65 ° 1 min 70 W/m² -7,2 °C -3,8 °C 11,3 km/h (2 Bft)
02.02.2026 15:29 22,1 °C -3,9 °C 44 % 78 % 1009,3 hPa 0,0 l/m² 3,9 km/h (1 Bft) O-NO 57 ° 1 min 69 W/m² -7,2 °C -3,9 °C 8,0 km/h (2 Bft)
02.02.2026 15:31 22,1 °C -3,9 °C 44 % 78 % 1009,3 hPa 0,0 l/m² 12,7 km/h (3 Bft) O 90 ° 2 min 69 W/m² -7,2 °C -10,0 °C 19,3 km/h (3 Bft)
02.02.2026 15:33 22,1 °C -3,9 °C 44 % 77 % 1009,5 hPa 0,0 l/m² 13,2 km/h (3 Bft) NO 40 ° 2 min 67 W/m² -7,3 °C -10,4 °C 19,3 km/h (3 Bft)
02.02.2026 15:34 22,1 °C -4,0 °C 44 % 77 % 1009,4 hPa 0,0 l/m² 11,9 km/h (2 Bft) O-NO 69 ° 1 min 67 W/m² -7,4 °C -9,5 °C 16,1 km/h (3 Bft)
02.02.2026 15:35 22,1 °C -4,0 °C 44 % 78 % 1009,4 hPa 0,0 l/m² 10,7 km/h (2 Bft) O-NO 71 ° 1 min 65 W/m² -7,3 °C -8,5 °C 16,1 km/h (3 Bft)
02.02.2026 15:36 22,1 °C -4,0 °C 44 % 77 % 1009,5 hPa 0,0 l/m² 12,2 km/h (2 Bft) NO 56 ° 1 min 65 W/m² -7,4 °C -9,8 °C 19,3 km/h (3 Bft)
02.02.2026 15:37 22,1 °C -4,1 °C 44 % 77 % 1009,5 hPa 0,0 l/m² 14,1 km/h (3 Bft) O 82 ° 1 min 63 W/m² -7,5 °C -11,3 °C 19,3 km/h (3 Bft)
02.02.2026 15:38 22,1 °C -4,1 °C 44 % 77 % 1009,5 hPa 0,0 l/m² 10,2 km/h (2 Bft) O 88 ° 1 min 63 W/m² -7,5 °C -8,2 °C 14,5 km/h (3 Bft)
02.02.2026 15:39 22,1 °C -4,1 °C 44 % 77 % 1009,6 hPa 0,0 l/m² 13,8 km/h (3 Bft) O-NO 78 ° 1 min 62 W/m² -7,5 °C -11,1 °C 16,1 km/h (3 Bft)
02.02.2026 15:41 22,1 °C -4,2 °C 44 % 78 % 1009,6 hPa 0,0 l/m² 15,8 km/h (3 Bft) O 81 ° 2 min 60 W/m² -7,4 °C -12,6 °C 20,9 km/h (4 Bft)
02.02.2026 15:43 22,1 °C -4,2 °C 44 % 78 % 1009,6 hPa 0,0 l/m² 9,9 km/h (2 Bft) N-NO 19 ° 2 min 60 W/m² -7,4 °C -8,0 °C 16,1 km/h (3 Bft)
02.02.2026 15:45 22,1 °C -4,2 °C 44 % 78 % 1009,6 hPa 0,0 l/m² 7,4 km/h (2 Bft) O-NO 57 ° 2 min 58 W/m² -7,4 °C -5,4 °C 14,5 km/h (3 Bft)
02.02.2026 15:46 22,1 °C -4,2 °C 44 % 78 % 1009,5 hPa 0,0 l/m² 9,6 km/h (2 Bft) O 81 ° 1 min 58 W/m² -7,4 °C -7,7 °C 16,1 km/h (3 Bft)
02.02.2026 15:47 22,1 °C -4,2 °C 44 % 78 % 1009,5 hPa 0,0 l/m² 13,0 km/h (3 Bft) NO 48 ° 1 min 58 W/m² -7,4 °C -10,6 °C 16,1 km/h (3 Bft)
02.02.2026 15:48 22,1 °C -4,2 °C 44 % 78 % 1009,5 hPa 0,0 l/m² 7,1 km/h (2 Bft) O-SO 103 ° 1 min 58 W/m² -7,4 °C -5,0 °C 9,7 km/h (2 Bft)
02.02.2026 15:49 22,1 °C -4,2 °C 44 % 78 % 1009,5 hPa 0,0 l/m² 7,4 km/h (2 Bft) O-NO 67 ° 1 min 58 W/m² -7,4 °C -5,4 °C 11,3 km/h (2 Bft)
02.02.2026 15:51 22,1 °C -4,2 °C 44 % 78 % 1009,4 hPa 0,0 l/m² 11,7 km/h (2 Bft) O-NO 59 ° 2 min 56 W/m² -7,4 °C -9,6 °C 19,3 km/h (3 Bft)
02.02.2026 15:53 22,1 °C -4,2 °C 44 % 78 % 1009,4 hPa 0,0 l/m² 14,2 km/h (3 Bft) NO 55 ° 2 min 56 W/m² -7,4 °C -11,5 °C 24,1 km/h (4 Bft)
02.02.2026 15:54 22,1 °C -4,2 °C 44 % 78 % 1009,4 hPa 0,0 l/m² 9,4 km/h (2 Bft) O-NO 68 ° 1 min 56 W/m² -7,4 °C -7,5 °C 19,3 km/h (3 Bft)
02.02.2026 15:55 22,1 °C -4,2 °C 44 % 78 % 1009,3 hPa 0,0 l/m² 8,3 km/h (2 Bft) NO 49 ° 1 min 54 W/m² -7,4 °C -6,4 °C 12,9 km/h (3 Bft)
02.02.2026 15:56 22,1 °C -4,2 °C 44 % 78 % 1009,4 hPa 0,0 l/m² 12,2 km/h (2 Bft) NO 49 ° 0 min 51 W/m² -7,4 °C -10,0 °C 19,3 km/h (3 Bft)
02.02.2026 15:57 22,1 °C -4,2 °C 44 % 78 % 1009,4 hPa 0,0 l/m² 12,1 km/h (2 Bft) NO 37 ° 0 min 51 W/m² -7,4 °C -9,9 °C 17,7 km/h (3 Bft)
02.02.2026 15:58 22,1 °C -4,2 °C 44 % 78 % 1009,4 hPa 0,0 l/m² 6,9 km/h (2 Bft) O 86 ° 0 min 51 W/m² -7,4 °C -4,8 °C 9,7 km/h (2 Bft)
02.02.2026 15:59 22,1 °C -4,2 °C 44 % 78 % 1009,3 hPa 0,0 l/m² 13,9 km/h (3 Bft) O-NO 72 ° 0 min 49 W/m² -7,4 °C -11,3 °C 20,9 km/h (4 Bft)
02.02.2026 16:01 22,1 °C -4,2 °C 44 % 78 % 1009,3 hPa 0,0 l/m² 8,4 km/h (2 Bft) O-NO 73 ° 0 min 46 W/m² -7,4 °C -6,5 °C 19,3 km/h (3 Bft)
02.02.2026 16:03 22,1 °C -4,2 °C 44 % 78 % 1009,3 hPa 0,0 l/m² 11,2 km/h (2 Bft) O 79 ° 0 min 42 W/m² -7,4 °C -9,2 °C 20,9 km/h (4 Bft)
02.02.2026 16:04 22,1 °C -4,2 °C 44 % 78 % 1009,2 hPa 0,0 l/m² 9,9 km/h (2 Bft) NO 45 ° 0 min 40 W/m² -7,4 °C -8,0 °C 16,1 km/h (3 Bft)
02.02.2026 16:05 22,1 °C -4,2 °C 44 % 78 % 1009,2 hPa 0,0 l/m² 9,0 km/h (2 Bft) O 79 ° 0 min 40 W/m² -7,4 °C -7,1 °C 14,5 km/h (3 Bft)
02.02.2026 16:06 22,1 °C -4,2 °C 44 % 78 % 1009,2 hPa 0,0 l/m² 11,2 km/h (2 Bft) NO 42 ° 0 min 39 W/m² -7,4 °C -9,2 °C 17,7 km/h (3 Bft)
02.02.2026 16:07 22,1 °C -4,2 °C 44 % 78 % 1009,2 hPa 0,0 l/m² 8,5 km/h (2 Bft) NO 42 ° 0 min 37 W/m² -7,4 °C -6,6 °C 16,1 km/h (3 Bft)
02.02.2026 16:08 22,1 °C -4,2 °C 44 % 78 % 1009,2 hPa 0,0 l/m² 10,5 km/h (2 Bft) O-NO 75 ° 0 min 35 W/m² -7,4 °C -8,6 °C 14,5 km/h (3 Bft)
02.02.2026 16:09 22,1 °C -4,2 °C 44 % 78 % 1009,2 hPa 0,0 l/m² 9,1 km/h (2 Bft) O-NO 58 ° 0 min 33 W/m² -7,4 °C -7,2 °C 16,1 km/h (3 Bft)
02.02.2026 16:11 22,1 °C -4,2 °C 44 % 78 % 1009,3 hPa 0,0 l/m² 9,2 km/h (2 Bft) O-NO 62 ° 0 min 32 W/m² -7,4 °C -7,3 °C 17,7 km/h (3 Bft)
02.02.2026 16:13 22,1 °C -4,2 °C 44 % 78 % 1009,3 hPa 0,0 l/m² 9,8 km/h (2 Bft) NO 56 ° 0 min 30 W/m² -7,4 °C -7,9 °C 16,1 km/h (3 Bft)
02.02.2026 16:14 22,1 °C -4,2 °C 44 % 79 % 1009,3 hPa 0,0 l/m² 6,1 km/h (2 Bft) NO 46 ° 0 min 28 W/m² -7,3 °C -4,2 °C 8,0 km/h (2 Bft)
02.02.2026 16:15 22,1 °C -4,2 °C 44 % 79 % 1009,3 hPa 0,0 l/m² 9,3 km/h (2 Bft) N-NO 26 ° 0 min 28 W/m² -7,3 °C -7,4 °C 14,5 km/h (3 Bft)
02.02.2026 16:16 22,1 °C -4,2 °C 44 % 79 % 1009,3 hPa 0,0 l/m² 9,9 km/h (2 Bft) O-NO 72 ° 0 min 26 W/m² -7,3 °C -8,0 °C 19,3 km/h (3 Bft)
02.02.2026 16:17 22,1 °C -4,2 °C 44 % 79 % 1009,3 hPa 0,0 l/m² 12,3 km/h (2 Bft) NO 53 ° 0 min 26 W/m² -7,3 °C -10,1 °C 16,1 km/h (3 Bft)
02.02.2026 16:18 22,1 °C -4,2 °C 44 % 79 % 1009,3 hPa 0,0 l/m² 10,4 km/h (2 Bft) NO 53 ° 0 min 26 W/m² -7,3 °C -8,5 °C 19,3 km/h (3 Bft)
02.02.2026 16:19 22,1 °C -4,3 °C 44 % 79 % 1009,3 hPa 0,0 l/m² 14,7 km/h (3 Bft) O-NO 60 ° 0 min 25 W/m² -7,4 °C -12,0 °C 19,3 km/h (3 Bft)
02.02.2026 16:21 22,1 °C -4,3 °C 44 % 78 % 1009,3 hPa 0,0 l/m² 11,5 km/h (2 Bft) O-NO 71 ° 0 min 21 W/m² -7,5 °C -9,5 °C 17,7 km/h (3 Bft)
02.02.2026 16:23 22,1 °C -4,3 °C 44 % 78 % 1009,3 hPa 0,0 l/m² 6,1 km/h (2 Bft) NO 53 ° 0 min 21 W/m² -7,5 °C -4,3 °C 14,5 km/h (3 Bft)
02.02.2026 16:24 22,1 °C -4,3 °C 44 % 78 % 1009,2 hPa 0,0 l/m² 10,5 km/h (2 Bft) O 101 ° 0 min 19 W/m² -7,5 °C -8,7 °C 16,1 km/h (3 Bft)
02.02.2026 16:25 22,1 °C -4,3 °C 44 % 78 % 1009,4 hPa 0,0 l/m² 4,2 km/h (1 Bft) N-NO 30 ° 0 min 19 W/m² -7,5 °C -4,3 °C 6,4 km/h (2 Bft)
02.02.2026 16:26 22,1 °C -4,3 °C 44 % 79 % 1009,4 hPa 0,0 l/m² 6,4 km/h (2 Bft) NO 44 ° 0 min 19 W/m² -7,4 °C -4,2 °C 9,7 km/h (2 Bft)
02.02.2026 16:27 22,1 °C -4,4 °C 44 % 79 % 1009,4 hPa 0,0 l/m² 10,9 km/h (2 Bft) NO 39 ° 0 min 19 W/m² -7,5 °C -9,1 °C 16,1 km/h (3 Bft)
02.02.2026 16:28 22,1 °C -4,4 °C 44 % 79 % 1009,4 hPa 0,0 l/m² 9,2 km/h (2 Bft) N-NO 30 ° 0 min 19 W/m² -7,5 °C -7,5 °C 12,9 km/h (3 Bft)
02.02.2026 16:29 22,1 °C -4,4 °C 44 % 79 % 1009,3 hPa 0,0 l/m² 9,7 km/h (2 Bft) NO 49 ° 0 min 18 W/m² -7,5 °C -8,0 °C 16,1 km/h (3 Bft)
02.02.2026 16:31 22,1 °C -4,4 °C 44 % 79 % 1009,3 hPa 0,0 l/m² 10,3 km/h (2 Bft) N-NO 16 ° 0 min 16 W/m² -7,5 °C -8,6 °C 17,7 km/h (3 Bft)
02.02.2026 16:33 22,1 °C -4,4 °C 44 % 79 % 1009,4 hPa 0,0 l/m² 12,1 km/h (2 Bft) NO 38 ° 0 min 14 W/m² -7,5 °C -10,1 °C 19,3 km/h (3 Bft)
02.02.2026 16:34 22,1 °C -4,4 °C 44 % 78 % 1009,4 hPa 0,0 l/m² 11,4 km/h (2 Bft) O-NO 65 ° 0 min 14 W/m² -7,6 °C -9,6 °C 14,5 km/h (3 Bft)
02.02.2026 16:35 22,1 °C -4,5 °C 44 % 78 % 1009,5 hPa 0,0 l/m² 9,1 km/h (2 Bft) NO 53 ° 0 min 12 W/m² -7,7 °C -7,5 °C 16,1 km/h (3 Bft)
02.02.2026 16:36 22,1 °C -4,5 °C 44 % 78 % 1009,5 hPa 0,0 l/m² 7,5 km/h (2 Bft) NO 51 ° 0 min 12 W/m² -7,7 °C -5,8 °C 17,7 km/h (3 Bft)
02.02.2026 16:37 22,1 °C -4,5 °C 44 % 78 % 1009,5 hPa 0,0 l/m² 8,6 km/h (2 Bft) O-NO 62 ° 0 min 11 W/m² -7,7 °C -7,0 °C 17,7 km/h (3 Bft)
02.02.2026 16:38 22,1 °C -4,6 °C 44 % 79 % 1009,5 hPa 0,0 l/m² 8,6 km/h (2 Bft) O-NO 60 ° 0 min 11 W/m² -7,7 °C -7,1 °C 12,9 km/h (3 Bft)
02.02.2026 16:39 22,1 °C -4,6 °C 44 % 79 % 1009,6 hPa 0,0 l/m² 3,6 km/h (1 Bft) NO 40 ° 0 min 11 W/m² -7,7 °C -4,6 °C 6,4 km/h (2 Bft)
02.02.2026 16:41 22,1 °C -4,6 °C 44 % 79 % 1009,5 hPa 0,0 l/m² 5,6 km/h (2 Bft) NO 43 ° 0 min 11 W/m² -7,7 °C -4,6 °C 11,3 km/h (2 Bft)
02.02.2026 16:43 22,1 °C -4,6 °C 44 % 79 % 1009,7 hPa 0,0 l/m² 6,5 km/h (2 Bft) N-NO 23 ° 0 min 9 W/m² -7,7 °C -4,7 °C 14,5 km/h (3 Bft)
02.02.2026 16:44 22,1 °C -4,6 °C 44 % 79 % 1009,5 hPa 0,0 l/m² 9,7 km/h (2 Bft) N-NO 21 ° 0 min 9 W/m² -7,7 °C -8,2 °C 12,9 km/h (3 Bft)
02.02.2026 16:45 22,1 °C -4,6 °C 44 % 79 % 1009,6 hPa 0,0 l/m² 6,9 km/h (2 Bft) NO 53 ° 0 min 7 W/m² -7,7 °C -5,2 °C 16,1 km/h (3 Bft)
02.02.2026 16:46 22,1 °C -4,6 °C 44 % 79 % 1009,5 hPa 0,0 l/m² 13,6 km/h (3 Bft) N-NO 30 ° 0 min 7 W/m² -7,7 °C -11,6 °C 19,3 km/h (3 Bft)
02.02.2026 16:47 22,1 °C -4,6 °C 44 % 79 % 1009,5 hPa 0,0 l/m² 9,7 km/h (2 Bft) N-NO 28 ° 0 min 7 W/m² -7,7 °C -8,2 °C 14,5 km/h (3 Bft)
02.02.2026 16:48 22,2 °C -4,6 °C 44 % 79 % 1009,5 hPa 0,0 l/m² 8,5 km/h (2 Bft) N-NO 31 ° 0 min 7 W/m² -7,7 °C -7,0 °C 12,9 km/h (3 Bft)
02.02.2026 16:49 22,1 °C -4,6 °C 44 % 79 % 1009,5 hPa 0,0 l/m² 10,4 km/h (2 Bft) NO 39 ° 0 min 5 W/m² -7,7 °C -8,9 °C 12,9 km/h (3 Bft)
02.02.2026 16:51 22,1 °C -4,7 °C 44 % 79 % 1009,5 hPa 0,0 l/m² 6,1 km/h (2 Bft) NO 42 ° 0 min 5 W/m² -7,8 °C -4,7 °C 12,9 km/h (3 Bft)
02.02.2026 16:53 22,1 °C -4,7 °C 44 % 79 % 1009,5 hPa 0,0 l/m² 5,6 km/h (2 Bft) O-NO 69 ° 0 min 5 W/m² -7,8 °C -4,7 °C 9,7 km/h (2 Bft)
02.02.2026 16:54 22,1 °C -4,7 °C 44 % 79 % 1009,6 hPa 0,0 l/m² 7,8 km/h (2 Bft) NO 42 ° 0 min 5 W/m² -7,8 °C -6,4 °C 12,9 km/h (3 Bft)
02.02.2026 16:55 22,1 °C -4,7 °C 44 % 79 % 1009,6 hPa 0,0 l/m² 4,9 km/h (1 Bft) O-NO 75 ° 0 min 0 W/m² -7,8 °C -4,7 °C 9,7 km/h (2 Bft)
02.02.2026 16:56 22,1 °C -4,7 °C 44 % 79 % 1009,6 hPa 0,0 l/m² 5,7 km/h (2 Bft) NO 42 ° 0 min 0 W/m² -7,8 °C -4,7 °C 8,0 km/h (2 Bft)
02.02.2026 16:57 22,1 °C -4,7 °C 44 % 79 % 1009,6 hPa 0,0 l/m² 5,7 km/h (2 Bft) N-NO 32 ° 0 min 0 W/m² -7,8 °C -4,7 °C 8,0 km/h (2 Bft)
02.02.2026 16:58 22,1 °C -4,7 °C 44 % 79 % 1009,5 hPa 0,0 l/m² 4,8 km/h (1 Bft) N 9 ° 0 min 0 W/m² -7,8 °C -4,7 °C 6,4 km/h (2 Bft)
02.02.2026 16:59 22,1 °C -4,7 °C 44 % 79 % 1009,5 hPa 0,0 l/m² 5,5 km/h (2 Bft) O-NO 61 ° 0 min 0 W/m² -7,8 °C -4,7 °C 11,3 km/h (2 Bft)
02.02.2026 17:01 22,1 °C -4,7 °C 44 % 79 % 1009,5 hPa 0,0 l/m² 6,6 km/h (2 Bft) NO 49 ° 0 min 0 W/m² -7,8 °C -4,9 °C 12,9 km/h (3 Bft)
02.02.2026 17:03 22,1 °C -4,7 °C 44 % 79 % 1009,5 hPa 0,0 l/m² 6,3 km/h (2 Bft) N-NO 24 ° 0 min 0 W/m² -7,8 °C -4,7 °C 12,9 km/h (3 Bft)
02.02.2026 17:04 22,1 °C -4,7 °C 44 % 79 % 1009,5 hPa 0,0 l/m² 7,3 km/h (2 Bft) O-NO 67 ° 0 min 0 W/m² -7,8 °C -5,8 °C 14,5 km/h (3 Bft)
02.02.2026 17:05 22,1 °C -4,8 °C 44 % 79 % 1009,5 hPa 0,0 l/m² 6,7 km/h (2 Bft) N-NO 27 ° 0 min 0 W/m² -7,9 °C -5,1 °C 11,3 km/h (2 Bft)
02.02.2026 17:07 22,1 °C -4,8 °C 44 % 79 % 1009,5 hPa 0,0 l/m² 8,9 km/h (2 Bft) NO 36 ° 0 min 0 W/m² -7,9 °C -7,7 °C 14,5 km/h (3 Bft)
02.02.2026 17:08 22,1 °C -4,8 °C 44 % 79 % 1009,5 hPa 0,0 l/m² 9,1 km/h (2 Bft) N-NO 30 ° 0 min 0 W/m² -7,9 °C -7,9 °C 14,5 km/h (3 Bft)
02.02.2026 17:09 22,1 °C -4,8 °C 44 % 79 % 1009,5 hPa 0,0 l/m² 3,9 km/h (1 Bft) O-NO 62 ° 0 min 0 W/m² -7,9 °C -4,8 °C 9,7 km/h (2 Bft)
02.02.2026 17:11 22,1 °C -4,8 °C 44 % 79 % 1009,6 hPa 0,0 l/m² 6,8 km/h (2 Bft) O-NO 65 ° 0 min 0 W/m² -7,9 °C -5,3 °C 11,3 km/h (2 Bft)
02.02.2026 17:13 22,1 °C -4,8 °C 44 % 79 % 1009,5 hPa 0,0 l/m² 6,5 km/h (2 Bft) O-NO 75 ° 0 min 0 W/m² -7,9 °C -4,9 °C 14,5 km/h (3 Bft)
02.02.2026 17:14 22,2 °C -4,8 °C 44 % 79 % 1009,5 hPa 0,0 l/m² 4,3 km/h (1 Bft) NO 51 ° 0 min 0 W/m² -7,9 °C -4,8 °C 6,4 km/h (2 Bft)
02.02.2026 17:15 22,2 °C -4,9 °C 44 % 80 % 1009,5 hPa 0,0 l/m² 7,5 km/h (2 Bft) NO 37 ° 0 min 0 W/m² -7,8 °C -6,2 °C 12,9 km/h (3 Bft)
02.02.2026 17:16 22,1 °C -4,8 °C 44 % 80 % 1009,6 hPa 0,0 l/m² 3,0 km/h (1 Bft) O-NO 61 ° 0 min 0 W/m² -7,7 °C -4,8 °C 9,7 km/h (2 Bft)
02.02.2026 17:17 22,1 °C -4,8 °C 44 % 79 % 1009,7 hPa 0,0 l/m² 4,5 km/h (1 Bft) NO 35 ° 0 min 0 W/m² -7,9 °C -4,8 °C 8,0 km/h (2 Bft)
02.02.2026 17:18 22,1 °C -4,8 °C 44 % 79 % 1009,7 hPa 0,0 l/m² 11,2 km/h (2 Bft) NO 46 ° 0 min 0 W/m² -7,9 °C -9,8 °C 16,1 km/h (3 Bft)
02.02.2026 17:19 22,1 °C -4,9 °C 44 % 79 % 1009,6 hPa 0,0 l/m² 7,2 km/h (2 Bft) NO 46 ° 0 min 0 W/m² -8,0 °C -5,9 °C 12,9 km/h (3 Bft)
02.02.2026 17:21 22,1 °C -4,8 °C 44 % 79 % 1009,7 hPa 0,0 l/m² 6,5 km/h (2 Bft) O 84 ° 0 min 0 W/m² -7,9 °C -4,9 °C 12,9 km/h (3 Bft)
02.02.2026 17:23 22,1 °C -4,9 °C 44 % 80 % 1009,7 hPa 0,0 l/m² 5,8 km/h (2 Bft) O-NO 57 ° 0 min 0 W/m² -7,8 °C -4,9 °C 12,9 km/h (3 Bft)
02.02.2026 17:24 22,1 °C -4,9 °C 44 % 80 % 1009,6 hPa 0,0 l/m² 5,2 km/h (1 Bft) NO 54 ° 0 min 0 W/m² -7,8 °C -4,9 °C 8,0 km/h (2 Bft)
02.02.2026 17:25 22,1 °C -4,9 °C 44 % 80 % 1009,5 hPa 0,0 l/m² 4,2 km/h (1 Bft) N-NO 28 ° 0 min 0 W/m² -7,8 °C -4,9 °C 8,0 km/h (2 Bft)
02.02.2026 17:26 22,1 °C -4,9 °C 44 % 80 % 1009,5 hPa 0,0 l/m² 8,4 km/h (2 Bft) O-NO 57 ° 0 min 0 W/m² -7,8 °C -7,2 °C 14,5 km/h (3 Bft)
02.02.2026 17:27 22,1 °C -4,9 °C 44 % 80 % 1009,5 hPa 0,0 l/m² 5,3 km/h (1 Bft) O-NO 73 ° 0 min 0 W/m² -7,8 °C -4,9 °C 6,4 km/h (2 Bft)
02.02.2026 17:28 22,1 °C -4,9 °C 44 % 80 % 1009,5 hPa 0,0 l/m² 5,2 km/h (1 Bft) NO 51 ° 0 min 0 W/m² -7,8 °C -4,9 °C 8,0 km/h (2 Bft)
02.02.2026 17:29 22,1 °C -4,9 °C 44 % 80 % 1009,4 hPa 0,0 l/m² 11,9 km/h (2 Bft) N-NO 27 ° 0 min 0 W/m² -7,8 °C -10,6 °C 17,7 km/h (3 Bft)
02.02.2026 17:31 22,1 °C -4,9 °C 44 % 80 % 1009,5 hPa 0,0 l/m² 7,8 km/h (2 Bft) O-NO 58 ° 0 min 0 W/m² -7,8 °C -6,6 °C 14,5 km/h (3 Bft)
02.02.2026 17:33 22,1 °C -4,9 °C 44 % 80 % 1009,5 hPa 0,0 l/m² 8,6 km/h (2 Bft) NO 40 ° 0 min 0 W/m² -7,8 °C -7,4 °C 19,3 km/h (3 Bft)
02.02.2026 17:34 22,1 °C -4,9 °C 44 % 80 % 1009,6 hPa 0,0 l/m² 11,6 km/h (2 Bft) O-NO 58 ° 0 min 0 W/m² -7,8 °C -10,3 °C 16,1 km/h (3 Bft)
02.02.2026 17:35 22,1 °C -4,9 °C 44 % 80 % 1009,6 hPa 0,0 l/m² 8,7 km/h (2 Bft) O-NO 74 ° 0 min 0 W/m² -7,8 °C -7,6 °C 14,5 km/h (3 Bft)
02.02.2026 17:36 22,1 °C -4,9 °C 44 % 80 % 1009,5 hPa 0,0 l/m² 5,9 km/h (2 Bft) NO 46 ° 0 min 0 W/m² -7,8 °C -4,9 °C 9,7 km/h (2 Bft)
02.02.2026 17:37 22,1 °C -4,9 °C 44 % 80 % 1009,6 hPa 0,0 l/m² 4,3 km/h (1 Bft) O-NO 59 ° 0 min 0 W/m² -7,8 °C -4,9 °C 8,0 km/h (2 Bft)
02.02.2026 17:38 22,1 °C -4,9 °C 44 % 80 % 1009,5 hPa 0,0 l/m² 5,4 km/h (2 Bft) NO 50 ° 0 min 0 W/m² -7,8 °C -4,9 °C 14,5 km/h (3 Bft)
02.02.2026 17:39 22,1 °C -4,9 °C 44 % 80 % 1009,6 hPa 0,0 l/m² 5,8 km/h (2 Bft) NO 43 ° 0 min 0 W/m² -7,8 °C -4,9 °C 11,3 km/h (2 Bft)
02.02.2026 17:41 22,1 °C -5,0 °C 44 % 80 % 1009,6 hPa 0,0 l/m² 5,6 km/h (2 Bft) O-NO 64 ° 0 min 0 W/m² -7,9 °C -5,0 °C 9,7 km/h (2 Bft)
02.02.2026 17:43 22,1 °C -5,0 °C 44 % 80 % 1009,8 hPa 0,0 l/m² 4,4 km/h (1 Bft) N-NO 25 ° 0 min 0 W/m² -7,9 °C -5,0 °C 9,7 km/h (2 Bft)
02.02.2026 17:44 22,1 °C -5,0 °C 44 % 80 % 1009,9 hPa 0,0 l/m² 5,0 km/h (1 Bft) O 90 ° 0 min 0 W/m² -7,9 °C -5,0 °C 8,0 km/h (2 Bft)
02.02.2026 17:45 22,1 °C -5,0 °C 44 % 80 % 1009,9 hPa 0,0 l/m² 4,0 km/h (1 Bft) N-NO 16 ° 0 min 0 W/m² -7,9 °C -5,0 °C 6,4 km/h (2 Bft)
02.02.2026 17:46 22,1 °C -5,0 °C 44 % 80 % 1009,9 hPa 0,0 l/m² 3,9 km/h (1 Bft) O 84 ° 0 min 0 W/m² -7,9 °C -5,0 °C 6,4 km/h (2 Bft)
02.02.2026 17:47 22,1 °C -5,0 °C 44 % 80 % 1009,8 hPa 0,0 l/m² 6,7 km/h (2 Bft) O-SO 102 ° 0 min 0 W/m² -7,9 °C -5,3 °C 14,5 km/h (3 Bft)
02.02.2026 17:48 22,1 °C -5,0 °C 44 % 80 % 1009,9 hPa 0,0 l/m² 5,5 km/h (2 Bft) O-NO 70 ° 0 min 0 W/m² -7,9 °C -5,0 °C 11,3 km/h (2 Bft)
02.02.2026 17:49 22,1 °C -5,0 °C 44 % 80 % 1009,9 hPa 0,0 l/m² 5,8 km/h (2 Bft) NO 44 ° 0 min 0 W/m² -7,9 °C -5,0 °C 9,7 km/h (2 Bft)
02.02.2026 17:51 22,1 °C -5,0 °C 44 % 80 % 1009,9 hPa 0,0 l/m² 11,5 km/h (2 Bft) O-NO 74 ° 0 min 0 W/m² -7,9 °C -10,3 °C 20,9 km/h (4 Bft)
02.02.2026 17:53 22,1 °C -5,0 °C 44 % 80 % 1009,8 hPa 0,0 l/m² 9,5 km/h (2 Bft) O 86 ° 0 min 0 W/m² -7,9 °C -8,5 °C 16,1 km/h (3 Bft)
02.02.2026 17:54 22,1 °C -5,0 °C 44 % 80 % 1009,9 hPa 0,0 l/m² 12,1 km/h (2 Bft) O 92 ° 0 min 0 W/m² -7,9 °C -10,8 °C 16,1 km/h (3 Bft)
02.02.2026 17:55 22,1 °C -5,0 °C 44 % 80 % 1009,7 hPa 0,0 l/m² 9,3 km/h (2 Bft) O-NO 68 ° 0 min 0 W/m² -7,9 °C -8,3 °C 14,5 km/h (3 Bft)
02.02.2026 17:56 22,1 °C -5,0 °C 44 % 80 % 1009,8 hPa 0,0 l/m² 12,9 km/h (3 Bft) O 80 ° 0 min 0 W/m² -7,9 °C -11,5 °C 16,1 km/h (3 Bft)
02.02.2026 17:57 22,1 °C -5,0 °C 44 % 80 % 1009,7 hPa 0,0 l/m² 9,1 km/h (2 Bft) O-NO 61 ° 0 min 0 W/m² -7,9 °C -8,1 °C 12,9 km/h (3 Bft)
02.02.2026 17:58 22,1 °C -5,0 °C 44 % 80 % 1009,8 hPa 0,0 l/m² 10,1 km/h (2 Bft) N-NO 33 ° 0 min 0 W/m² -7,9 °C -9,1 °C 17,7 km/h (3 Bft)
02.02.2026 17:59 22,1 °C -5,1 °C 44 % 80 % 1009,8 hPa 0,0 l/m² 8,9 km/h (2 Bft) NO 37 ° 0 min 0 W/m² -8,0 °C -8,0 °C 14,5 km/h (3 Bft)
02.02.2026 18:01 22,1 °C -5,1 °C 44 % 80 % 1009,9 hPa 0,0 l/m² 12,2 km/h (2 Bft) NO 53 ° 0 min 0 W/m² -8,0 °C -11,0 °C 20,9 km/h (4 Bft)
02.02.2026 18:03 22,1 °C -5,1 °C 44 % 80 % 1010,0 hPa 0,0 l/m² 10,1 km/h (2 Bft) NO 38 ° 0 min 0 W/m² -8,0 °C -9,2 °C 14,5 km/h (3 Bft)
02.02.2026 18:04 22,1 °C -5,0 °C 44 % 80 % 1010,0 hPa 0,0 l/m² 9,3 km/h (2 Bft) NO 45 ° 0 min 0 W/m² -7,9 °C -8,3 °C 19,3 km/h (3 Bft)
02.02.2026 18:05 22,1 °C -5,1 °C 44 % 80 % 1010,0 hPa 0,0 l/m² 6,1 km/h (2 Bft) NO 36 ° 0 min 0 W/m² -8,0 °C -5,1 °C 11,3 km/h (2 Bft)
02.02.2026 18:06 22,1 °C -5,1 °C 44 % 80 % 1010,0 hPa 0,0 l/m² 8,0 km/h (2 Bft) N-NO 19 ° 0 min 0 W/m² -8,0 °C -7,0 °C 14,5 km/h (3 Bft)
02.02.2026 18:07 22,1 °C -5,1 °C 44 % 80 % 1010,0 hPa 0,0 l/m² 14,0 km/h (3 Bft) NO 43 ° 0 min 0 W/m² -8,0 °C -12,4 °C 19,3 km/h (3 Bft)
02.02.2026 18:08 22,1 °C -5,1 °C 44 % 80 % 1010,0 hPa 0,0 l/m² 13,2 km/h (3 Bft) N 360 ° 0 min 0 W/m² -8,0 °C -11,8 °C 17,7 km/h (3 Bft)
02.02.2026 18:09 22,1 °C -5,1 °C 44 % 80 % 1009,9 hPa 0,0 l/m² 8,9 km/h (2 Bft) O-NO 63 ° 0 min 0 W/m² -8,0 °C -8,0 °C 14,5 km/h (3 Bft)
02.02.2026 18:11 22,1 °C -5,1 °C 44 % 80 % 1010,0 hPa 0,0 l/m² 7,9 km/h (2 Bft) NO 53 ° 0 min 0 W/m² -8,0 °C -6,9 °C 16,1 km/h (3 Bft)
02.02.2026 18:13 22,1 °C -5,1 °C 44 % 80 % 1009,9 hPa 0,0 l/m² 11,7 km/h (2 Bft) N-NO 14 ° 0 min 0 W/m² -8,0 °C -10,6 °C 17,7 km/h (3 Bft)
02.02.2026 18:14 22,1 °C -5,1 °C 44 % 80 % 1009,9 hPa 0,0 l/m² 6,3 km/h (2 Bft) NO 38 ° 0 min 0 W/m² -8,0 °C -5,1 °C 14,5 km/h (3 Bft)
02.02.2026 18:15 22,1 °C -5,1 °C 44 % 80 % 1009,9 hPa 0,0 l/m² 7,9 km/h (2 Bft) O-NO 73 ° 0 min 0 W/m² -8,0 °C -6,9 °C 11,3 km/h (2 Bft)
02.02.2026 18:16 22,1 °C -5,1 °C 44 % 80 % 1009,9 hPa 0,0 l/m² 11,7 km/h (2 Bft) O-NO 57 ° 0 min 0 W/m² -8,0 °C -10,6 °C 24,1 km/h (4 Bft)
02.02.2026 18:17 22,1 °C -5,1 °C 44 % 80 % 1009,9 hPa 0,0 l/m² 10,6 km/h (2 Bft) O-NO 58 ° 0 min 0 W/m² -8,0 °C -9,6 °C 20,9 km/h (4 Bft)
02.02.2026 18:18 22,1 °C -5,1 °C 44 % 80 % 1009,8 hPa 0,0 l/m² 9,6 km/h (2 Bft) O-NO 76 ° 0 min 0 W/m² -8,0 °C -8,7 °C 16,1 km/h (3 Bft)
02.02.2026 18:19 22,1 °C -5,1 °C 44 % 80 % 1009,8 hPa 0,0 l/m² 7,8 km/h (2 Bft) NO 53 ° 0 min 0 W/m² -8,0 °C -6,8 °C 12,9 km/h (3 Bft)
02.02.2026 18:21 22,1 °C -5,1 °C 44 % 80 % 1009,9 hPa 0,0 l/m² 11,3 km/h (2 Bft) O-NO 64 ° 0 min 0 W/m² -8,0 °C -10,3 °C 20,9 km/h (4 Bft)
02.02.2026 18:23 22,1 °C -5,2 °C 44 % 80 % 1009,8 hPa 0,0 l/m² 8,9 km/h (2 Bft) O-SO 102 ° 0 min 0 W/m² -8,1 °C -8,1 °C 16,1 km/h (3 Bft)
02.02.2026 18:24 22,1 °C -5,2 °C 44 % 80 % 1009,8 hPa 0,0 l/m² 11,7 km/h (2 Bft) NO 52 ° 0 min 0 W/m² -8,1 °C -10,7 °C 17,7 km/h (3 Bft)
02.02.2026 18:25 22,1 °C -5,2 °C 44 % 80 % 1009,7 hPa 0,0 l/m² 7,2 km/h (2 Bft) NO 56 ° 0 min 0 W/m² -8,1 °C -6,2 °C 11,3 km/h (2 Bft)
02.02.2026 18:26 22,1 °C -5,1 °C 44 % 80 % 1009,9 hPa 0,0 l/m² 9,3 km/h (2 Bft) NO 45 ° 0 min 0 W/m² -8,0 °C -8,4 °C 20,9 km/h (4 Bft)
02.02.2026 18:27 22,1 °C -5,2 °C 44 % 80 % 1009,9 hPa 0,0 l/m² 9,7 km/h (2 Bft) O-NO 57 ° 0 min 0 W/m² -8,1 °C -8,9 °C 16,1 km/h (3 Bft)
02.02.2026 18:28 22,1 °C -5,2 °C 44 % 80 % 1009,8 hPa 0,0 l/m² 12,2 km/h (2 Bft) N-NO 28 ° 0 min 0 W/m² -8,1 °C -11,2 °C 19,3 km/h (3 Bft)
02.02.2026 18:29 22,0 °C -5,2 °C 44 % 80 % 1009,8 hPa 0,0 l/m² 11,7 km/h (2 Bft) O 96 ° 0 min 0 W/m² -8,1 °C -10,7 °C 19,3 km/h (3 Bft)
02.02.2026 18:31 22,1 °C -5,2 °C 44 % 79 % 1009,8 hPa 0,0 l/m² 11,5 km/h (2 Bft) O-NO 68 ° 0 min 0 W/m² -8,3 °C -10,6 °C 19,3 km/h (3 Bft)
02.02.2026 18:33 22,1 °C -5,2 °C 44 % 79 % 1009,7 hPa 0,0 l/m² 11,7 km/h (2 Bft) O-NO 77 ° 0 min 0 W/m² -8,3 °C -10,7 °C 22,5 km/h (4 Bft)
02.02.2026 18:34 22,1 °C -5,2 °C 44 % 79 % 1009,8 hPa 0,0 l/m² 5,9 km/h (2 Bft) O-NO 59 ° 0 min 0 W/m² -8,3 °C -5,2 °C 9,7 km/h (2 Bft)
02.02.2026 18:35 22,0 °C -5,2 °C 44 % 79 % 1009,7 hPa 0,0 l/m² 10,5 km/h (2 Bft) O-NO 66 ° 0 min 0 W/m² -8,3 °C -9,7 °C 17,7 km/h (3 Bft)
02.02.2026 18:36 22,1 °C -5,3 °C 44 % 80 % 1009,7 hPa 0,0 l/m² 8,5 km/h (2 Bft) NO 43 ° 0 min 0 W/m² -8,2 °C -7,8 °C 14,5 km/h (3 Bft)
02.02.2026 18:37 22,1 °C -5,3 °C 44 % 80 % 1009,7 hPa 0,0 l/m² 8,6 km/h (2 Bft) NO 54 ° 0 min 0 W/m² -8,2 °C -7,9 °C 16,1 km/h (3 Bft)
02.02.2026 18:38 22,1 °C -5,2 °C 44 % 80 % 1009,7 hPa 0,0 l/m² 9,1 km/h (2 Bft) NO 55 ° 0 min 0 W/m² -8,1 °C -8,3 °C 16,1 km/h (3 Bft)
02.02.2026 18:39 22,1 °C -5,3 °C 44 % 80 % 1009,7 hPa 0,0 l/m² 5,6 km/h (2 Bft) NO 54 ° 0 min 0 W/m² -8,2 °C -5,3 °C 12,9 km/h (3 Bft)
02.02.2026 18:41 22,1 °C -5,3 °C 44 % 79 % 1009,7 hPa 0,0 l/m² 13,1 km/h (3 Bft) NO 43 ° 0 min 0 W/m² -8,4 °C -12,0 °C 22,5 km/h (4 Bft)
02.02.2026 18:43 22,0 °C -5,3 °C 44 % 80 % 1009,7 hPa 0,0 l/m² 12,4 km/h (2 Bft) O-NO 63 ° 0 min 0 W/m² -8,2 °C -11,4 °C 20,9 km/h (4 Bft)
02.02.2026 18:45 22,1 °C -5,3 °C 44 % 80 % 1009,7 hPa 0,0 l/m² 8,8 km/h (2 Bft) O-NO 59 ° 0 min 0 W/m² -8,2 °C -8,1 °C 14,5 km/h (3 Bft)
02.02.2026 18:46 22,1 °C -5,3 °C 44 % 80 % 1009,7 hPa 0,0 l/m² 10,5 km/h (2 Bft) NO 52 ° 0 min 0 W/m² -8,2 °C -9,8 °C 17,7 km/h (3 Bft)
02.02.2026 18:47 22,0 °C -5,3 °C 44 % 80 % 1009,7 hPa 0,0 l/m² 8,0 km/h (2 Bft) NO 43 ° 0 min 0 W/m² -8,2 °C -7,2 °C 14,5 km/h (3 Bft)
02.02.2026 18:48 22,0 °C -5,3 °C 44 % 80 % 1009,7 hPa 0,0 l/m² 11,1 km/h (2 Bft) O-NO 65 ° 0 min 0 W/m² -8,2 °C -10,3 °C 19,3 km/h (3 Bft)
02.02.2026 18:49 22,1 °C -5,3 °C 44 % 80 % 1009,7 hPa 0,0 l/m² 12,7 km/h (3 Bft) O 86 ° 0 min 0 W/m² -8,2 °C -11,7 °C 17,7 km/h (3 Bft)
02.02.2026 18:51 22,1 °C -5,3 °C 44 % 80 % 1009,8 hPa 0,0 l/m² 7,6 km/h (2 Bft) NO 49 ° 0 min 0 W/m² -8,2 °C -6,7 °C 16,1 km/h (3 Bft)
02.02.2026 18:53 22,0 °C -5,3 °C 44 % 80 % 1009,8 hPa 0,0 l/m² 5,0 km/h (1 Bft) NO 56 ° 0 min 0 W/m² -8,2 °C -5,3 °C 8,0 km/h (2 Bft)
02.02.2026 18:54 22,1 °C -5,3 °C 44 % 80 % 1009,8 hPa 0,0 l/m² 5,4 km/h (2 Bft) NO 44 ° 0 min 0 W/m² -8,2 °C -5,3 °C 6,4 km/h (2 Bft)
02.02.2026 18:55 22,0 °C -5,3 °C 44 % 80 % 1009,8 hPa 0,0 l/m² 3,5 km/h (1 Bft) O-NO 73 ° 0 min 0 W/m² -8,2 °C -5,3 °C 6,4 km/h (2 Bft)
02.02.2026 18:56 22,1 °C -5,3 °C 44 % 80 % 1009,8 hPa 0,0 l/m² 8,0 km/h (2 Bft) NO 44 ° 0 min 0 W/m² -8,2 °C -7,2 °C 14,5 km/h (3 Bft)
02.02.2026 18:57 22,1 °C -5,3 °C 44 % 80 % 1009,7 hPa 0,0 l/m² 9,1 km/h (2 Bft) NO 34 ° 0 min 0 W/m² -8,2 °C -8,4 °C 14,5 km/h (3 Bft)
02.02.2026 18:58 22,0 °C -5,3 °C 44 % 80 % 1009,7 hPa 0,0 l/m² 7,6 km/h (2 Bft) O-NO 57 ° 0 min 0 W/m² -8,2 °C -6,7 °C 12,9 km/h (3 Bft)
02.02.2026 18:59 22,0 °C -5,3 °C 44 % 80 % 1009,8 hPa 0,0 l/m² 7,9 km/h (2 Bft) NO 50 ° 0 min 0 W/m² -8,2 °C -7,1 °C 16,1 km/h (3 Bft)
02.02.2026 19:01 22,0 °C -5,3 °C 44 % 80 % 1009,8 hPa 0,0 l/m² 7,5 km/h (2 Bft) O-NO 57 ° 0 min 0 W/m² -8,2 °C -6,6 °C 14,5 km/h (3 Bft)
02.02.2026 19:03 22,0 °C -5,3 °C 44 % 80 % 1009,9 hPa 0,0 l/m² 6,8 km/h (2 Bft) O-NO 76 ° 0 min 0 W/m² -8,2 °C -5,8 °C 16,1 km/h (3 Bft)
02.02.2026 19:04 22,0 °C -5,4 °C 44 % 80 % 1009,9 hPa 0,0 l/m² 8,9 km/h (2 Bft) O-NO 68 ° 0 min 0 W/m² -8,3 °C -8,3 °C 14,5 km/h (3 Bft)
02.02.2026 19:05 22,0 °C -5,4 °C 44 % 80 % 1009,9 hPa 0,0 l/m² 9,4 km/h (2 Bft) N-NO 28 ° 0 min 0 W/m² -8,3 °C -8,8 °C 14,5 km/h (3 Bft)
02.02.2026 19:06 22,0 °C -5,4 °C 44 % 80 % 1009,9 hPa 0,0 l/m² 9,5 km/h (2 Bft) O-NO 58 ° 0 min 0 W/m² -8,3 °C -8,9 °C 16,1 km/h (3 Bft)
02.02.2026 19:08 22,0 °C -5,4 °C 44 % 80 % 1009,8 hPa 0,0 l/m² 11,7 km/h (2 Bft) O-NO 63 ° 0 min 0 W/m² -8,3 °C -11,0 °C 19,3 km/h (3 Bft)
02.02.2026 19:09 22,0 °C -5,4 °C 44 % 80 % 1009,8 hPa 0,0 l/m² 10,7 km/h (2 Bft) O 94 ° 0 min 0 W/m² -8,3 °C -10,1 °C 17,7 km/h (3 Bft)
02.02.2026 19:11 22,0 °C -5,4 °C 44 % 80 % 1010,0 hPa 0,0 l/m² 10,2 km/h (2 Bft) NO 36 ° 0 min 0 W/m² -8,3 °C -9,6 °C 19,3 km/h (3 Bft)
02.02.2026 19:13 22,0 °C -5,4 °C 44 % 80 % 1009,9 hPa 0,0 l/m² 10,2 km/h (2 Bft) O-NO 66 ° 0 min 0 W/m² -8,3 °C -9,6 °C 17,7 km/h (3 Bft)
02.02.2026 19:14 22,0 °C -5,4 °C 44 % 80 % 1010,0 hPa 0,0 l/m² 14,3 km/h (3 Bft) O-NO 76 ° 0 min 0 W/m² -8,3 °C -13,0 °C 17,7 km/h (3 Bft)
02.02.2026 19:15 22,0 °C -5,4 °C 44 % 80 % 1010,0 hPa 0,0 l/m² 10,2 km/h (2 Bft) N 11 ° 0 min 0 W/m² -8,3 °C -9,6 °C 16,1 km/h (3 Bft)
02.02.2026 19:17 22,0 °C -5,4 °C 44 % 80 % 1010,1 hPa 0,0 l/m² 12,5 km/h (2 Bft) O-NO 65 ° 0 min 0 W/m² -8,3 °C -11,6 °C 20,9 km/h (4 Bft)
02.02.2026 19:18 22,0 °C -5,4 °C 44 % 80 % 1010,1 hPa 0,0 l/m² 7,3 km/h (2 Bft) N-NO 17 ° 0 min 0 W/m² -8,3 °C -6,5 °C 11,3 km/h (2 Bft)
02.02.2026 19:19 22,0 °C -5,4 °C 44 % 80 % 1010,1 hPa 0,0 l/m² 12,7 km/h (3 Bft) O 82 ° 0 min 0 W/m² -8,3 °C -11,8 °C 20,9 km/h (4 Bft)
02.02.2026 19:21 22,0 °C -5,4 °C 44 % 80 % 1010,1 hPa 0,0 l/m² 10,7 km/h (2 Bft) O-NO 74 ° 0 min 0 W/m² -8,3 °C -10,1 °C 17,7 km/h (3 Bft)
02.02.2026 19:23 22,0 °C -5,4 °C 44 % 80 % 1010,0 hPa 0,0 l/m² 10,7 km/h (2 Bft) O-NO 61 ° 0 min 0 W/m² -8,3 °C -10,1 °C 19,3 km/h (3 Bft)
02.02.2026 19:24 22,0 °C -5,4 °C 44 % 80 % 1010,0 hPa 0,0 l/m² 12,4 km/h (2 Bft) O-NO 61 ° 0 min 0 W/m² -8,3 °C -11,6 °C 19,3 km/h (3 Bft)
02.02.2026 19:25 22,0 °C -5,4 °C 44 % 80 % 1010,1 hPa 0,0 l/m² 11,1 km/h (2 Bft) O-NO 65 ° 0 min 0 W/m² -8,3 °C -10,4 °C 14,5 km/h (3 Bft)
02.02.2026 19:26 22,0 °C -5,4 °C 44 % 80 % 1010,0 hPa 0,0 l/m² 14,3 km/h (3 Bft) NO 38 ° 0 min 0 W/m² -8,3 °C -13,0 °C 20,9 km/h (4 Bft)
02.02.2026 19:27 22,0 °C -5,4 °C 44 % 80 % 1009,9 hPa 0,0 l/m² 16,5 km/h (3 Bft) NO 53 ° 0 min 0 W/m² -8,3 °C -14,5 °C 24,1 km/h (4 Bft)
02.02.2026 19:28 22,0 °C -5,4 °C 44 % 80 % 1010,0 hPa 0,0 l/m² 16,9 km/h (3 Bft) O-NO 64 ° 0 min 0 W/m² -8,3 °C -14,8 °C 24,1 km/h (4 Bft)
02.02.2026 19:29 22,0 °C -5,4 °C 44 % 80 % 1009,9 hPa 0,0 l/m² 10,0 km/h (2 Bft) O-NO 72 ° 0 min 0 W/m² -8,3 °C -9,4 °C 20,9 km/h (4 Bft)
02.02.2026 19:31 21,9 °C -5,5 °C 44 % 80 % 1010,0 hPa 0,0 l/m² 13,5 km/h (3 Bft) O-NO 69 ° 0 min 0 W/m² -8,4 °C -12,5 °C 20,9 km/h (4 Bft)
02.02.2026 19:33 22,0 °C -5,5 °C 44 % 80 % 1010,0 hPa 0,0 l/m² 8,9 km/h (2 Bft) O-NO 70 ° 0 min 0 W/m² -8,4 °C -8,4 °C 19,3 km/h (3 Bft)
02.02.2026 19:34 22,0 °C -5,5 °C 44 % 80 % 1010,0 hPa 0,0 l/m² 9,7 km/h (2 Bft) O-NO 65 ° 0 min 0 W/m² -8,4 °C -9,2 °C 20,9 km/h (4 Bft)
02.02.2026 19:35 22,0 °C -5,5 °C 44 % 80 % 1010,0 hPa 0,0 l/m² 13,6 km/h (3 Bft) NO 41 ° 0 min 0 W/m² -8,4 °C -12,6 °C 17,7 km/h (3 Bft)
02.02.2026 19:36 21,9 °C -5,5 °C 44 % 80 % 1010,0 hPa 0,0 l/m² 15,0 km/h (3 Bft) O 80 ° 0 min 0 W/m² -8,4 °C -13,6 °C 19,3 km/h (3 Bft)
02.02.2026 19:37 21,9 °C -5,5 °C 44 % 80 % 1010,0 hPa 0,0 l/m² 12,6 km/h (3 Bft) O-NO 61 ° 0 min 0 W/m² -8,4 °C -11,8 °C 19,3 km/h (3 Bft)
02.02.2026 19:38 21,9 °C -5,5 °C 44 % 80 % 1010,0 hPa 0,0 l/m² 11,8 km/h (2 Bft) O-NO 73 ° 0 min 0 W/m² -8,4 °C -11,2 °C 20,9 km/h (4 Bft)
02.02.2026 19:39 22,0 °C -5,5 °C 44 % 80 % 1009,9 hPa 0,0 l/m² 14,7 km/h (3 Bft) O-NO 70 ° 0 min 0 W/m² -8,4 °C -13,4 °C 22,5 km/h (4 Bft)
02.02.2026 19:41 21,9 °C -5,6 °C 44 % 80 % 1010,0 hPa 0,0 l/m² 13,1 km/h (3 Bft) O-NO 63 ° 0 min 0 W/m² -8,5 °C -12,3 °C 24,1 km/h (4 Bft)
02.02.2026 19:43 22,0 °C -5,5 °C 44 % 80 % 1009,9 hPa 0,0 l/m² 11,2 km/h (2 Bft) O-NO 68 ° 0 min 0 W/m² -8,4 °C -10,6 °C 19,3 km/h (3 Bft)
02.02.2026 19:44 21,9 °C -5,6 °C 44 % 80 % 1010,0 hPa 0,0 l/m² 11,6 km/h (2 Bft) O-NO 66 ° 0 min 0 W/m² -8,5 °C -11,1 °C 19,3 km/h (3 Bft)
02.02.2026 19:45 22,0 °C -5,6 °C 44 % 80 % 1010,0 hPa 0,0 l/m² 8,4 km/h (2 Bft) NO 34 ° 0 min 0 W/m² -8,5 °C -8,0 °C 16,1 km/h (3 Bft)
02.02.2026 19:46 22,0 °C -5,5 °C 44 % 80 % 1010,0 hPa 0,0 l/m² 8,5 km/h (2 Bft) O-NO 61 ° 0 min 0 W/m² -8,4 °C -8,0 °C 14,5 km/h (3 Bft)
02.02.2026 19:47 21,9 °C -5,6 °C 44 % 80 % 1010,0 hPa 0,0 l/m² 9,4 km/h (2 Bft) O 84 ° 0 min 0 W/m² -8,5 °C -9,0 °C 17,7 km/h (3 Bft)
02.02.2026 19:48 21,9 °C -5,6 °C 44 % 80 % 1010,0 hPa 0,0 l/m² 15,7 km/h (3 Bft) O-NO 59 ° 0 min 0 W/m² -8,5 °C -14,3 °C 19,3 km/h (3 Bft)
02.02.2026 19:49 21,9 °C -5,6 °C 44 % 80 % 1009,9 hPa 0,0 l/m² 13,9 km/h (3 Bft) NO 56 ° 0 min 0 W/m² -8,5 °C -13,0 °C 20,9 km/h (4 Bft)
02.02.2026 19:51 21,9 °C -5,6 °C 44 % 80 % 1009,9 hPa 0,0 l/m² 9,6 km/h (2 Bft) O-NO 78 ° 0 min 0 W/m² -8,5 °C -9,2 °C 16,1 km/h (3 Bft)
02.02.2026 19:52 22,0 °C -5,6 °C 44 % 80 % 1009,9 hPa 0,0 l/m² 8,9 km/h (2 Bft) O-NO 61 ° 0 min 0 W/m² -8,5 °C -8,5 °C 16,1 km/h (3 Bft)
02.02.2026 19:53 22,0 °C -5,6 °C 44 % 80 % 1009,9 hPa 0,0 l/m² 6,7 km/h (2 Bft) O-NO 57 ° 0 min 0 W/m² -8,5 °C -5,9 °C 9,7 km/h (2 Bft)
02.02.2026 19:54 22,0 °C -5,6 °C 44 % 80 % 1009,8 hPa 0,0 l/m² 11,6 km/h (2 Bft) NO 51 ° 0 min 0 W/m² -8,5 °C -11,1 °C 17,7 km/h (3 Bft)
02.02.2026 19:55 21,9 °C -5,6 °C 44 % 80 % 1009,9 hPa 0,0 l/m² 15,4 km/h (3 Bft) O-NO 77 ° 0 min 0 W/m² -8,5 °C -14,0 °C 22,5 km/h (4 Bft)
02.02.2026 19:56 21,9 °C -5,6 °C 44 % 80 % 1009,9 hPa 0,0 l/m² 6,9 km/h (2 Bft) O-NO 63 ° 0 min 0 W/m² -8,5 °C -6,2 °C 11,3 km/h (2 Bft)
02.02.2026 19:57 21,9 °C -5,6 °C 44 % 80 % 1009,9 hPa 0,0 l/m² 7,9 km/h (2 Bft) NO 49 ° 0 min 0 W/m² -8,5 °C -7,4 °C 19,3 km/h (3 Bft)
02.02.2026 19:58 21,9 °C -5,6 °C 44 % 80 % 1009,9 hPa 0,0 l/m² 9,4 km/h (2 Bft) O-SO 112 ° 0 min 0 W/m² -8,5 °C -9,0 °C 20,9 km/h (4 Bft)
02.02.2026 19:59 21,9 °C -5,6 °C 44 % 80 % 1009,8 hPa 0,0 l/m² 9,3 km/h (2 Bft) NO 44 ° 0 min 0 W/m² -8,5 °C -8,9 °C 14,5 km/h (3 Bft)
02.02.2026 20:01 21,9 °C -5,6 °C 44 % 81 % 1009,9 hPa 0,0 l/m² 10,1 km/h (2 Bft) O-NO 64 ° 0 min 0 W/m² -8,3 °C -9,7 °C 20,9 km/h (4 Bft)
02.02.2026 20:03 21,9 °C -5,6 °C 44 % 80 % 1009,9 hPa 0,0 l/m² 8,6 km/h (2 Bft) O-NO 74 ° 0 min 0 W/m² -8,5 °C -8,2 °C 12,9 km/h (3 Bft)
02.02.2026 20:04 21,9 °C -5,6 °C 44 % 80 % 1009,8 hPa 0,0 l/m² 13,6 km/h (3 Bft) O-NO 59 ° 0 min 0 W/m² -8,5 °C -12,7 °C 19,3 km/h (3 Bft)
02.02.2026 20:05 21,9 °C -5,6 °C 44 % 81 % 1009,8 hPa 0,0 l/m² 11,5 km/h (2 Bft) NO 36 ° 0 min 0 W/m² -8,3 °C -11,0 °C 19,3 km/h (3 Bft)
02.02.2026 20:06 22,0 °C -5,5 °C 44 % 81 % 1009,8 hPa 0,0 l/m² 10,7 km/h (2 Bft) NO 54 ° 0 min 0 W/m² -8,2 °C -10,2 °C 16,1 km/h (3 Bft)
02.02.2026 20:07 21,9 °C -5,6 °C 44 % 81 % 1009,9 hPa 0,0 l/m² 10,6 km/h (2 Bft) NO 53 ° 0 min 0 W/m² -8,3 °C -10,2 °C 16,1 km/h (3 Bft)
02.02.2026 20:08 21,9 °C -5,6 °C 44 % 81 % 1009,9 hPa 0,0 l/m² 11,9 km/h (2 Bft) O 88 ° 0 min 0 W/m² -8,3 °C -11,4 °C 16,1 km/h (3 Bft)
02.02.2026 20:09 21,9 °C -5,6 °C 44 % 81 % 1010,0 hPa 0,0 l/m² 11,7 km/h (2 Bft) O-NO 61 ° 0 min 0 W/m² -8,3 °C -11,2 °C 17,7 km/h (3 Bft)
02.02.2026 20:11 21,9 °C -5,6 °C 44 % 81 % 1010,0 hPa 0,0 l/m² 12,3 km/h (2 Bft) O-NO 59 ° 0 min 0 W/m² -8,3 °C -11,7 °C 17,7 km/h (3 Bft)
02.02.2026 20:13 21,9 °C -5,6 °C 44 % 81 % 1009,9 hPa 0,0 l/m² 11,8 km/h (2 Bft) O-NO 60 ° 0 min 0 W/m² -8,3 °C -11,3 °C 17,7 km/h (3 Bft)
02.02.2026 20:14 22,0 °C -5,6 °C 44 % 81 % 1009,9 hPa 0,0 l/m² 9,7 km/h (2 Bft) O-NO 59 ° 0 min 0 W/m² -8,3 °C -9,3 °C 17,7 km/h (3 Bft)
02.02.2026 20:15 22,0 °C -5,6 °C 44 % 81 % 1009,9 hPa 0,0 l/m² 10,2 km/h (2 Bft) O-NO 76 ° 0 min 0 W/m² -8,3 °C -9,8 °C 16,1 km/h (3 Bft)
02.02.2026 20:16 22,0 °C -5,6 °C 44 % 81 % 1009,9 hPa 0,0 l/m² 14,6 km/h (3 Bft) O 79 ° 0 min 0 W/m² -8,3 °C -13,5 °C 22,5 km/h (4 Bft)
02.02.2026 20:17 21,9 °C -5,6 °C 44 % 81 % 1010,0 hPa 0,0 l/m² 10,2 km/h (2 Bft) O 80 ° 0 min 0 W/m² -8,3 °C -9,8 °C 16,1 km/h (3 Bft)
02.02.2026 20:18 21,9 °C -5,5 °C 44 % 81 % 1010,0 hPa 0,0 l/m² 13,4 km/h (3 Bft) O-NO 69 ° 0 min 0 W/m² -8,2 °C -12,5 °C 19,3 km/h (3 Bft)
02.02.2026 20:19 22,0 °C -5,6 °C 44 % 81 % 1009,9 hPa 0,0 l/m² 8,4 km/h (2 Bft) O 89 ° 0 min 0 W/m² -8,3 °C -8,0 °C 17,7 km/h (3 Bft)
02.02.2026 20:21 21,9 °C -5,5 °C 44 % 81 % 1009,8 hPa 0,0 l/m² 13,3 km/h (3 Bft) NO 47 ° 0 min 0 W/m² -8,2 °C -12,4 °C 17,7 km/h (3 Bft)
02.02.2026 20:23 22,0 °C -5,6 °C 44 % 81 % 1009,8 hPa 0,0 l/m² 9,7 km/h (2 Bft) O-NO 65 ° 0 min 0 W/m² -8,3 °C -9,3 °C 16,1 km/h (3 Bft)
02.02.2026 20:24 21,9 °C -5,6 °C 44 % 81 % 1009,8 hPa 0,0 l/m² 11,8 km/h (2 Bft) O-NO 73 ° 0 min 0 W/m² -8,3 °C -11,3 °C 20,9 km/h (4 Bft)
02.02.2026 20:25 21,9 °C -5,6 °C 44 % 81 % 1009,9 hPa 0,0 l/m² 12,5 km/h (2 Bft) O 84 ° 0 min 0 W/m² -8,3 °C -11,9 °C 19,3 km/h (3 Bft)
02.02.2026 20:26 21,9 °C -5,6 °C 44 % 81 % 1009,8 hPa 0,0 l/m² 13,8 km/h (3 Bft) O 88 ° 0 min 0 W/m² -8,3 °C -12,9 °C 19,3 km/h (3 Bft)
02.02.2026 20:27 22,0 °C -5,6 °C 44 % 81 % 1009,9 hPa 0,0 l/m² 11,2 km/h (2 Bft) O 92 ° 0 min 0 W/m² -8,3 °C -10,8 °C 16,1 km/h (3 Bft)
02.02.2026 20:28 21,9 °C -5,6 °C 44 % 81 % 1009,9 hPa 0,0 l/m² 14,0 km/h (3 Bft) NO 39 ° 0 min 0 W/m² -8,3 °C -13,0 °C 20,9 km/h (4 Bft)
02.02.2026 20:29 21,9 °C -5,6 °C 44 % 81 % 1010,0 hPa 0,0 l/m² 13,7 km/h (3 Bft) O 82 ° 0 min 0 W/m² -8,3 °C -12,8 °C 17,7 km/h (3 Bft)
02.02.2026 20:31 22,0 °C -5,6 °C 44 % 81 % 1010,1 hPa 0,0 l/m² 13,5 km/h (3 Bft) O-NO 70 ° 0 min 0 W/m² -8,3 °C -12,7 °C 22,5 km/h (4 Bft)
02.02.2026 20:33 21,9 °C -5,6 °C 44 % 81 % 1010,0 hPa 0,0 l/m² 12,4 km/h (2 Bft) NO 55 ° 0 min 0 W/m² -8,3 °C -11,8 °C 17,7 km/h (3 Bft)
02.02.2026 20:34 22,0 °C -5,6 °C 44 % 81 % 1009,9 hPa 0,0 l/m² 10,9 km/h (2 Bft) NO 42 ° 0 min 0 W/m² -8,3 °C -10,5 °C 14,5 km/h (3 Bft)
02.02.2026 20:35 22,0 °C -5,6 °C 44 % 81 % 1009,9 hPa 0,0 l/m² 10,6 km/h (2 Bft) O-NO 57 ° 0 min 0 W/m² -8,3 °C -10,2 °C 16,1 km/h (3 Bft)
02.02.2026 20:36 22,0 °C -5,6 °C 44 % 81 % 1009,9 hPa 0,0 l/m² 12,0 km/h (2 Bft) O 88 ° 0 min 0 W/m² -8,3 °C -11,4 °C 14,5 km/h (3 Bft)
02.02.2026 20:37 21,9 °C -5,6 °C 44 % 81 % 1009,9 hPa 0,0 l/m² 14,3 km/h (3 Bft) O-NO 78 ° 0 min 0 W/m² -8,3 °C -13,3 °C 19,3 km/h (3 Bft)
02.02.2026 20:38 22,0 °C -5,6 °C 44 % 81 % 1009,8 hPa 0,0 l/m² 12,7 km/h (3 Bft) O-NO 65 ° 0 min 0 W/m² -8,3 °C -12,0 °C 16,1 km/h (3 Bft)
02.02.2026 20:39 22,0 °C -5,6 °C 44 % 81 % 1009,9 hPa 0,0 l/m² 12,9 km/h (3 Bft) O 87 ° 0 min 0 W/m² -8,3 °C -12,2 °C 20,9 km/h (4 Bft)
02.02.2026 20:41 22,0 °C -5,6 °C 44 % 80 % 1009,8 hPa 0,0 l/m² 16,9 km/h (3 Bft) O-NO 70 ° 0 min 0 W/m² -8,5 °C -15,0 °C 24,1 km/h (4 Bft)
02.02.2026 20:43 22,0 °C -5,6 °C 44 % 80 % 1009,9 hPa 0,0 l/m² 13,1 km/h (3 Bft) NO 55 ° 0 min 0 W/m² -8,5 °C -12,3 °C 20,9 km/h (4 Bft)
02.02.2026 20:44 21,9 °C -5,6 °C 44 % 80 % 1009,8 hPa 0,0 l/m² 12,5 km/h (2 Bft) O-NO 69 ° 0 min 0 W/m² -8,5 °C -11,9 °C 19,3 km/h (3 Bft)
02.02.2026 20:45 22,0 °C -5,6 °C 44 % 80 % 1009,8 hPa 0,0 l/m² 9,1 km/h (2 Bft) O-NO 59 ° 0 min 0 W/m² -8,5 °C -8,7 °C 16,1 km/h (3 Bft)
02.02.2026 20:46 22,0 °C -5,6 °C 44 % 80 % 1009,8 hPa 0,0 l/m² 16,4 km/h (3 Bft) O-NO 74 ° 0 min 0 W/m² -8,5 °C -14,7 °C 19,3 km/h (3 Bft)
02.02.2026 20:47 22,0 °C -5,6 °C 44 % 81 % 1009,9 hPa 0,0 l/m² 10,6 km/h (2 Bft) O-NO 63 ° 0 min 0 W/m² -8,3 °C -10,2 °C 16,1 km/h (3 Bft)
02.02.2026 20:48 22,0 °C -5,6 °C 44 % 81 % 1009,8 hPa 0,0 l/m² 8,0 km/h (2 Bft) O-NO 71 ° 0 min 0 W/m² -8,3 °C -7,5 °C 9,7 km/h (2 Bft)
02.02.2026 20:49 22,0 °C -5,6 °C 44 % 81 % 1009,9 hPa 0,0 l/m² 13,5 km/h (3 Bft) O-NO 57 ° 0 min 0 W/m² -8,3 °C -12,7 °C 19,3 km/h (3 Bft)
02.02.2026 20:51 22,0 °C -5,6 °C 44 % 81 % 1009,8 hPa 0,0 l/m² 14,2 km/h (3 Bft) O-NO 64 ° 0 min 0 W/m² -8,3 °C -13,2 °C 17,7 km/h (3 Bft)
02.02.2026 20:53 22,0 °C -5,6 °C 44 % 80 % 1009,8 hPa 0,0 l/m² 8,5 km/h (2 Bft) O-NO 75 ° 0 min 0 W/m² -8,5 °C -8,1 °C 14,5 km/h (3 Bft)
02.02.2026 20:54 22,0 °C -5,6 °C 44 % 81 % 1009,8 hPa 0,0 l/m² 7,8 km/h (2 Bft) NO 50 ° 0 min 0 W/m² -8,3 °C -7,3 °C 9,7 km/h (2 Bft)
02.02.2026 20:55 22,0 °C -5,6 °C 44 % 81 % 1009,8 hPa 0,0 l/m² 8,3 km/h (2 Bft) N-NO 33 ° 0 min 0 W/m² -8,3 °C -7,9 °C 14,5 km/h (3 Bft)
02.02.2026 20:56 22,0 °C -5,6 °C 44 % 81 % 1009,8 hPa 0,0 l/m² 11,9 km/h (2 Bft) O-NO 75 ° 0 min 0 W/m² -8,3 °C -11,4 °C 17,7 km/h (3 Bft)
02.02.2026 20:57 22,0 °C -5,6 °C 44 % 81 % 1009,7 hPa 0,0 l/m² 12,8 km/h (3 Bft) O 79 ° 0 min 0 W/m² -8,3 °C -12,1 °C 19,3 km/h (3 Bft)
02.02.2026 20:58 22,0 °C -5,6 °C 44 % 81 % 1009,6 hPa 0,0 l/m² 9,4 km/h (2 Bft) O-NO 57 ° 0 min 0 W/m² -8,3 °C -9,0 °C 17,7 km/h (3 Bft)
02.02.2026 20:59 22,0 °C -5,6 °C 44 % 81 % 1009,7 hPa 0,0 l/m² 11,3 km/h (2 Bft) O 82 ° 0 min 0 W/m² -8,3 °C -10,8 °C 16,1 km/h (3 Bft)
02.02.2026 21:01 22,0 °C -5,6 °C 44 % 81 % 1009,6 hPa 0,0 l/m² 16,1 km/h (3 Bft) O 84 ° 0 min 0 W/m² -8,3 °C -14,5 °C 22,5 km/h (4 Bft)
02.02.2026 21:03 22,0 °C -5,6 °C 44 % 81 % 1009,6 hPa 0,0 l/m² 10,3 km/h (2 Bft) O-NO 69 ° 0 min 0 W/m² -8,3 °C -9,9 °C 16,1 km/h (3 Bft)
02.02.2026 21:04 22,0 °C -5,6 °C 44 % 81 % 1009,6 hPa 0,0 l/m² 6,5 km/h (2 Bft) O-NO 75 ° 0 min 0 W/m² -8,3 °C -5,7 °C 16,1 km/h (3 Bft)
02.02.2026 21:05 22,0 °C -5,6 °C 44 % 81 % 1009,6 hPa 0,0 l/m² 14,6 km/h (3 Bft) O-NO 64 ° 0 min 0 W/m² -8,3 °C -13,5 °C 17,7 km/h (3 Bft)
02.02.2026 21:06 22,0 °C -5,6 °C 44 % 81 % 1009,6 hPa 0,0 l/m² 12,3 km/h (2 Bft) O 80 ° 0 min 0 W/m² -8,3 °C -11,7 °C 16,1 km/h (3 Bft)
02.02.2026 21:08 22,0 °C -5,6 °C 44 % 81 % 1009,5 hPa 0,0 l/m² 11,9 km/h (2 Bft) NO 39 ° 0 min 0 W/m² -8,3 °C -11,4 °C 20,9 km/h (4 Bft)
02.02.2026 21:09 22,0 °C -5,6 °C 44 % 81 % 1009,5 hPa 0,0 l/m² 10,0 km/h (2 Bft) O 84 ° 0 min 0 W/m² -8,3 °C -9,6 °C 16,1 km/h (3 Bft)
02.02.2026 21:10 22,0 °C -5,6 °C 44 % 81 % 1009,5 hPa 0,0 l/m² 13,1 km/h (3 Bft) O-NO 74 ° 0 min 0 W/m² -8,3 °C -12,3 °C 16,1 km/h (3 Bft)
02.02.2026 21:12 22,0 °C -5,6 °C 44 % 81 % 1009,5 hPa 0,0 l/m² 10,0 km/h (2 Bft) NO 51 ° 0 min 0 W/m² -8,3 °C -9,6 °C 16,1 km/h (3 Bft)
02.02.2026 21:13 22,0 °C -5,6 °C 44 % 81 % 1009,5 hPa 0,0 l/m² 11,6 km/h (2 Bft) O-NO 61 ° 0 min 0 W/m² -8,3 °C -11,1 °C 16,1 km/h (3 Bft)
02.02.2026 21:14 22,0 °C -5,6 °C 44 % 81 % 1009,5 hPa 0,0 l/m² 10,4 km/h (2 Bft) O-NO 66 ° 0 min 0 W/m² -8,3 °C -10,0 °C 14,5 km/h (3 Bft)
02.02.2026 21:15 22,1 °C -5,6 °C 44 % 81 % 1009,5 hPa 0,0 l/m² 14,1 km/h (3 Bft) O-NO 71 ° 0 min 0 W/m² -8,3 °C -13,1 °C 17,7 km/h (3 Bft)
02.02.2026 21:16 22,0 °C -5,6 °C 44 % 81 % 1009,5 hPa 0,0 l/m² 16,9 km/h (3 Bft) O-NO 62 ° 0 min 0 W/m² -8,3 °C -15,0 °C 19,3 km/h (3 Bft)
02.02.2026 21:17 22,1 °C -5,6 °C 43 % 81 % 1009,5 hPa 0,0 l/m² 11,6 km/h (2 Bft) N-NO 32 ° 0 min 0 W/m² -8,3 °C -11,1 °C 14,5 km/h (3 Bft)
02.02.2026 21:18 22,1 °C -5,6 °C 43 % 81 % 1009,5 hPa 0,0 l/m² 15,9 km/h (3 Bft) O-NO 63 ° 0 min 0 W/m² -8,3 °C -14,4 °C 20,9 km/h (4 Bft)
02.02.2026 21:19 22,0 °C -5,6 °C 44 % 81 % 1009,5 hPa 0,0 l/m² 15,9 km/h (3 Bft) O 82 ° 0 min 0 W/m² -8,3 °C -14,4 °C 22,5 km/h (4 Bft)
02.02.2026 21:21 22,1 °C -5,6 °C 44 % 81 % 1009,5 hPa 0,0 l/m² 14,6 km/h (3 Bft) O-NO 65 ° 0 min 0 W/m² -8,3 °C -13,5 °C 20,9 km/h (4 Bft)
02.02.2026 21:23 22,0 °C -5,6 °C 44 % 81 % 1009,6 hPa 0,0 l/m² 13,0 km/h (3 Bft) O 92 ° 0 min 0 W/m² -8,3 °C -12,3 °C 20,9 km/h (4 Bft)
02.02.2026 21:24 22,0 °C -5,6 °C 43 % 81 % 1009,6 hPa 0,0 l/m² 14,7 km/h (3 Bft) O 84 ° 0 min 0 W/m² -8,3 °C -13,6 °C 22,5 km/h (4 Bft)
02.02.2026 21:25 22,1 °C -5,6 °C 44 % 81 % 1009,5 hPa 0,0 l/m² 12,1 km/h (2 Bft) O 84 ° 0 min 0 W/m² -8,3 °C -11,5 °C 17,7 km/h (3 Bft)
02.02.2026 21:26 22,1 °C -5,6 °C 44 % 81 % 1009,5 hPa 0,0 l/m² 11,6 km/h (2 Bft) O-NO 78 ° 0 min 0 W/m² -8,3 °C -11,1 °C 16,1 km/h (3 Bft)
02.02.2026 21:27 22,1 °C -5,6 °C 44 % 81 % 1009,6 hPa 0,0 l/m² 9,9 km/h (2 Bft) O-NO 71 ° 0 min 0 W/m² -8,3 °C -9,5 °C 14,5 km/h (3 Bft)
02.02.2026 21:28 22,1 °C -5,6 °C 44 % 81 % 1009,6 hPa 0,0 l/m² 9,4 km/h (2 Bft) O-NO 76 ° 0 min 0 W/m² -8,3 °C -9,0 °C 12,9 km/h (3 Bft)
02.02.2026 21:29 22,1 °C -5,6 °C 43 % 81 % 1009,7 hPa 0,0 l/m² 7,2 km/h (2 Bft) NO 49 ° 0 min 0 W/m² -8,3 °C -6,6 °C 11,3 km/h (2 Bft)
02.02.2026 21:31 22,1 °C -5,6 °C 44 % 81 % 1009,7 hPa 0,0 l/m² 10,5 km/h (2 Bft) O-NO 71 ° 0 min 0 W/m² -8,3 °C -10,1 °C 17,7 km/h (3 Bft)
02.02.2026 21:33 22,1 °C -5,6 °C 44 % 81 % 1009,7 hPa 0,0 l/m² 16,2 km/h (3 Bft) O-NO 59 ° 0 min 0 W/m² -8,3 °C -14,6 °C 20,9 km/h (4 Bft)
02.02.2026 21:34 22,1 °C -5,6 °C 44 % 81 % 1009,6 hPa 0,0 l/m² 8,1 km/h (2 Bft) O-NO 78 ° 0 min 0 W/m² -8,3 °C -7,6 °C 12,9 km/h (3 Bft)
02.02.2026 21:35 22,1 °C -5,6 °C 44 % 81 % 1009,7 hPa 0,0 l/m² 10,3 km/h (2 Bft) O-NO 57 ° 0 min 0 W/m² -8,3 °C -9,9 °C 16,1 km/h (3 Bft)
02.02.2026 21:36 22,1 °C -5,6 °C 44 % 81 % 1009,6 hPa 0,0 l/m² 6,7 km/h (2 Bft) NO 49 ° 0 min 0 W/m² -8,3 °C -5,9 °C 11,3 km/h (2 Bft)
02.02.2026 21:37 22,1 °C -5,6 °C 44 % 81 % 1009,6 hPa 0,0 l/m² 10,7 km/h (2 Bft) O-NO 65 ° 0 min 0 W/m² -8,3 °C -10,3 °C 16,1 km/h (3 Bft)
02.02.2026 21:38 22,1 °C -5,6 °C 44 % 81 % 1009,5 hPa 0,0 l/m² 10,2 km/h (2 Bft) O 86 ° 0 min 0 W/m² -8,3 °C -9,8 °C 16,1 km/h (3 Bft)
02.02.2026 21:39 22,1 °C -5,6 °C 44 % 81 % 1009,6 hPa 0,0 l/m² 11,7 km/h (2 Bft) O 91 ° 0 min 0 W/m² -8,3 °C -11,2 °C 16,1 km/h (3 Bft)
02.02.2026 21:41 22,1 °C -5,6 °C 44 % 81 % 1009,5 hPa 0,0 l/m² 12,6 km/h (3 Bft) O-NO 64 ° 0 min 0 W/m² -8,3 °C -11,9 °C 20,9 km/h (4 Bft)
02.02.2026 21:43 22,1 °C -5,6 °C 44 % 81 % 1009,5 hPa 0,0 l/m² 11,8 km/h (2 Bft) N-NO 22 ° 0 min 0 W/m² -8,3 °C -11,3 °C 20,9 km/h (4 Bft)
02.02.2026 21:44 22,1 °C -5,6 °C 44 % 81 % 1009,5 hPa 0,0 l/m² 4,7 km/h (1 Bft) O-NO 58 ° 0 min 0 W/m² -8,3 °C -5,6 °C 9,7 km/h (2 Bft)
02.02.2026 21:46 22,1 °C -5,6 °C 44 % 81 % 1009,5 hPa 0,0 l/m² 15,5 km/h (3 Bft) O-NO 78 ° 0 min 0 W/m² -8,3 °C -14,1 °C 22,5 km/h (4 Bft)
02.02.2026 21:47 22,1 °C -5,6 °C 44 % 81 % 1009,5 hPa 0,0 l/m² 12,2 km/h (2 Bft) O-NO 71 ° 0 min 0 W/m² -8,3 °C -11,6 °C 19,3 km/h (3 Bft)
02.02.2026 21:48 22,1 °C -5,6 °C 44 % 81 % 1009,6 hPa 0,0 l/m² 9,7 km/h (2 Bft) O-NO 78 ° 0 min 0 W/m² -8,3 °C -9,3 °C 12,9 km/h (3 Bft)
02.02.2026 21:49 22,1 °C -5,6 °C 43 % 81 % 1009,6 hPa 0,0 l/m² 10,7 km/h (2 Bft) O 88 ° 0 min 0 W/m² -8,3 °C -10,3 °C 17,7 km/h (3 Bft)
02.02.2026 21:51 22,1 °C -5,6 °C 44 % 81 % 1009,7 hPa 0,0 l/m² 14,9 km/h (3 Bft) O-NO 70 ° 0 min 0 W/m² -8,3 °C -13,7 °C 25,7 km/h (4 Bft)
02.02.2026 21:53 22,1 °C -5,6 °C 43 % 81 % 1009,7 hPa 0,0 l/m² 14,5 km/h (3 Bft) O-NO 74 ° 0 min 0 W/m² -8,3 °C -13,4 °C 22,5 km/h (4 Bft)
02.02.2026 21:54 22,1 °C -5,6 °C 44 % 81 % 1009,6 hPa 0,0 l/m² 13,9 km/h (3 Bft) O-NO 70 ° 0 min 0 W/m² -8,3 °C -13,0 °C 20,9 km/h (4 Bft)
02.02.2026 21:55 22,1 °C -5,6 °C 44 % 81 % 1009,7 hPa 0,0 l/m² 16,7 km/h (3 Bft) O 86 ° 0 min 0 W/m² -8,3 °C -14,9 °C 19,3 km/h (3 Bft)
02.02.2026 21:56 22,1 °C -5,6 °C 44 % 81 % 1009,6 hPa 0,0 l/m² 11,2 km/h (2 Bft) O-NO 75 ° 0 min 0 W/m² -8,3 °C -10,8 °C 16,1 km/h (3 Bft)
02.02.2026 21:57 22,1 °C -5,6 °C 44 % 81 % 1009,6 hPa 0,0 l/m² 18,0 km/h (3 Bft) O 84 ° 0 min 0 W/m² -8,3 °C -15,7 °C 24,1 km/h (4 Bft)
02.02.2026 21:58 22,1 °C -5,6 °C 44 % 81 % 1009,6 hPa 0,0 l/m² 12,9 km/h (3 Bft) NO 54 ° 0 min 0 W/m² -8,3 °C -12,2 °C 16,1 km/h (3 Bft)
02.02.2026 21:59 22,1 °C -5,5 °C 44 % 81 % 1009,6 hPa 0,0 l/m² 21,0 km/h (4 Bft) O 83 ° 0 min 0 W/m² -8,2 °C -17,3 °C 24,1 km/h (4 Bft)
02.02.2026 22:01 22,1 °C -5,6 °C 44 % 81 % 1009,7 hPa 0,0 l/m² 15,8 km/h (3 Bft) O 92 ° 0 min 0 W/m² -8,3 °C -14,3 °C 20,9 km/h (4 Bft)
02.02.2026 22:03 22,1 °C -5,6 °C 44 % 81 % 1009,7 hPa 0,0 l/m² 15,9 km/h (3 Bft) O-NO 61 ° 0 min 0 W/m² -8,3 °C -14,4 °C 22,5 km/h (4 Bft)
02.02.2026 22:04 22,1 °C -5,6 °C 44 % 81 % 1009,8 hPa 0,0 l/m² 16,6 km/h (3 Bft) O-NO 59 ° 0 min 0 W/m² -8,3 °C -14,8 °C 19,3 km/h (3 Bft)
02.02.2026 22:05 22,1 °C -5,5 °C 44 % 81 % 1009,8 hPa 0,0 l/m² 14,4 km/h (3 Bft) O 79 ° 0 min 0 W/m² -8,2 °C -13,2 °C 19,3 km/h (3 Bft)
02.02.2026 22:06 22,1 °C -5,6 °C 44 % 81 % 1009,8 hPa 0,0 l/m² 14,5 km/h (3 Bft) O-NO 61 ° 0 min 0 W/m² -8,3 °C -13,4 °C 22,5 km/h (4 Bft)
02.02.2026 22:07 22,1 °C -5,6 °C 44 % 81 % 1009,8 hPa 0,0 l/m² 12,9 km/h (3 Bft) O-NO 66 ° 0 min 0 W/m² -8,3 °C -12,2 °C 16,1 km/h (3 Bft)
02.02.2026 22:08 22,1 °C -5,6 °C 44 % 81 % 1009,8 hPa 0,0 l/m² 13,5 km/h (3 Bft) O-NO 70 ° 0 min 0 W/m² -8,3 °C -12,7 °C 19,3 km/h (3 Bft)
02.02.2026 22:09 22,1 °C -5,6 °C 44 % 81 % 1009,8 hPa 0,0 l/m² 13,1 km/h (3 Bft) O-NO 63 ° 0 min 0 W/m² -8,3 °C -12,3 °C 24,1 km/h (4 Bft)
02.02.2026 22:11 22,1 °C -5,6 °C 44 % 81 % 1009,8 hPa 0,0 l/m² 17,0 km/h (3 Bft) O-NO 71 ° 0 min 0 W/m² -8,3 °C -15,1 °C 22,5 km/h (4 Bft)
02.02.2026 22:13 22,1 °C -5,6 °C 44 % 81 % 1009,9 hPa 0,0 l/m² 17,0 km/h (3 Bft) NO 48 ° 0 min 0 W/m² -8,3 °C -15,1 °C 24,1 km/h (4 Bft)
02.02.2026 22:14 22,1 °C -5,6 °C 44 % 81 % 1009,9 hPa 0,0 l/m² 12,0 km/h (2 Bft) O-NO 74 ° 0 min 0 W/m² -8,3 °C -11,4 °C 16,1 km/h (3 Bft)
02.02.2026 22:15 22,1 °C -5,6 °C 44 % 81 % 1010,0 hPa 0,0 l/m² 12,8 km/h (3 Bft) O-NO 67 ° 0 min 0 W/m² -8,3 °C -12,1 °C 17,7 km/h (3 Bft)
02.02.2026 22:16 22,1 °C -5,6 °C 44 % 81 % 1009,9 hPa 0,0 l/m² 15,8 km/h (3 Bft) O 79 ° 0 min 0 W/m² -8,3 °C -14,3 °C 22,5 km/h (4 Bft)
02.02.2026 22:17 22,1 °C -5,6 °C 44 % 81 % 1009,9 hPa 0,0 l/m² 13,6 km/h (3 Bft) O-NO 67 ° 0 min 0 W/m² -8,3 °C -12,7 °C 17,7 km/h (3 Bft)
02.02.2026 22:18 22,1 °C -5,6 °C 44 % 81 % 1009,9 hPa 0,0 l/m² 15,4 km/h (3 Bft) NO 53 ° 0 min 0 W/m² -8,3 °C -14,0 °C 17,7 km/h (3 Bft)
02.02.2026 22:19 22,1 °C -5,6 °C 44 % 81 % 1009,8 hPa 0,0 l/m² 11,5 km/h (2 Bft) O-NO 78 ° 0 min 0 W/m² -8,3 °C -11,0 °C 14,5 km/h (3 Bft)
02.02.2026 22:21 22,1 °C -5,6 °C 44 % 81 % 1009,8 hPa 0,0 l/m² 11,9 km/h (2 Bft) O-NO 69 ° 0 min 0 W/m² -8,3 °C -11,4 °C 20,9 km/h (4 Bft)
02.02.2026 22:23 22,1 °C -5,6 °C 44 % 81 % 1009,9 hPa 0,0 l/m² 13,3 km/h (3 Bft) O-NO 61 ° 0 min 0 W/m² -8,3 °C -12,5 °C 20,9 km/h (4 Bft)
02.02.2026 22:24 22,1 °C -5,6 °C 44 % 81 % 1009,8 hPa 0,0 l/m² 14,3 km/h (3 Bft) O 84 ° 0 min 0 W/m² -8,3 °C -13,3 °C 19,3 km/h (3 Bft)
02.02.2026 22:25 22,0 °C -5,6 °C 44 % 81 % 1009,8 hPa 0,0 l/m² 16,7 km/h (3 Bft) O-NO 66 ° 0 min 0 W/m² -8,3 °C -14,9 °C 22,5 km/h (4 Bft)
02.02.2026 22:26 22,1 °C -5,6 °C 44 % 81 % 1009,8 hPa 0,0 l/m² 13,4 km/h (3 Bft) NO 54 ° 0 min 0 W/m² -8,3 °C -12,6 °C 17,7 km/h (3 Bft)
02.02.2026 22:27 22,1 °C -5,6 °C 44 % 81 % 1009,8 hPa 0,0 l/m² 7,9 km/h (2 Bft) O-NO 72 ° 0 min 0 W/m² -8,3 °C -7,4 °C 14,5 km/h (3 Bft)
02.02.2026 22:28 22,1 °C -5,6 °C 44 % 81 % 1009,9 hPa 0,0 l/m² 12,9 km/h (3 Bft) O-NO 72 ° 0 min 0 W/m² -8,3 °C -12,2 °C 16,1 km/h (3 Bft)
02.02.2026 22:29 22,1 °C -5,6 °C 44 % 81 % 1009,9 hPa 0,0 l/m² 16,3 km/h (3 Bft) O-NO 74 ° 0 min 0 W/m² -8,3 °C -14,7 °C 20,9 km/h (4 Bft)
02.02.2026 22:30 22,1 °C -5,6 °C 44 % 81 % 1009,9 hPa 0,0 l/m² 14,3 km/h (3 Bft) O-NO 69 ° 0 min 0 W/m² -8,3 °C -13,3 °C 20,9 km/h (4 Bft)
02.02.2026 22:32 22,1 °C -5,6 °C 44 % 81 % 1009,8 hPa 0,0 l/m² 13,7 km/h (3 Bft) O-NO 63 ° 0 min 0 W/m² -8,3 °C -12,8 °C 22,5 km/h (4 Bft)
02.02.2026 22:33 22,1 °C -5,6 °C 44 % 81 % 1009,9 hPa 0,0 l/m² 11,7 km/h (2 Bft) NO 34 ° 0 min 0 W/m² -8,3 °C -11,2 °C 19,3 km/h (3 Bft)
02.02.2026 22:34 22,0 °C -5,6 °C 44 % 81 % 1009,8 hPa 0,0 l/m² 10,5 km/h (2 Bft) O-NO 66 ° 0 min 0 W/m² -8,3 °C -10,1 °C 19,3 km/h (3 Bft)
02.02.2026 22:35 22,0 °C -5,6 °C 44 % 81 % 1009,8 hPa 0,0 l/m² 17,9 km/h (3 Bft) O-NO 59 ° 0 min 0 W/m² -8,3 °C -15,7 °C 24,1 km/h (4 Bft)
02.02.2026 22:36 22,0 °C -5,6 °C 44 % 81 % 1009,8 hPa 0,0 l/m² 21,6 km/h (4 Bft) O-NO 70 ° 0 min 0 W/m² -8,3 °C -17,7 °C 27,4 km/h (5 Bft)
02.02.2026 22:37 22,1 °C -5,6 °C 44 % 81 % 1009,8 hPa 0,0 l/m² 19,0 km/h (3 Bft) O-NO 64 ° 0 min 0 W/m² -8,3 °C -16,3 °C 24,1 km/h (4 Bft)
02.02.2026 22:38 22,0 °C -5,6 °C 44 % 81 % 1009,8 hPa 0,0 l/m² 19,7 km/h (3 Bft) O 92 ° 0 min 0 W/m² -8,3 °C -16,7 °C 24,1 km/h (4 Bft)
02.02.2026 22:39 22,0 °C -5,6 °C 44 % 81 % 1009,7 hPa 0,0 l/m² 16,9 km/h (3 Bft) O 82 ° 0 min 0 W/m² -8,3 °C -15,0 °C 20,9 km/h (4 Bft)
02.02.2026 22:40 22,0 °C -5,6 °C 44 % 81 % 1009,7 hPa 0,0 l/m² 20,3 km/h (4 Bft) O-NO 59 ° 0 min 0 W/m² -8,3 °C -17,0 °C 30,6 km/h (5 Bft)
02.02.2026 22:42 22,1 °C -5,6 °C 44 % 81 % 1009,7 hPa 0,0 l/m² 17,3 km/h (3 Bft) O 82 ° 0 min 0 W/m² -8,3 °C -15,3 °C 24,1 km/h (4 Bft)
02.02.2026 22:43 22,0 °C -5,6 °C 44 % 80 % 1009,7 hPa 0,0 l/m² 18,3 km/h (3 Bft) O-NO 67 ° 0 min 0 W/m² -8,5 °C -15,9 °C 20,9 km/h (4 Bft)
02.02.2026 22:44 22,0 °C -5,6 °C 44 % 80 % 1009,8 hPa 0,0 l/m² 14,2 km/h (3 Bft) O-NO 78 ° 0 min 0 W/m² -8,5 °C -13,2 °C 17,7 km/h (3 Bft)
02.02.2026 22:45 22,0 °C -5,6 °C 44 % 81 % 1009,7 hPa 0,0 l/m² 13,8 km/h (3 Bft) O-NO 58 ° 0 min 0 W/m² -8,3 °C -12,9 °C 19,3 km/h (3 Bft)
02.02.2026 22:46 22,1 °C -5,6 °C 44 % 81 % 1009,7 hPa 0,0 l/m² 8,5 km/h (2 Bft) O-NO 78 ° 0 min 0 W/m² -8,3 °C -8,1 °C 12,9 km/h (3 Bft)
02.02.2026 22:47 22,0 °C -5,6 °C 44 % 81 % 1009,7 hPa 0,0 l/m² 10,8 km/h (2 Bft) O-NO 59 ° 0 min 0 W/m² -8,3 °C -10,4 °C 14,5 km/h (3 Bft)
02.02.2026 22:48 22,0 °C -5,6 °C 44 % 81 % 1009,7 hPa 0,0 l/m² 15,8 km/h (3 Bft) O 92 ° 0 min 0 W/m² -8,3 °C -14,3 °C 19,3 km/h (3 Bft)
02.02.2026 22:49 22,0 °C -5,6 °C 44 % 81 % 1009,7 hPa 0,0 l/m² 19,4 km/h (3 Bft) O-NO 75 ° 0 min 0 W/m² -8,3 °C -16,5 °C 24,1 km/h (4 Bft)
02.02.2026 22:50 22,0 °C -5,6 °C 44 % 81 % 1009,7 hPa 0,0 l/m² 16,2 km/h (3 Bft) NO 49 ° 0 min 0 W/m² -8,3 °C -14,6 °C 19,3 km/h (3 Bft)
02.02.2026 22:52 22,0 °C -5,6 °C 44 % 81 % 1009,7 hPa 0,0 l/m² 13,1 km/h (3 Bft) O-NO 65 ° 0 min 0 W/m² -8,3 °C -12,3 °C 20,9 km/h (4 Bft)
02.02.2026 22:53 22,0 °C -5,6 °C 44 % 81 % 1009,7 hPa 0,0 l/m² 11,3 km/h (2 Bft) O-NO 78 ° 0 min 0 W/m² -8,3 °C -10,8 °C 14,5 km/h (3 Bft)
02.02.2026 22:54 22,0 °C -5,6 °C 44 % 81 % 1009,5 hPa 0,0 l/m² 12,5 km/h (2 Bft) O 83 ° 0 min 0 W/m² -8,3 °C -11,9 °C 16,1 km/h (3 Bft)
02.02.2026 22:55 22,0 °C -5,6 °C 44 % 81 % 1009,6 hPa 0,0 l/m² 11,5 km/h (2 Bft) O-NO 75 ° 0 min 0 W/m² -8,3 °C -11,0 °C 19,3 km/h (3 Bft)
02.02.2026 22:56 22,0 °C -5,6 °C 44 % 81 % 1009,5 hPa 0,0 l/m² 14,6 km/h (3 Bft) O-NO 63 ° 0 min 0 W/m² -8,3 °C -13,5 °C 19,3 km/h (3 Bft)
02.02.2026 22:57 22,0 °C -5,6 °C 44 % 81 % 1009,7 hPa 0,0 l/m² 8,6 km/h (2 Bft) O 85 ° 0 min 0 W/m² -8,3 °C -8,2 °C 11,3 km/h (2 Bft)
02.02.2026 22:58 22,0 °C -5,6 °C 44 % 81 % 1009,5 hPa 0,0 l/m² 9,3 km/h (2 Bft) O 82 ° 0 min 0 W/m² -8,3 °C -8,9 °C 17,7 km/h (3 Bft)
02.02.2026 22:59 22,0 °C -5,6 °C 44 % 81 % 1009,5 hPa 0,0 l/m² 13,6 km/h (3 Bft) NO 51 ° 0 min 0 W/m² -8,3 °C -12,7 °C 19,3 km/h (3 Bft)
02.02.2026 23:01 22,0 °C -5,6 °C 44 % 81 % 1009,7 hPa 0,0 l/m² 8,4 km/h (2 Bft) O-NO 77 ° 0 min 0 W/m² -8,3 °C -8,0 °C 14,5 km/h (3 Bft)
02.02.2026 23:03 22,0 °C -5,6 °C 44 % 81 % 1009,5 hPa 0,0 l/m² 10,6 km/h (2 Bft) O-NO 67 ° 0 min 0 W/m² -8,3 °C -10,2 °C 17,7 km/h (3 Bft)
02.02.2026 23:04 22,0 °C -5,6 °C 44 % 81 % 1009,6 hPa 0,0 l/m² 14,1 km/h (3 Bft) O-NO 61 ° 0 min 0 W/m² -8,3 °C -13,1 °C 19,3 km/h (3 Bft)
02.02.2026 23:05 22,0 °C -5,6 °C 44 % 81 % 1009,6 hPa 0,0 l/m² 11,8 km/h (2 Bft) NO 49 ° 0 min 0 W/m² -8,3 °C -11,3 °C 16,1 km/h (3 Bft)
02.02.2026 23:06 22,0 °C -5,6 °C 44 % 81 % 1009,6 hPa 0,0 l/m² 12,4 km/h (2 Bft) O-NO 66 ° 0 min 0 W/m² -8,3 °C -11,8 °C 16,1 km/h (3 Bft)
02.02.2026 23:08 22,0 °C -5,6 °C 44 % 81 % 1009,7 hPa 0,0 l/m² 12,9 km/h (3 Bft) O-NO 65 ° 0 min 0 W/m² -8,3 °C -12,2 °C 19,3 km/h (3 Bft)
02.02.2026 23:09 22,0 °C -5,6 °C 44 % 81 % 1009,7 hPa 0,0 l/m² 14,8 km/h (3 Bft) O 84 ° 0 min 0 W/m² -8,3 °C -13,6 °C 20,9 km/h (4 Bft)
02.02.2026 23:10 22,0 °C -5,6 °C 44 % 81 % 1009,7 hPa 0,0 l/m² 9,1 km/h (2 Bft) NO 38 ° 0 min 0 W/m² -8,3 °C -8,7 °C 14,5 km/h (3 Bft)
02.02.2026 23:12 22,0 °C -5,6 °C 44 % 81 % 1009,7 hPa 0,0 l/m² 11,1 km/h (2 Bft) O-NO 57 ° 0 min 0 W/m² -8,3 °C -10,7 °C 17,7 km/h (3 Bft)
02.02.2026 23:13 22,0 °C -5,6 °C 44 % 81 % 1009,8 hPa 0,0 l/m² 10,3 km/h (2 Bft) O-NO 57 ° 0 min 0 W/m² -8,3 °C -9,9 °C 16,1 km/h (3 Bft)
02.02.2026 23:14 22,0 °C -5,6 °C 44 % 81 % 1009,8 hPa 0,0 l/m² 18,8 km/h (3 Bft) O-NO 68 ° 0 min 0 W/m² -8,3 °C -16,2 °C 25,7 km/h (4 Bft)
02.02.2026 23:15 22,0 °C -5,6 °C 44 % 81 % 1009,7 hPa 0,0 l/m² 16,3 km/h (3 Bft) NO 44 ° 0 min 0 W/m² -8,3 °C -14,7 °C 20,9 km/h (4 Bft)
02.02.2026 23:16 22,0 °C -5,6 °C 44 % 81 % 1009,7 hPa 0,0 l/m² 19,3 km/h (3 Bft) O-NO 67 ° 0 min 0 W/m² -8,3 °C -16,5 °C 30,6 km/h (5 Bft)
02.02.2026 23:17 22,0 °C -5,6 °C 44 % 81 % 1009,7 hPa 0,0 l/m² 19,3 km/h (3 Bft) O-NO 67 ° 0 min 0 W/m² -8,3 °C -16,5 °C 24,1 km/h (4 Bft)
02.02.2026 23:22 22,0 °C -5,6 °C 44 % 81 % 1009,7 hPa 0,0 l/m² 14,9 km/h (3 Bft) O-NO 65 ° 0 min 0 W/m² -8,3 °C -13,7 °C 17,7 km/h (3 Bft)
02.02.2026 23:24 22,0 °C -5,6 °C 44 % 81 % 1009,8 hPa 0,0 l/m² 10,2 km/h (2 Bft) O-NO 59 ° 0 min 0 W/m² -8,3 °C -9,8 °C 16,1 km/h (3 Bft)
02.02.2026 23:26 22,0 °C -5,6 °C 44 % 81 % 1009,9 hPa 0,0 l/m² 10,3 km/h (2 Bft) NO 45 ° 0 min 0 W/m² -8,3 °C -9,9 °C 16,1 km/h (3 Bft)
02.02.2026 23:27 22,0 °C -5,6 °C 44 % 81 % 1009,8 hPa 0,0 l/m² 9,6 km/h (2 Bft) O-NO 71 ° 0 min 0 W/m² -8,3 °C -9,2 °C 17,7 km/h (3 Bft)
02.02.2026 23:28 22,0 °C -5,6 °C 44 % 81 % 1009,8 hPa 0,0 l/m² 11,2 km/h (2 Bft) O-NO 57 ° 0 min 0 W/m² -8,3 °C -10,8 °C 17,7 km/h (3 Bft)
02.02.2026 23:30 22,0 °C -5,6 °C 44 % 81 % 1009,9 hPa 0,0 l/m² 11,5 km/h (2 Bft) N-NO 31 ° 0 min 0 W/m² -8,3 °C -11,0 °C 20,9 km/h (4 Bft)
02.02.2026 23:31 22,0 °C -5,6 °C 44 % 81 % 1009,9 hPa 0,0 l/m² 12,4 km/h (2 Bft) O-NO 70 ° 0 min 0 W/m² -8,3 °C -11,8 °C 17,7 km/h (3 Bft)
02.02.2026 23:32 22,0 °C -5,6 °C 44 % 81 % 1009,9 hPa 0,0 l/m² 18,6 km/h (3 Bft) O-NO 57 ° 0 min 0 W/m² -8,3 °C -16,1 °C 24,1 km/h (4 Bft)
02.02.2026 23:35 22,0 °C -5,7 °C 44 % 81 % 1010,0 hPa 0,0 l/m² 15,0 km/h (3 Bft) O-NO 64 ° 0 min 0 W/m² -8,4 °C -13,9 °C 22,5 km/h (4 Bft)
02.02.2026 23:37 22,0 °C -5,6 °C 44 % 81 % 1009,9 hPa 0,0 l/m² 12,8 km/h (3 Bft) O 89 ° 0 min 0 W/m² -8,3 °C -12,1 °C 19,3 km/h (3 Bft)
02.02.2026 23:39 22,0 °C -5,6 °C 44 % 81 % 1009,9 hPa 0,0 l/m² 14,4 km/h (3 Bft) O-NO 73 ° 0 min 0 W/m² -8,3 °C -13,3 °C 17,7 km/h (3 Bft)
02.02.2026 23:40 22,0 °C -5,7 °C 44 % 81 % 1010,0 hPa 0,0 l/m² 13,3 km/h (3 Bft) O-NO 65 ° 0 min 0 W/m² -8,4 °C -12,6 °C 16,1 km/h (3 Bft)
02.02.2026 23:41 22,0 °C -5,7 °C 44 % 81 % 1009,9 hPa 0,0 l/m² 14,1 km/h (3 Bft) O 84 ° 0 min 0 W/m² -8,4 °C -13,2 °C 17,7 km/h (3 Bft)
02.02.2026 23:42 22,0 °C -5,6 °C 44 % 81 % 1009,9 hPa 0,0 l/m² 9,5 km/h (2 Bft) O-NO 72 ° 0 min 0 W/m² -8,3 °C -9,1 °C 14,5 km/h (3 Bft)
02.02.2026 23:44 22,0 °C -5,7 °C 44 % 81 % 1009,9 hPa 0,0 l/m² 9,2 km/h (2 Bft) O-NO 57 ° 0 min 0 W/m² -8,4 °C -8,9 °C 16,1 km/h (3 Bft)
02.02.2026 23:45 22,0 °C -5,6 °C 44 % 81 % 1009,9 hPa 0,0 l/m² 7,1 km/h (2 Bft) O 82 ° 0 min 0 W/m² -8,3 °C -6,5 °C 12,9 km/h (3 Bft)
02.02.2026 23:47 22,0 °C -5,6 °C 44 % 81 % 1009,8 hPa 0,0 l/m² 9,9 km/h (2 Bft) O 92 ° 0 min 0 W/m² -8,3 °C -9,5 °C 19,3 km/h (3 Bft)
02.02.2026 23:49 22,0 °C -5,7 °C 44 % 81 % 1009,8 hPa 0,0 l/m² 14,5 km/h (3 Bft) O-NO 72 ° 0 min 0 W/m² -8,4 °C -13,5 °C 24,1 km/h (4 Bft)
02.02.2026 23:50 22,0 °C -5,7 °C 44 % 81 % 1009,8 hPa 0,0 l/m² 24,3 km/h (4 Bft) O-NO 58 ° 0 min 0 W/m² -8,4 °C -19,1 °C 30,6 km/h (5 Bft)
02.02.2026 23:51 22,0 °C -5,7 °C 44 % 81 % 1009,8 hPa 0,0 l/m² 19,8 km/h (3 Bft) O-NO 78 ° 0 min 0 W/m² -8,4 °C -16,9 °C 25,7 km/h (4 Bft)
02.02.2026 23:52 22,0 °C -5,7 °C 44 % 81 % 1009,8 hPa 0,0 l/m² 19,8 km/h (3 Bft) O 83 ° 0 min 0 W/m² -8,4 °C -16,9 °C 22,5 km/h (4 Bft)
02.02.2026 23:55 22,0 °C -5,7 °C 44 % 81 % 1009,8 hPa 0,0 l/m² 16,9 km/h (3 Bft) O 88 ° 0 min 0 W/m² -8,4 °C -15,2 °C 22,5 km/h (4 Bft)
02.02.2026 23:57 22,0 °C -5,7 °C 44 % 81 % 1009,9 hPa 0,0 l/m² 18,4 km/h (3 Bft) O-NO 75 ° 0 min 0 W/m² -8,4 °C -16,1 °C 27,4 km/h (5 Bft)
02.02.2026 23:59 22,0 °C -5,8 °C 44 % 81 % 1009,8 hPa 0,0 l/m² 16,5 km/h (3 Bft) O-NO 75 ° 0 min 0 W/m² -8,5 °C -15,0 °C 20,9 km/h (4 Bft)
_ Min-Zeit 20:44 23:59 21:53 13:57 16:24 - 17:16 - - - - 23:59 23:50 10:29
Minimum _ 21,9 °C -5,8 °C 43 % 75 % 1009,2 hPa - 3,0 km/h (1 Bft) - - - - -8,5 °C -19,1 °C 4,8 km/h (1 Bft)
_ Max-Zeit 17:15 13:39 09:11 02:26 00:39 11:03 23:50 - - 12:06 13:07 13:28 13:21 23:50
Maximum _ 22,2 °C -2,8 °C 45 % 85 % 1012,3 hPa 0,2 l/m² 24,3 km/h
O-NO (4 Bft)
- - 5 min 239 W/m² -6,4 °C -2,9 °C 30,6 km/h
O (5 Bft)
Durchschnitt _ 22,1 °C -5,0 °C 44 % 81 % 1010,3 hPa #0,2 l/m² 11,2 km/h (2 Bft) O-NO - #6:16 h 46 W/m² -7,8 °C -9,9 °C 17,0 km/h (3 Bft)
© 2009 Mathias Hoßbach